Wetterdaten: Donnerstag, 14.09.2017
Datum Zeit Temp. A. Pool Temp. Feuchte A. Luftdruck Regen Wind Richtung Richtung Sonnenschein ET UV Solar Taupunkt Windchill Windben Empfang
14.09.2017 00:00 15,1 C 16,7 C 83 % 1008,4 hPa 0,0 l/m 4,6 km/h (1 Bft) S-SW 198 0 min 0,000 mm 0,0 UV-I 0 W/m 12,2 C 15,1 C 6,4 km/h (2 Bft) 100,00 %
14.09.2017 00:02 15,1 C 16,7 C 84 % 1008,4 hPa 0,0 l/m 1,8 km/h (1 Bft) S 185 0 min 0,000 mm 0,0 UV-I 0 W/m 12,4 C 15,1 C 4,8 km/h (1 Bft) 94,12 %
14.09.2017 00:04 14,9 C 16,7 C 84 % 1008,4 hPa 0,0 l/m 2,2 km/h (1 Bft) S 185 0 min 0,000 mm 0,0 UV-I 0 W/m 12,2 C 14,9 C 3,2 km/h (1 Bft) 100,00 %
14.09.2017 00:06 14,9 C 16,7 C 84 % 1008,5 hPa 0,0 l/m 6,3 km/h (2 Bft) W-SW 244 0 min 0,000 mm 0,0 UV-I 0 W/m 12,2 C 14,9 C 9,7 km/h (2 Bft) 100,00 %
14.09.2017 00:08 14,8 C 16,7 C 85 % 1008,4 hPa 0,0 l/m 4,4 km/h (1 Bft) S 171 0 min 0,000 mm 0,0 UV-I 0 W/m 12,3 C 14,8 C 8,0 km/h (2 Bft) 96,00 %
14.09.2017 00:10 14,8 C 16,7 C 85 % 1008,4 hPa 0,0 l/m 3,9 km/h (1 Bft) S-SO 168 0 min 0,000 mm 0,0 UV-I 0 W/m 12,3 C 14,8 C 8,0 km/h (2 Bft) 97,56 %
14.09.2017 00:12 14,8 C 16,7 C 85 % 1008,5 hPa 0,0 l/m 4,9 km/h (1 Bft) W-SW 248 0 min 0,000 mm 0,0 UV-I 0 W/m 12,3 C 14,8 C 6,4 km/h (2 Bft) 98,00 %
14.09.2017 00:14 14,7 C 16,7 C 85 % 1008,5 hPa 0,0 l/m 4,3 km/h (1 Bft) W-SW 248 0 min 0,000 mm 0,0 UV-I 0 W/m 12,2 C 14,7 C 4,8 km/h (1 Bft) 100,00 %
14.09.2017 00:16 14,7 C 16,7 C 85 % 1008,4 hPa 0,0 l/m 5,1 km/h (1 Bft) SW 217 0 min 0,000 mm 0,0 UV-I 0 W/m 12,2 C 14,7 C 8,0 km/h (2 Bft) 100,00 %
14.09.2017 00:18 14,6 C 16,7 C 85 % 1008,4 hPa 0,0 l/m 4,2 km/h (1 Bft) SW 215 0 min 0,000 mm 0,0 UV-I 0 W/m 12,1 C 14,6 C 6,4 km/h (2 Bft) 94,74 %
14.09.2017 00:20 14,5 C 16,7 C 86 % 1008,5 hPa 0,0 l/m 4,9 km/h (1 Bft) SW 219 0 min 0,000 mm 0,0 UV-I 0 W/m 12,2 C 14,5 C 6,4 km/h (2 Bft) 100,00 %
14.09.2017 00:22 14,4 C 16,7 C 86 % 1008,3 hPa 0,0 l/m 2,1 km/h (1 Bft) SW 219 0 min 0,000 mm 0,0 UV-I 0 W/m 12,1 C 14,4 C 3,2 km/h (1 Bft) 98,00 %
14.09.2017 00:24 14,4 C 16,7 C 86 % 1008,5 hPa 0,0 l/m 3,9 km/h (1 Bft) W 259 0 min 0,000 mm 0,0 UV-I 0 W/m 12,1 C 14,4 C 4,8 km/h (1 Bft) 97,37 %
14.09.2017 00:26 14,3 C 16,7 C 86 % 1008,5 hPa 0,0 l/m 0,9 km/h (0 Bft) W 259 0 min 0,000 mm 0,0 UV-I 0 W/m 12,0 C 14,3 C 3,2 km/h (1 Bft) 100,00 %
14.09.2017 00:28 14,3 C 16,7 C 86 % 1008,5 hPa 0,0 l/m 1,6 km/h (1 Bft) W 259 0 min 0,000 mm 0,0 UV-I 0 W/m 12,0 C 14,3 C 4,8 km/h (1 Bft) 100,00 %
14.09.2017 00:30 14,2 C 16,7 C 86 % 1008,4 hPa 0,0 l/m 2,8 km/h (1 Bft) N 355 0 min 0,000 mm 0,0 UV-I 0 W/m 11,9 C 14,2 C 4,8 km/h (1 Bft) 100,00 %
14.09.2017 00:32 14,1 C 16,7 C 86 % 1008,4 hPa 0,0 l/m 1,9 km/h (1 Bft) N-NO 29 0 min 0,000 mm 0,0 UV-I 0 W/m 11,8 C 14,1 C 6,4 km/h (2 Bft) 97,92 %
14.09.2017 00:34 14,0 C 16,7 C 86 % 1008,4 hPa 0,0 l/m 6,9 km/h (2 Bft) O-NO 63 0 min 0,000 mm 0,0 UV-I 0 W/m 11,7 C 13,7 C 8,0 km/h (2 Bft) 98,08 %
14.09.2017 00:36 13,9 C 16,7 C 87 % 1008,6 hPa 0,0 l/m 2,1 km/h (1 Bft) NW 313 0 min 0,000 mm 0,0 UV-I 0 W/m 11,8 C 13,9 C 4,8 km/h (1 Bft) 97,44 %
14.09.2017 00:38 13,8 C 16,7 C 87 % 1008,6 hPa 0,0 l/m 1,8 km/h (1 Bft) W-NW 298 0 min 0,000 mm 0,0 UV-I 0 W/m 11,7 C 13,8 C 4,8 km/h (1 Bft) 96,23 %
14.09.2017 00:40 13,8 C 16,7 C 88 % 1008,5 hPa 0,0 l/m 0,7 km/h (0 Bft) O-NO 62 0 min 0,000 mm 0,0 UV-I 0 W/m 11,8 C 13,8 C 4,8 km/h (1 Bft) 95,74 %
14.09.2017 00:42 13,7 C 16,7 C 88 % 1008,4 hPa 0,0 l/m 4,2 km/h (1 Bft) O-NO 76 0 min 0,000 mm 0,0 UV-I 0 W/m 11,7 C 13,7 C 6,4 km/h (2 Bft) 93,62 %
14.09.2017 00:44 13,6 C 16,7 C 88 % 1008,4 hPa 0,0 l/m 1,9 km/h (1 Bft) O-NO 76 0 min 0,000 mm 0,0 UV-I 0 W/m 11,6 C 13,6 C 3,2 km/h (1 Bft) 97,87 %
14.09.2017 00:46 13,5 C 16,7 C 89 % 1008,5 hPa 0,0 l/m 2,0 km/h (1 Bft) O 80 0 min 0,000 mm 0,0 UV-I 0 W/m 11,7 C 13,5 C 4,8 km/h (1 Bft) 97,87 %
14.09.2017 00:48 13,4 C 16,7 C 89 % 1008,4 hPa 0,0 l/m 0,8 km/h (0 Bft) O 80 0 min 0,000 mm 0,0 UV-I 0 W/m 11,6 C 13,4 C 3,2 km/h (1 Bft) 97,14 %
14.09.2017 00:50 13,3 C 16,7 C 89 % 1008,3 hPa 0,0 l/m 0,4 km/h (0 Bft) O 80 0 min 0,000 mm 0,0 UV-I 0 W/m 11,5 C 13,3 C 1,6 km/h (1 Bft) 98,11 %
14.09.2017 00:52 13,3 C 16,7 C 89 % 1008,3 hPa 0,0 l/m 0,1 km/h (0 Bft) O 80 0 min 0,000 mm 0,0 UV-I 0 W/m 11,5 C 13,3 C 1,6 km/h (1 Bft) 96,00 %
14.09.2017 00:54 13,2 C 16,7 C 89 % 1008,3 hPa 0,0 l/m 1,2 km/h (1 Bft) O 80 0 min 0,000 mm 0,0 UV-I 0 W/m 11,4 C 13,2 C 1,6 km/h (1 Bft) 98,00 %
14.09.2017 00:56 13,1 C 16,7 C 89 % 1008,3 hPa 0,0 l/m 0,0 km/h (0 Bft) O 80 0 min 0,000 mm 0,0 UV-I 0 W/m 11,3 C 13,1 C 0,0 km/h (0 Bft) 97,37 %
14.09.2017 00:58 13,0 C 16,7 C 90 % 1008,3 hPa 0,0 l/m 0,0 km/h (0 Bft) O 80 0 min 0,000 mm 0,0 UV-I 0 W/m 11,4 C 13,0 C 0,0 km/h (0 Bft) 98,00 %
14.09.2017 01:00 12,9 C 16,7 C 90 % 1008,3 hPa 0,0 l/m 0,0 km/h (0 Bft) O 80 0 min 0,000 mm 0,0 UV-I 0 W/m 11,3 C 12,9 C 0,0 km/h (0 Bft) 98,11 %
14.09.2017 01:02 12,9 C 16,7 C 90 % 1008,3 hPa 0,0 l/m 0,5 km/h (0 Bft) O 80 0 min 0,000 mm 0,0 UV-I 0 W/m 11,3 C 12,9 C 1,6 km/h (1 Bft) 97,37 %
14.09.2017 01:04 12,9 C 16,7 C 91 % 1008,3 hPa 0,0 l/m 1,2 km/h (1 Bft) O 80 0 min 0,000 mm 0,0 UV-I 0 W/m 11,5 C 12,9 C 3,2 km/h (1 Bft) 97,87 %
14.09.2017 01:06 12,8 C 16,7 C 91 % 1008,3 hPa 0,0 l/m 2,5 km/h (1 Bft) O 80 0 min 0,000 mm 0,0 UV-I 0 W/m 11,4 C 12,8 C 4,8 km/h (1 Bft) 95,74 %
14.09.2017 01:08 12,8 C 16,7 C 91 % 1008,3 hPa 0,0 l/m 0,8 km/h (0 Bft) O 80 0 min 0,000 mm 0,0 UV-I 0 W/m 11,4 C 12,8 C 3,2 km/h (1 Bft) 98,11 %
14.09.2017 01:10 12,7 C 16,7 C 91 % 1008,3 hPa 0,0 l/m 3,3 km/h (1 Bft) O-SO 109 0 min 0,000 mm 0,0 UV-I 0 W/m 11,3 C 12,7 C 4,8 km/h (1 Bft) 94,87 %
14.09.2017 01:12 12,7 C 16,7 C 91 % 1008,3 hPa 0,0 l/m 3,3 km/h (1 Bft) S-SO 154 0 min 0,000 mm 0,0 UV-I 0 W/m 11,3 C 12,7 C 4,8 km/h (1 Bft) 95,74 %
14.09.2017 01:14 12,7 C 16,7 C 91 % 1008,2 hPa 0,0 l/m 1,4 km/h (1 Bft) S-SO 154 0 min 0,000 mm 0,0 UV-I 0 W/m 11,3 C 12,7 C 3,2 km/h (1 Bft) 94,00 %
14.09.2017 01:16 12,6 C 16,7 C 91 % 1008,2 hPa 0,0 l/m 0,4 km/h (0 Bft) S-SO 154 0 min 0,000 mm 0,0 UV-I 0 W/m 11,2 C 12,6 C 1,6 km/h (1 Bft) 94,34 %
14.09.2017 01:18 12,6 C 16,7 C 91 % 1008,2 hPa 0,0 l/m 2,5 km/h (1 Bft) S-SO 154 0 min 0,000 mm 0,0 UV-I 0 W/m 11,2 C 12,6 C 4,8 km/h (1 Bft) 95,74 %
14.09.2017 01:20 12,5 C 16,7 C 91 % 1008,1 hPa 0,0 l/m 1,7 km/h (1 Bft) S-SO 154 0 min 0,000 mm 0,0 UV-I 0 W/m 11,1 C 12,5 C 4,8 km/h (1 Bft) 92,68 %
14.09.2017 01:22 12,5 C 16,7 C 92 % 1008,1 hPa 0,0 l/m 1,1 km/h (1 Bft) S-SO 154 0 min 0,000 mm 0,0 UV-I 0 W/m 11,2 C 12,5 C 3,2 km/h (1 Bft) 93,62 %
14.09.2017 01:24 12,4 C 16,7 C 92 % 1008,1 hPa 0,0 l/m 0,0 km/h (0 Bft) S-SO 154 0 min 0,000 mm 0,0 UV-I 0 W/m 11,1 C 12,4 C 0,0 km/h (0 Bft) 94,00 %
14.09.2017 01:26 12,5 C 16,7 C 92 % 1008,0 hPa 0,0 l/m 4,2 km/h (1 Bft) SO 127 0 min 0,000 mm 0,0 UV-I 0 W/m 11,2 C 12,5 C 6,4 km/h (2 Bft) 96,00 %
14.09.2017 01:28 12,5 C 16,7 C 92 % 1008,0 hPa 0,0 l/m 3,7 km/h (1 Bft) SO 127 0 min 0,000 mm 0,0 UV-I 0 W/m 11,2 C 12,5 C 6,4 km/h (2 Bft) 94,29 %
14.09.2017 01:30 12,5 C 16,7 C 92 % 1008,0 hPa 0,0 l/m 1,9 km/h (1 Bft) SO 127 0 min 0,000 mm 0,0 UV-I 0 W/m 11,2 C 12,5 C 4,8 km/h (1 Bft) 96,43 %
14.09.2017 01:32 12,5 C 16,7 C 92 % 1007,8 hPa 0,0 l/m 6,0 km/h (2 Bft) SO 128 0 min 0,000 mm 0,0 UV-I 0 W/m 11,2 C 12,5 C 8,0 km/h (2 Bft) 96,00 %
14.09.2017 01:34 12,5 C 16,7 C 92 % 1007,9 hPa 0,0 l/m 1,7 km/h (1 Bft) SO 129 0 min 0,000 mm 0,0 UV-I 0 W/m 11,2 C 12,5 C 6,4 km/h (2 Bft) 94,74 %
14.09.2017 01:36 12,4 C 16,7 C 92 % 1007,8 hPa 0,0 l/m 2,0 km/h (1 Bft) SO 131 0 min 0,000 mm 0,0 UV-I 0 W/m 11,1 C 12,4 C 3,2 km/h (1 Bft) 92,45 %
14.09.2017 01:38 12,4 C 16,7 C 92 % 1007,7 hPa 0,0 l/m 2,8 km/h (1 Bft) SO 135 0 min 0,000 mm 0,0 UV-I 0 W/m 11,1 C 12,4 C 6,4 km/h (2 Bft) 100,00 %
14.09.2017 01:40 12,4 C 16,7 C 92 % 1007,8 hPa 0,0 l/m 4,0 km/h (1 Bft) W 266 0 min 0,000 mm 0,0 UV-I 0 W/m 11,1 C 12,4 C 6,4 km/h (2 Bft) 97,37 %
14.09.2017 01:42 12,4 C 16,7 C 92 % 1007,8 hPa 0,0 l/m 2,6 km/h (1 Bft) SO 134 0 min 0,000 mm 0,0 UV-I 0 W/m 11,1 C 12,4 C 6,4 km/h (2 Bft) 96,23 %
14.09.2017 01:44 12,4 C 16,7 C 92 % 1007,5 hPa 0,0 l/m 9,4 km/h (2 Bft) SO 126 0 min 0,000 mm 0,0 UV-I 0 W/m 11,1 C 10,6 C 14,5 km/h (3 Bft) 100,00 %
14.09.2017 01:46 12,4 C 16,7 C 92 % 1007,7 hPa 0,0 l/m 7,7 km/h (2 Bft) S-SW 212 0 min 0,000 mm 0,0 UV-I 0 W/m 11,1 C 11,6 C 12,9 km/h (3 Bft) 100,00 %
14.09.2017 01:48 12,4 C 16,7 C 92 % 1007,7 hPa 0,0 l/m 4,8 km/h (1 Bft) W 280 0 min 0,000 mm 0,0 UV-I 0 W/m 11,1 C 12,4 C 9,7 km/h (2 Bft) 97,62 %
14.09.2017 01:50 12,4 C 16,7 C 92 % 1007,5 hPa 0,0 l/m 1,6 km/h (1 Bft) S-SO 151 0 min 0,000 mm 0,0 UV-I 0 W/m 11,1 C 12,4 C 4,8 km/h (1 Bft) 100,00 %
14.09.2017 01:52 12,4 C 16,7 C 92 % 1007,5 hPa 0,0 l/m 2,1 km/h (1 Bft) S 169 0 min 0,000 mm 0,0 UV-I 0 W/m 11,1 C 12,4 C 6,4 km/h (2 Bft) 100,00 %
14.09.2017 01:54 12,4 C 16,7 C 92 % 1007,5 hPa 0,0 l/m 2,5 km/h (1 Bft) S-SO 154 0 min 0,000 mm 0,0 UV-I 0 W/m 11,1 C 12,4 C 4,8 km/h (1 Bft) 100,00 %
14.09.2017 01:56 12,3 C 16,7 C 92 % 1007,4 hPa 0,0 l/m 3,0 km/h (1 Bft) SO 136 0 min 0,000 mm 0,0 UV-I 0 W/m 11,0 C 12,3 C 8,0 km/h (2 Bft) 100,00 %
14.09.2017 01:58 12,3 C 16,7 C 92 % 1007,5 hPa 0,0 l/m 2,8 km/h (1 Bft) W-NW 288 0 min 0,000 mm 0,0 UV-I 0 W/m 11,0 C 12,3 C 6,4 km/h (2 Bft) 98,00 %
14.09.2017 02:00 12,3 C 16,7 C 92 % 1007,5 hPa 0,0 l/m 4,4 km/h (1 Bft) NW 317 0 min 0,000 mm 0,0 UV-I 0 W/m 11,0 C 12,3 C 9,7 km/h (2 Bft) 100,00 %
14.09.2017 02:02 12,3 C 16,7 C 92 % 1007,5 hPa 0,0 l/m 3,1 km/h (1 Bft) N 5 0 min 0,000 mm 0,0 UV-I 0 W/m 11,0 C 12,3 C 4,8 km/h (1 Bft) 97,37 %
14.09.2017 02:04 12,3 C 16,7 C 91 % 1007,7 hPa 0,0 l/m 1,1 km/h (1 Bft) N 5 0 min 0,000 mm 0,0 UV-I 0 W/m 10,9 C 12,3 C 4,8 km/h (1 Bft) 97,87 %
14.09.2017 02:06 12,2 C 16,7 C 91 % 1007,6 hPa 0,0 l/m 0,8 km/h (0 Bft) N-NW 346 0 min 0,000 mm 0,0 UV-I 0 W/m 10,8 C 12,2 C 3,2 km/h (1 Bft) 100,00 %
14.09.2017 02:08 12,2 C 16,7 C 91 % 1007,4 hPa 0,0 l/m 2,8 km/h (1 Bft) N-NW 346 0 min 0,000 mm 0,0 UV-I 0 W/m 10,8 C 12,2 C 4,8 km/h (1 Bft) 97,56 %
14.09.2017 02:10 12,1 C 16,7 C 91 % 1007,4 hPa 0,0 l/m 2,6 km/h (1 Bft) NO 46 0 min 0,000 mm 0,0 UV-I 0 W/m 10,7 C 12,1 C 4,8 km/h (1 Bft) 100,00 %
14.09.2017 02:12 12,1 C 16,7 C 91 % 1007,5 hPa 0,0 l/m 0,8 km/h (0 Bft) NO 46 0 min 0,000 mm 0,0 UV-I 0 W/m 10,7 C 12,1 C 3,2 km/h (1 Bft) 100,00 %
14.09.2017 02:14 12,1 C 16,7 C 92 % 1007,5 hPa 0,0 l/m 1,9 km/h (1 Bft) NO 46 0 min 0,000 mm 0,0 UV-I 0 W/m 10,8 C 12,1 C 4,8 km/h (1 Bft) 100,00 %
14.09.2017 02:16 12,0 C 16,7 C 92 % 1007,5 hPa 0,0 l/m 3,4 km/h (1 Bft) NO 46 0 min 0,000 mm 0,0 UV-I 0 W/m 10,7 C 12,0 C 4,8 km/h (1 Bft) 97,87 %
14.09.2017 02:18 11,9 C 16,7 C 92 % 1007,4 hPa 0,0 l/m 3,5 km/h (1 Bft) NO 46 0 min 0,000 mm 0,0 UV-I 0 W/m 10,6 C 11,9 C 4,8 km/h (1 Bft) 100,00 %
14.09.2017 02:20 11,9 C 16,7 C 92 % 1007,3 hPa 0,0 l/m 3,0 km/h (1 Bft) NO 46 0 min 0,000 mm 0,0 UV-I 0 W/m 10,6 C 11,9 C 4,8 km/h (1 Bft) 100,00 %
14.09.2017 02:22 11,8 C 16,7 C 92 % 1007,2 hPa 0,0 l/m 3,0 km/h (1 Bft) NO 46 0 min 0,000 mm 0,0 UV-I 0 W/m 10,5 C 11,8 C 4,8 km/h (1 Bft) 100,00 %
14.09.2017 02:24 11,8 C 16,7 C 92 % 1007,2 hPa 0,0 l/m 0,5 km/h (0 Bft) NO 46 0 min 0,000 mm 0,0 UV-I 0 W/m 10,5 C 11,8 C 3,2 km/h (1 Bft) 97,87 %
14.09.2017 02:26 11,7 C 16,7 C 92 % 1007,3 hPa 0,0 l/m 0,1 km/h (0 Bft) NO 46 0 min 0,000 mm 0,0 UV-I 0 W/m 10,4 C 11,7 C 1,6 km/h (1 Bft) 100,00 %
14.09.2017 02:28 11,7 C 16,7 C 92 % 1007,2 hPa 0,0 l/m 2,3 km/h (1 Bft) NO 46 0 min 0,000 mm 0,0 UV-I 0 W/m 10,4 C 11,7 C 3,2 km/h (1 Bft) 98,36 %
14.09.2017 02:30 11,6 C 16,7 C 92 % 1007,2 hPa 0,0 l/m 1,6 km/h (1 Bft) NO 46 0 min 0,000 mm 0,0 UV-I 0 W/m 10,3 C 11,6 C 3,2 km/h (1 Bft) 97,92 %
14.09.2017 02:32 11,6 C 16,7 C 92 % 1007,1 hPa 0,0 l/m 0,3 km/h (0 Bft) NO 46 0 min 0,000 mm 0,0 UV-I 0 W/m 10,3 C 11,6 C 1,6 km/h (1 Bft) 100,00 %
14.09.2017 02:34 11,5 C 16,7 C 92 % 1007,1 hPa 0,0 l/m 1,8 km/h (1 Bft) NO 46 0 min 0,000 mm 0,0 UV-I 0 W/m 10,2 C 11,5 C 3,2 km/h (1 Bft) 100,00 %
14.09.2017 02:36 11,5 C 16,7 C 92 % 1007,1 hPa 0,0 l/m 2,6 km/h (1 Bft) NO 46 0 min 0,000 mm 0,0 UV-I 0 W/m 10,2 C 11,5 C 3,2 km/h (1 Bft) 98,11 %
14.09.2017 02:38 11,5 C 16,7 C 93 % 1007,1 hPa 0,0 l/m 0,3 km/h (0 Bft) NO 46 0 min 0,000 mm 0,0 UV-I 0 W/m 10,4 C 11,5 C 3,2 km/h (1 Bft) 97,87 %
14.09.2017 02:40 11,5 C 16,7 C 93 % 1007,0 hPa 0,0 l/m 0,0 km/h (0 Bft) NO 46 0 min 0,000 mm 0,0 UV-I 0 W/m 10,4 C 11,5 C 0,0 km/h (0 Bft) 100,00 %
14.09.2017 02:42 11,5 C 16,7 C 93 % 1007,1 hPa 0,0 l/m 0,6 km/h (0 Bft) NO 46 0 min 0,000 mm 0,0 UV-I 0 W/m 10,4 C 11,5 C 1,6 km/h (1 Bft) 100,00 %
14.09.2017 02:44 11,5 C 16,7 C 93 % 1007,1 hPa 0,0 l/m 0,8 km/h (0 Bft) NO 46 0 min 0,000 mm 0,0 UV-I 0 W/m 10,4 C 11,5 C 3,2 km/h (1 Bft) 100,00 %
14.09.2017 02:46 11,5 C 16,7 C 93 % 1006,9 hPa 0,0 l/m 3,9 km/h (1 Bft) NO 46 0 min 0,000 mm 0,0 UV-I 0 W/m 10,4 C 11,5 C 4,8 km/h (1 Bft) 100,00 %
14.09.2017 02:48 11,5 C 16,7 C 93 % 1006,9 hPa 0,0 l/m 3,7 km/h (1 Bft) NO 46 0 min 0,000 mm 0,0 UV-I 0 W/m 10,4 C 11,5 C 4,8 km/h (1 Bft) 100,00 %
14.09.2017 02:50 11,5 C 16,7 C 93 % 1006,8 hPa 0,0 l/m 2,8 km/h (1 Bft) NO 46 0 min 0,000 mm 0,0 UV-I 0 W/m 10,4 C 11,5 C 4,8 km/h (1 Bft) 100,00 %
14.09.2017 02:52 11,4 C 16,7 C 93 % 1006,8 hPa 0,0 l/m 3,0 km/h (1 Bft) NO 46 0 min 0,000 mm 0,0 UV-I 0 W/m 10,3 C 11,4 C 4,8 km/h (1 Bft) 100,00 %
14.09.2017 02:54 11,5 C 16,7 C 93 % 1006,8 hPa 0,0 l/m 2,9 km/h (1 Bft) NO 46 0 min 0,000 mm 0,0 UV-I 0 W/m 10,4 C 11,5 C 4,8 km/h (1 Bft) 100,00 %
14.09.2017 02:56 11,5 C 16,7 C 93 % 1006,8 hPa 0,0 l/m 2,0 km/h (1 Bft) NO 46 0 min 0,000 mm 0,0 UV-I 0 W/m 10,4 C 11,5 C 4,8 km/h (1 Bft) 97,14 %
14.09.2017 02:58 11,5 C 16,7 C 93 % 1006,7 hPa 0,0 l/m 3,6 km/h (1 Bft) NO 46 0 min 0,000 mm 0,0 UV-I 0 W/m 10,4 C 11,5 C 6,4 km/h (2 Bft) 100,00 %
14.09.2017 03:00 11,6 C 16,7 C 94 % 1006,7 hPa 0,0 l/m 4,3 km/h (1 Bft) NO 46 0 min 0,000 mm 0,0 UV-I 0 W/m 10,7 C 11,6 C 6,4 km/h (2 Bft) 95,74 %
14.09.2017 03:02 11,7 C 16,7 C 94 % 1006,8 hPa 0,0 l/m 1,2 km/h (1 Bft) NO 46 0 min 0,000 mm 0,0 UV-I 0 W/m 10,8 C 11,7 C 3,2 km/h (1 Bft) 100,00 %
14.09.2017 03:04 11,7 C 16,7 C 94 % 1006,8 hPa 0,0 l/m 0,0 km/h (0 Bft) NO 46 0 min 0,000 mm 0,0 UV-I 0 W/m 10,8 C 11,7 C 1,6 km/h (1 Bft) 100,00 %
14.09.2017 03:06 11,7 C 16,7 C 93 % 1006,8 hPa 0,0 l/m 0,3 km/h (0 Bft) NO 46 0 min 0,000 mm 0,0 UV-I 0 W/m 10,6 C 11,7 C 1,6 km/h (1 Bft) 100,00 %
14.09.2017 03:08 11,7 C 16,7 C 93 % 1006,8 hPa 0,0 l/m 0,0 km/h (0 Bft) NO 46 0 min 0,000 mm 0,0 UV-I 0 W/m 10,6 C 11,7 C 0,0 km/h (0 Bft) 97,87 %
14.09.2017 03:10 11,7 C 16,7 C 94 % 1006,8 hPa 0,0 l/m 0,0 km/h (0 Bft) NO 46 0 min 0,000 mm 0,0 UV-I 0 W/m 10,8 C 11,7 C 1,6 km/h (1 Bft) 95,65 %
14.09.2017 03:12 11,8 C 16,7 C 94 % 1006,8 hPa 0,0 l/m 1,0 km/h (0 Bft) NO 46 0 min 0,000 mm 0,0 UV-I 0 W/m 10,9 C 11,8 C 1,6 km/h (1 Bft) 97,40 %
14.09.2017 03:14 11,7 C 16,7 C 94 % 1006,8 hPa 0,0 l/m 0,1 km/h (0 Bft) NO 46 0 min 0,000 mm 0,0 UV-I 0 W/m 10,8 C 11,7 C 1,6 km/h (1 Bft) 100,00 %
14.09.2017 03:16 11,7 C 16,7 C 94 % 1006,8 hPa 0,0 l/m 0,9 km/h (0 Bft) NO 46 0 min 0,000 mm 0,0 UV-I 0 W/m 10,8 C 11,7 C 1,6 km/h (1 Bft) 95,12 %
14.09.2017 03:18 11,8 C 16,7 C 94 % 1006,6 hPa 0,0 l/m 1,3 km/h (1 Bft) NO 46 0 min 0,000 mm 0,0 UV-I 0 W/m 10,9 C 11,8 C 3,2 km/h (1 Bft) 98,00 %
14.09.2017 03:20 11,8 C 16,7 C 94 % 1006,5 hPa 0,0 l/m 4,7 km/h (1 Bft) NO 46 0 min 0,000 mm 0,0 UV-I 0 W/m 10,9 C 11,8 C 8,0 km/h (2 Bft) 97,87 %
14.09.2017 03:22 11,8 C 16,7 C 94 % 1006,5 hPa 0,0 l/m 4,1 km/h (1 Bft) NO 46 0 min 0,000 mm 0,0 UV-I 0 W/m 10,9 C 11,8 C 6,4 km/h (2 Bft) 93,62 %
14.09.2017 03:24 11,9 C 16,7 C 94 % 1006,7 hPa 0,0 l/m 2,4 km/h (1 Bft) NW 304 0 min 0,000 mm 0,0 UV-I 0 W/m 11,0 C 11,9 C 4,8 km/h (1 Bft) 97,37 %
14.09.2017 03:27 11,9 C 16,7 C 94 % 1006,5 hPa 0,0 l/m 0,1 km/h (0 Bft) NW 304 0 min 0,000 mm 0,0 UV-I 0 W/m 11,0 C 11,9 C 1,6 km/h (1 Bft) 96,34 %
14.09.2017 03:28 11,9 C 16,7 C 94 % 1006,5 hPa 0,0 l/m 3,8 km/h (1 Bft) NO 55 0 min 0,000 mm 0,0 UV-I 0 W/m 11,0 C 11,9 C 6,4 km/h (2 Bft) 94,44 %
14.09.2017 03:30 11,9 C 16,7 C 94 % 1006,5 hPa 0,0 l/m 4,9 km/h (1 Bft) O-NO 65 0 min 0,000 mm 0,0 UV-I 0 W/m 11,0 C 11,9 C 6,4 km/h (2 Bft) 97,56 %
14.09.2017 03:32 11,9 C 16,7 C 94 % 1006,5 hPa 0,0 l/m 3,1 km/h (1 Bft) O-NO 65 0 min 0,000 mm 0,0 UV-I 0 W/m 11,0 C 11,9 C 4,8 km/h (1 Bft) 96,00 %
14.09.2017 03:34 11,9 C 16,7 C 94 % 1006,4 hPa 0,0 l/m 1,7 km/h (1 Bft) O-NO 65 0 min 0,000 mm 0,0 UV-I 0 W/m 11,0 C 11,9 C 3,2 km/h (1 Bft) 95,74 %
14.09.2017 03:36 11,9 C 16,7 C 94 % 1006,4 hPa 0,0 l/m 4,2 km/h (1 Bft) NO 55 0 min 0,000 mm 0,0 UV-I 0 W/m 11,0 C 11,9 C 6,4 km/h (2 Bft) 97,87 %
14.09.2017 03:38 11,9 C 16,7 C 94 % 1006,4 hPa 0,0 l/m 3,9 km/h (1 Bft) NO 55 0 min 0,000 mm 0,0 UV-I 0 W/m 11,0 C 11,9 C 6,4 km/h (2 Bft) 97,87 %
14.09.2017 03:40 11,9 C 16,7 C 94 % 1006,3 hPa 0,0 l/m 0,8 km/h (0 Bft) NO 55 0 min 0,000 mm 0,0 UV-I 0 W/m 11,0 C 11,9 C 3,2 km/h (1 Bft) 97,73 %
14.09.2017 03:42 11,9 C 16,7 C 94 % 1006,3 hPa 0,0 l/m 0,3 km/h (0 Bft) NO 55 0 min 0,000 mm 0,0 UV-I 0 W/m 11,0 C 11,9 C 1,6 km/h (1 Bft) 97,87 %
14.09.2017 03:44 11,8 C 16,7 C 94 % 1006,3 hPa 0,0 l/m 0,3 km/h (0 Bft) NO 55 0 min 0,000 mm 0,0 UV-I 0 W/m 10,9 C 11,8 C 3,2 km/h (1 Bft) 97,92 %
14.09.2017 03:46 11,8 C 16,7 C 93 % 1006,2 hPa 0,0 l/m 3,4 km/h (1 Bft) O-NO 57 0 min 0,000 mm 0,0 UV-I 0 W/m 10,7 C 11,8 C 4,8 km/h (1 Bft) 95,74 %
14.09.2017 03:48 11,7 C 16,7 C 93 % 1006,2 hPa 0,0 l/m 4,7 km/h (1 Bft) O-NO 57 0 min 0,000 mm 0,0 UV-I 0 W/m 10,6 C 11,7 C 6,4 km/h (2 Bft) 97,56 %
14.09.2017 03:50 11,7 C 16,7 C 93 % 1006,2 hPa 0,0 l/m 2,6 km/h (1 Bft) O-NO 57 0 min 0,000 mm 0,0 UV-I 0 W/m 10,6 C 11,7 C 4,8 km/h (1 Bft) 98,21 %
14.09.2017 03:52 11,7 C 16,7 C 93 % 1006,2 hPa 0,0 l/m 1,1 km/h (1 Bft) O-NO 57 0 min 0,000 mm 0,0 UV-I 0 W/m 10,6 C 11,7 C 3,2 km/h (1 Bft) 100,00 %
14.09.2017 03:54 11,6 C 16,7 C 93 % 1006,2 hPa 0,0 l/m 1,7 km/h (1 Bft) W 281 0 min 0,000 mm 0,0 UV-I 0 W/m 10,5 C 11,6 C 4,8 km/h (1 Bft) 100,00 %
14.09.2017 03:56 11,6 C 16,7 C 93 % 1006,2 hPa 0,0 l/m 2,7 km/h (1 Bft) W 281 0 min 0,000 mm 0,0 UV-I 0 W/m 10,5 C 11,6 C 4,8 km/h (1 Bft) 100,00 %
14.09.2017 03:58 11,6 C 16,7 C 93 % 1006,2 hPa 0,0 l/m 0,0 km/h (0 Bft) W 281 0 min 0,000 mm 0,0 UV-I 0 W/m 10,5 C 11,6 C 0,0 km/h (0 Bft) 97,87 %
14.09.2017 04:00 11,6 C 16,7 C 93 % 1006,1 hPa 0,0 l/m 0,0 km/h (0 Bft) W 281 0 min 0,000 mm 0,0 UV-I 0 W/m 10,5 C 11,6 C 0,0 km/h (0 Bft) 100,00 %
14.09.2017 04:02 11,5 C 16,7 C 93 % 1006,1 hPa 0,0 l/m 0,0 km/h (0 Bft) W 281 0 min 0,000 mm 0,0 UV-I 0 W/m 10,4 C 11,5 C 0,0 km/h (0 Bft) 100,00 %
14.09.2017 04:04 11,5 C 16,7 C 93 % 1006,2 hPa 0,0 l/m 0,9 km/h (0 Bft) W 281 0 min 0,000 mm 0,0 UV-I 0 W/m 10,4 C 11,5 C 3,2 km/h (1 Bft) 96,00 %
14.09.2017 04:06 11,5 C 16,7 C 93 % 1006,1 hPa 0,0 l/m 1,9 km/h (1 Bft) W 281 0 min 0,000 mm 0,0 UV-I 0 W/m 10,4 C 11,5 C 3,2 km/h (1 Bft) 98,00 %
14.09.2017 04:08 11,4 C 16,7 C 93 % 1006,1 hPa 0,0 l/m 0,0 km/h (0 Bft) W 281 0 min 0,000 mm 0,0 UV-I 0 W/m 10,3 C 11,4 C 1,6 km/h (1 Bft) 95,74 %
14.09.2017 04:10 11,4 C 16,7 C 93 % 1006,1 hPa 0,0 l/m 0,0 km/h (0 Bft) W 281 0 min 0,000 mm 0,0 UV-I 0 W/m 10,3 C 11,4 C 1,6 km/h (1 Bft) 96,00 %
14.09.2017 04:12 11,3 C 16,7 C 93 % 1006,1 hPa 0,0 l/m 0,0 km/h (0 Bft) W 281 0 min 0,000 mm 0,0 UV-I 0 W/m 10,2 C 11,3 C 0,0 km/h (0 Bft) 97,37 %
14.09.2017 04:14 11,3 C 16,7 C 92 % 1006,1 hPa 0,0 l/m 0,1 km/h (0 Bft) W 281 0 min 0,000 mm 0,0 UV-I 0 W/m 10,0 C 11,3 C 1,6 km/h (1 Bft) 97,87 %
14.09.2017 04:16 11,3 C 16,7 C 93 % 1006,0 hPa 0,0 l/m 1,3 km/h (1 Bft) W 281 0 min 0,000 mm 0,0 UV-I 0 W/m 10,2 C 11,3 C 3,2 km/h (1 Bft) 95,12 %
14.09.2017 04:18 11,2 C 16,7 C 93 % 1006,1 hPa 0,0 l/m 0,1 km/h (0 Bft) W 281 0 min 0,000 mm 0,0 UV-I 0 W/m 10,1 C 11,2 C 1,6 km/h (1 Bft) 96,23 %
14.09.2017 04:20 11,2 C 16,7 C 93 % 1006,1 hPa 0,0 l/m 1,8 km/h (1 Bft) W 281 0 min 0,000 mm 0,0 UV-I 0 W/m 10,1 C 11,2 C 3,2 km/h (1 Bft) 97,87 %
14.09.2017 04:22 11,2 C 16,7 C 93 % 1006,0 hPa 0,0 l/m 0,0 km/h (0 Bft) W 281 0 min 0,000 mm 0,0 UV-I 0 W/m 10,1 C 11,2 C 0,0 km/h (0 Bft) 98,00 %
14.09.2017 04:24 11,2 C 16,7 C 93 % 1006,0 hPa 0,0 l/m 0,0 km/h (0 Bft) W 281 0 min 0,000 mm 0,0 UV-I 0 W/m 10,1 C 11,2 C 0,0 km/h (0 Bft) 97,44 %
14.09.2017 04:26 11,2 C 16,7 C 93 % 1006,0 hPa 0,0 l/m 0,0 km/h (0 Bft) W 281 0 min 0,000 mm 0,0 UV-I 0 W/m 10,1 C 11,2 C 0,0 km/h (0 Bft) 96,23 %
14.09.2017 04:28 11,2 C 16,7 C 93 % 1006,0 hPa 0,0 l/m 0,0 km/h (0 Bft) W 281 0 min 0,000 mm 0,0 UV-I 0 W/m 10,1 C 11,2 C 0,0 km/h (0 Bft) 97,87 %
14.09.2017 04:29 11,1 C 16,7 C 93 % 1006,0 hPa 0,0 l/m 0,0 km/h (0 Bft) W 281 0 min 0,000 mm 0,0 UV-I 0 W/m 10,0 C 11,1 C 0,0 km/h (0 Bft) 100,00 %
14.09.2017 04:30 11,1 C 16,7 C 93 % 1006,0 hPa 0,0 l/m 0,0 km/h (0 Bft) W 281 0 min 0,000 mm 0,0 UV-I 0 W/m 10,0 C 11,1 C 0,0 km/h (0 Bft) 95,83 %
14.09.2017 04:32 11,1 C 16,7 C 93 % 1006,0 hPa 0,0 l/m 0,5 km/h (0 Bft) W 281 0 min 0,000 mm 0,0 UV-I 0 W/m 10,0 C 11,1 C 3,2 km/h (1 Bft) 97,87 %
14.09.2017 04:34 11,1 C 16,7 C 93 % 1005,9 hPa 0,0 l/m 2,3 km/h (1 Bft) W 281 0 min 0,000 mm 0,0 UV-I 0 W/m 10,0 C 11,1 C 3,2 km/h (1 Bft) 97,56 %
14.09.2017 04:36 10,9 C 16,7 C 93 % 1005,9 hPa 0,0 l/m 0,7 km/h (0 Bft) W 281 0 min 0,000 mm 0,0 UV-I 0 W/m 9,8 C 10,9 C 3,2 km/h (1 Bft) 98,00 %
14.09.2017 04:38 10,9 C 16,7 C 92 % 1005,8 hPa 0,0 l/m 0,0 km/h (0 Bft) W 281 0 min 0,000 mm 0,0 UV-I 0 W/m 9,7 C 10,9 C 0,0 km/h (0 Bft) 98,00 %
14.09.2017 04:40 10,8 C 16,7 C 92 % 1005,8 hPa 0,0 l/m 0,0 km/h (0 Bft) W 281 0 min 0,000 mm 0,0 UV-I 0 W/m 9,6 C 10,8 C 0,0 km/h (0 Bft) 95,74 %
14.09.2017 04:42 10,8 C 16,7 C 93 % 1006,0 hPa 0,0 l/m 3,7 km/h (1 Bft) W 261 0 min 0,000 mm 0,0 UV-I 0 W/m 9,7 C 10,8 C 6,4 km/h (2 Bft) 97,56 %
14.09.2017 04:44 10,8 C 16,7 C 93 % 1006,0 hPa 0,0 l/m 4,8 km/h (1 Bft) W-SW 258 0 min 0,000 mm 0,0 UV-I 0 W/m 9,7 C 10,8 C 6,4 km/h (2 Bft) 98,11 %
14.09.2017 04:46 10,8 C 16,7 C 93 % 1005,9 hPa 0,0 l/m 3,7 km/h (1 Bft) W-SW 257 0 min 0,000 mm 0,0 UV-I 0 W/m 9,7 C 10,8 C 6,4 km/h (2 Bft) 97,37 %
14.09.2017 04:48 10,7 C 16,7 C 93 % 1005,8 hPa 0,0 l/m 2,8 km/h (1 Bft) S 184 0 min 0,000 mm 0,0 UV-I 0 W/m 9,6 C 10,7 C 6,4 km/h (2 Bft) 96,23 %
14.09.2017 04:50 10,6 C 16,7 C 93 % 1005,7 hPa 0,0 l/m 5,0 km/h (1 Bft) SO 144 0 min 0,000 mm 0,0 UV-I 0 W/m 9,5 C 10,6 C 6,4 km/h (2 Bft) 98,00 %
14.09.2017 04:52 10,6 C 16,7 C 93 % 1005,8 hPa 0,0 l/m 4,1 km/h (1 Bft) SO 144 0 min 0,000 mm 0,0 UV-I 0 W/m 9,5 C 10,6 C 4,8 km/h (1 Bft) 94,74 %
14.09.2017 04:54 10,6 C 16,7 C 93 % 1005,9 hPa 0,0 l/m 1,4 km/h (1 Bft) SO 144 0 min 0,000 mm 0,0 UV-I 0 W/m 9,5 C 10,6 C 3,2 km/h (1 Bft) 98,21 %
14.09.2017 04:56 10,6 C 16,7 C 93 % 1005,8 hPa 0,0 l/m 3,4 km/h (1 Bft) SO 144 0 min 0,000 mm 0,0 UV-I 0 W/m 9,5 C 10,6 C 4,8 km/h (1 Bft) 97,37 %
14.09.2017 04:58 10,6 C 16,7 C 93 % 1005,8 hPa 0,0 l/m 0,6 km/h (0 Bft) SO 144 0 min 0,000 mm 0,0 UV-I 0 W/m 9,5 C 10,6 C 3,2 km/h (1 Bft) 98,00 %
14.09.2017 05:00 10,6 C 16,7 C 94 % 1005,8 hPa 0,0 l/m 2,0 km/h (1 Bft) SO 144 0 min 0,000 mm 0,0 UV-I 0 W/m 9,7 C 10,6 C 3,2 km/h (1 Bft) 97,87 %
14.09.2017 05:02 10,6 C 16,7 C 94 % 1005,9 hPa 0,0 l/m 1,0 km/h (0 Bft) SO 144 0 min 0,000 mm 0,0 UV-I 0 W/m 9,7 C 10,6 C 3,2 km/h (1 Bft) 100,00 %
14.09.2017 05:04 10,6 C 16,7 C 94 % 1005,8 hPa 0,0 l/m 3,4 km/h (1 Bft) S-SO 149 0 min 0,000 mm 0,0 UV-I 0 W/m 9,7 C 10,6 C 4,8 km/h (1 Bft) 100,00 %
14.09.2017 05:06 10,6 C 16,7 C 94 % 1005,7 hPa 0,0 l/m 2,4 km/h (1 Bft) S-SO 149 0 min 0,000 mm 0,0 UV-I 0 W/m 9,7 C 10,6 C 3,2 km/h (1 Bft) 100,00 %
14.09.2017 05:08 10,6 C 16,7 C 94 % 1005,7 hPa 0,0 l/m 4,8 km/h (1 Bft) SO 130 0 min 0,000 mm 0,0 UV-I 0 W/m 9,7 C 10,6 C 6,4 km/h (2 Bft) 100,00 %
14.09.2017 05:10 10,6 C 16,7 C 94 % 1005,6 hPa 0,0 l/m 5,1 km/h (1 Bft) SO 138 0 min 0,000 mm 0,0 UV-I 0 W/m 9,7 C 10,6 C 6,4 km/h (2 Bft) 97,37 %
14.09.2017 05:12 10,5 C 16,7 C 94 % 1005,6 hPa 0,0 l/m 0,9 km/h (0 Bft) SO 138 0 min 0,000 mm 0,0 UV-I 0 W/m 9,6 C 10,5 C 1,6 km/h (1 Bft) 100,00 %
14.09.2017 05:14 10,5 C 16,7 C 94 % 1005,6 hPa 0,0 l/m 1,0 km/h (0 Bft) SO 138 0 min 0,000 mm 0,0 UV-I 0 W/m 9,6 C 10,5 C 3,2 km/h (1 Bft) 100,00 %
14.09.2017 05:16 10,5 C 16,7 C 94 % 1005,6 hPa 0,0 l/m 3,8 km/h (1 Bft) SO 138 0 min 0,000 mm 0,0 UV-I 0 W/m 9,6 C 10,5 C 4,8 km/h (1 Bft) 100,00 %
14.09.2017 05:18 10,6 C 16,7 C 94 % 1005,6 hPa 0,0 l/m 2,9 km/h (1 Bft) SO 138 0 min 0,000 mm 0,0 UV-I 0 W/m 9,7 C 10,6 C 4,8 km/h (1 Bft) 98,00 %
14.09.2017 05:20 10,6 C 16,7 C 94 % 1005,6 hPa 0,0 l/m 0,3 km/h (0 Bft) SO 138 0 min 0,000 mm 0,0 UV-I 0 W/m 9,7 C 10,6 C 1,6 km/h (1 Bft) 100,00 %
14.09.2017 05:22 10,6 C 16,7 C 94 % 1005,5 hPa 0,0 l/m 2,3 km/h (1 Bft) SO 140 0 min 0,000 mm 0,0 UV-I 0 W/m 9,7 C 10,6 C 3,2 km/h (1 Bft) 97,14 %
14.09.2017 05:24 10,5 C 16,7 C 94 % 1005,5 hPa 0,0 l/m 2,6 km/h (1 Bft) SO 140 0 min 0,000 mm 0,0 UV-I 0 W/m 9,6 C 10,5 C 4,8 km/h (1 Bft) 100,00 %
14.09.2017 05:26 10,5 C 16,7 C 94 % 1005,5 hPa 0,0 l/m 0,8 km/h (0 Bft) SO 140 0 min 0,000 mm 0,0 UV-I 0 W/m 9,6 C 10,5 C 1,6 km/h (1 Bft) 97,73 %
14.09.2017 05:28 10,5 C 16,7 C 94 % 1005,4 hPa 0,0 l/m 0,0 km/h (0 Bft) SO 140 0 min 0,000 mm 0,0 UV-I 0 W/m 9,6 C 10,5 C 0,0 km/h (0 Bft) 94,34 %
14.09.2017 05:30 10,5 C 16,7 C 94 % 1005,4 hPa 0,0 l/m 0,0 km/h (0 Bft) SO 140 0 min 0,000 mm 0,0 UV-I 0 W/m 9,6 C 10,5 C 0,0 km/h (0 Bft) 95,12 %
14.09.2017 05:32 10,5 C 16,7 C 94 % 1005,3 hPa 0,0 l/m 0,2 km/h (0 Bft) SO 140 0 min 0,000 mm 0,0 UV-I 0 W/m 9,6 C 10,5 C 1,6 km/h (1 Bft) 98,00 %
14.09.2017 05:34 10,4 C 16,7 C 94 % 1005,3 hPa 0,0 l/m 0,8 km/h (0 Bft) SO 140 0 min 0,000 mm 0,0 UV-I 0 W/m 9,5 C 10,4 C 3,2 km/h (1 Bft) 98,00 %
14.09.2017 05:36 10,4 C 16,7 C 94 % 1005,2 hPa 0,0 l/m 0,0 km/h (0 Bft) SO 140 0 min 0,000 mm 0,0 UV-I 0 W/m 9,5 C 10,4 C 0,0 km/h (0 Bft) 95,74 %
14.09.2017 05:38 10,4 C 16,7 C 94 % 1005,2 hPa 0,0 l/m 1,3 km/h (1 Bft) SO 140 0 min 0,000 mm 0,0 UV-I 0 W/m 9,5 C 10,4 C 3,2 km/h (1 Bft) 97,56 %
14.09.2017 05:40 10,4 C 16,7 C 94 % 1005,2 hPa 0,0 l/m 1,8 km/h (1 Bft) SO 140 0 min 0,000 mm 0,0 UV-I 0 W/m 9,5 C 10,4 C 3,2 km/h (1 Bft) 96,00 %
14.09.2017 05:42 10,4 C 16,7 C 94 % 1005,3 hPa 0,0 l/m 0,1 km/h (0 Bft) SO 140 0 min 0,000 mm 0,0 UV-I 0 W/m 9,5 C 10,4 C 1,6 km/h (1 Bft) 98,00 %
14.09.2017 05:44 10,4 C 16,7 C 94 % 1005,2 hPa 0,0 l/m 1,3 km/h (1 Bft) SO 141 0 min 0,000 mm 0,0 UV-I 0 W/m 9,5 C 10,4 C 3,2 km/h (1 Bft) 97,44 %
14.09.2017 05:46 10,4 C 16,7 C 94 % 1005,3 hPa 0,0 l/m 0,2 km/h (0 Bft) SO 141 0 min 0,000 mm 0,0 UV-I 0 W/m 9,5 C 10,4 C 1,6 km/h (1 Bft) 96,00 %
14.09.2017 05:48 10,4 C 16,7 C 94 % 1005,2 hPa 0,0 l/m 1,3 km/h (1 Bft) SO 141 0 min 0,000 mm 0,0 UV-I 0 W/m 9,5 C 10,4 C 3,2 km/h (1 Bft) 93,62 %
14.09.2017 05:50 10,3 C 16,7 C 94 % 1005,2 hPa 0,0 l/m 1,9 km/h (1 Bft) SO 141 0 min 0,000 mm 0,0 UV-I 0 W/m 9,4 C 10,3 C 3,2 km/h (1 Bft) 98,00 %
14.09.2017 05:52 10,3 C 16,7 C 94 % 1005,2 hPa 0,0 l/m 0,6 km/h (0 Bft) SO 141 0 min 0,000 mm 0,0 UV-I 0 W/m 9,4 C 10,3 C 1,6 km/h (1 Bft) 97,87 %
14.09.2017 05:54 10,3 C 16,7 C 94 % 1005,3 hPa 0,0 l/m 0,5 km/h (0 Bft) SO 141 0 min 0,000 mm 0,0 UV-I 0 W/m 9,4 C 10,3 C 1,6 km/h (1 Bft) 98,00 %
14.09.2017 05:56 10,3 C 16,7 C 94 % 1005,3 hPa 0,0 l/m 0,9 km/h (0 Bft) SO 141 0 min 0,000 mm 0,0 UV-I 0 W/m 9,4 C 10,3 C 1,6 km/h (1 Bft) 97,37 %
14.09.2017 05:58 10,2 C 16,7 C 94 % 1005,3 hPa 0,0 l/m 2,5 km/h (1 Bft) SO 141 0 min 0,000 mm 0,0 UV-I 0 W/m 9,3 C 10,2 C 3,2 km/h (1 Bft) 97,87 %
14.09.2017 06:00 10,2 C 16,7 C 94 % 1005,2 hPa 0,0 l/m 0,8 km/h (0 Bft) SO 141 0 min 0,000 mm 0,0 UV-I 0 W/m 9,3 C 10,2 C 3,2 km/h (1 Bft) 97,87 %
14.09.2017 06:02 10,2 C 16,7 C 94 % 1005,3 hPa 0,0 l/m 0,0 km/h (0 Bft) SO 141 0 min 0,000 mm 0,0 UV-I 0 W/m 9,3 C 10,2 C 0,0 km/h (0 Bft) 100,00 %
14.09.2017 06:04 10,2 C 16,7 C 94 % 1005,2 hPa 0,0 l/m 0,0 km/h (0 Bft) SO 141 0 min 0,000 mm 0,0 UV-I 0 W/m 9,3 C 10,2 C 0,0 km/h (0 Bft) 98,00 %
14.09.2017 06:06 10,2 C 16,7 C 94 % 1005,3 hPa 0,0 l/m 0,0 km/h (0 Bft) SO 141 0 min 0,000 mm 0,0 UV-I 0 W/m 9,3 C 10,2 C 0,0 km/h (0 Bft) 97,87 %
14.09.2017 06:08 10,2 C 16,7 C 94 % 1005,3 hPa 0,0 l/m 0,0 km/h (0 Bft) SO 141 0 min 0,000 mm 0,0 UV-I 0 W/m 9,3 C 10,2 C 0,0 km/h (0 Bft) 95,74 %
14.09.2017 06:10 10,1 C 16,7 C 94 % 1005,3 hPa 0,0 l/m 0,0 km/h (0 Bft) SO 141 0 min 0,000 mm 0,0 UV-I 0 W/m 9,2 C 10,1 C 0,0 km/h (0 Bft) 100,00 %
14.09.2017 06:12 10,1 C 16,7 C 94 % 1005,3 hPa 0,0 l/m 0,0 km/h (0 Bft) SO 141 0 min 0,000 mm 0,0 UV-I 0 W/m 9,2 C 10,1 C 0,0 km/h (0 Bft) 100,00 %
14.09.2017 06:14 10,1 C 16,7 C 94 % 1005,4 hPa 0,0 l/m 0,0 km/h (0 Bft) SO 141 0 min 0,000 mm 0,0 UV-I 0 W/m 9,2 C 10,1 C 0,0 km/h (0 Bft) 100,00 %
14.09.2017 06:16 10,1 C 16,7 C 94 % 1005,3 hPa 0,0 l/m 0,0 km/h (0 Bft) SO 141 0 min 0,000 mm 0,0 UV-I 0 W/m 9,2 C 10,1 C 0,0 km/h (0 Bft) 100,00 %
14.09.2017 06:18 10,1 C 16,7 C 94 % 1005,3 hPa 0,0 l/m 0,0 km/h (0 Bft) SO 141 0 min 0,000 mm 0,0 UV-I 0 W/m 9,2 C 10,1 C 0,0 km/h (0 Bft) 100,00 %
14.09.2017 06:20 10,1 C 16,7 C 94 % 1005,3 hPa 0,0 l/m 0,0 km/h (0 Bft) SO 141 0 min 0,000 mm 0,0 UV-I 0 W/m 9,2 C 10,1 C 0,0 km/h (0 Bft) 100,00 %
14.09.2017 06:22 10,1 C 16,7 C 94 % 1005,3 hPa 0,0 l/m 0,0 km/h (0 Bft) SO 141 0 min 0,000 mm 0,0 UV-I 0 W/m 9,2 C 10,1 C 0,0 km/h (0 Bft) 100,00 %
14.09.2017 06:24 10,0 C 16,7 C 94 % 1005,3 hPa 0,0 l/m 0,0 km/h (0 Bft) SO 141 0 min 0,000 mm 0,0 UV-I 0 W/m 9,1 C 10,0 C 0,0 km/h (0 Bft) 100,00 %
14.09.2017 06:26 9,9 C 16,7 C 94 % 1005,4 hPa 0,0 l/m 0,0 km/h (0 Bft) SO 141 0 min 0,000 mm 0,0 UV-I 4 W/m 9,0 C 9,9 C 0,0 km/h (0 Bft) 100,00 %
14.09.2017 06:28 9,9 C 16,7 C 94 % 1005,3 hPa 0,0 l/m 0,0 km/h (0 Bft) SO 141 0 min 0,000 mm 0,0 UV-I 5 W/m 9,0 C 9,9 C 0,0 km/h (0 Bft) 100,00 %
14.09.2017 06:30 9,9 C 16,7 C 94 % 1005,4 hPa 0,0 l/m 0,0 km/h (0 Bft) SO 141 0 min 0,000 mm 0,0 UV-I 5 W/m 9,0 C 9,9 C 0,0 km/h (0 Bft) 100,00 %
14.09.2017 06:32 9,9 C 16,7 C 95 % 1005,5 hPa 0,0 l/m 0,0 km/h (0 Bft) SO 141 0 min 0,000 mm 0,0 UV-I 6 W/m 9,1 C 9,9 C 0,0 km/h (0 Bft) 100,00 %
14.09.2017 06:34 9,9 C 16,7 C 95 % 1005,5 hPa 0,0 l/m 0,0 km/h (0 Bft) SO 141 0 min 0,000 mm 0,0 UV-I 7 W/m 9,1 C 9,9 C 1,6 km/h (1 Bft) 96,00 %
14.09.2017 06:36 9,9 C 16,7 C 95 % 1005,4 hPa 0,0 l/m 0,0 km/h (0 Bft) SO 141 0 min 0,000 mm 0,0 UV-I 7 W/m 9,1 C 9,9 C 1,6 km/h (1 Bft) 100,00 %
14.09.2017 06:38 9,9 C 16,7 C 95 % 1005,4 hPa 0,0 l/m 0,0 km/h (0 Bft) SO 141 0 min 0,000 mm 0,0 UV-I 8 W/m 9,1 C 9,9 C 0,0 km/h (0 Bft) 100,00 %
14.09.2017 06:40 9,9 C 16,7 C 95 % 1005,4 hPa 0,0 l/m 0,0 km/h (0 Bft) SO 141 0 min 0,000 mm 0,0 UV-I 9 W/m 9,1 C 9,9 C 0,0 km/h (0 Bft) 100,00 %
14.09.2017 06:42 9,9 C 16,7 C 95 % 1005,4 hPa 0,0 l/m 0,1 km/h (0 Bft) SO 141 0 min 0,000 mm 0,0 UV-I 10 W/m 9,1 C 9,9 C 1,6 km/h (1 Bft) 100,00 %
14.09.2017 06:44 9,9 C 16,7 C 94 % 1005,3 hPa 0,0 l/m 0,0 km/h (0 Bft) SO 141 0 min 0,000 mm 0,0 UV-I 12 W/m 9,0 C 9,9 C 0,0 km/h (0 Bft) 100,00 %
14.09.2017 06:46 9,9 C 16,7 C 94 % 1005,3 hPa 0,0 l/m 0,0 km/h (0 Bft) SO 141 0 min 0,000 mm 0,0 UV-I 12 W/m 9,0 C 9,9 C 0,0 km/h (0 Bft) 98,11 %
14.09.2017 06:48 9,8 C 16,7 C 94 % 1005,4 hPa 0,0 l/m 0,0 km/h (0 Bft) SO 141 0 min 0,000 mm 0,0 UV-I 14 W/m 8,9 C 9,8 C 1,6 km/h (1 Bft) 100,00 %
14.09.2017 06:50 9,8 C 16,7 C 94 % 1005,3 hPa 0,0 l/m 0,1 km/h (0 Bft) SO 141 2 min 0,000 mm 0,0 UV-I 18 W/m 8,9 C 9,8 C 1,6 km/h (1 Bft) 100,00 %
14.09.2017 06:52 9,8 C 16,7 C 94 % 1005,3 hPa 0,0 l/m 0,0 km/h (0 Bft) SO 141 2 min 0,000 mm 0,0 UV-I 29 W/m 8,9 C 9,8 C 0,0 km/h (0 Bft) 100,00 %
14.09.2017 06:54 9,8 C 16,7 C 94 % 1005,4 hPa 0,0 l/m 1,2 km/h (1 Bft) S-SO 150 2 min 0,000 mm 0,0 UV-I 33 W/m 8,9 C 9,8 C 3,2 km/h (1 Bft) 100,00 %
14.09.2017 06:56 9,8 C 16,7 C 94 % 1005,4 hPa 0,0 l/m 1,7 km/h (1 Bft) SW 234 2 min 0,000 mm 0,0 UV-I 35 W/m 8,9 C 9,8 C 3,2 km/h (1 Bft) 100,00 %
14.09.2017 06:58 9,8 C 16,7 C 95 % 1005,3 hPa 0,0 l/m 0,0 km/h (0 Bft) SW 234 2 min 0,000 mm 0,0 UV-I 39 W/m 9,0 C 9,8 C 0,0 km/h (0 Bft) 98,11 %
14.09.2017 07:00 9,8 C 16,7 C 95 % 1005,4 hPa 0,0 l/m 0,0 km/h (0 Bft) SW 234 2 min 0,000 mm 0,0 UV-I 43 W/m 9,0 C 9,8 C 0,0 km/h (0 Bft) 100,00 %
14.09.2017 07:02 9,8 C 16,7 C 95 % 1005,4 hPa 0,0 l/m 0,3 km/h (0 Bft) SW 231 2 min 0,000 mm 0,0 UV-I 46 W/m 9,0 C 9,8 C 1,6 km/h (1 Bft) 98,00 %
14.09.2017 07:04 9,8 C 16,7 C 95 % 1005,4 hPa 0,0 l/m 1,2 km/h (1 Bft) SW 231 2 min 0,000 mm 0,0 UV-I 50 W/m 9,0 C 9,8 C 3,2 km/h (1 Bft) 100,00 %
14.09.2017 07:06 9,8 C 16,7 C 95 % 1005,3 hPa 0,0 l/m 1,2 km/h (1 Bft) SW 231 2 min 0,000 mm 0,0 UV-I 54 W/m 9,0 C 9,8 C 3,2 km/h (1 Bft) 98,11 %
14.09.2017 07:08 9,8 C 16,7 C 95 % 1005,4 hPa 0,0 l/m 1,5 km/h (1 Bft) SW 231 2 min 0,000 mm 0,0 UV-I 56 W/m 9,0 C 9,8 C 3,2 km/h (1 Bft) 100,00 %
14.09.2017 07:10 9,8 C 16,7 C 95 % 1005,5 hPa 0,0 l/m 0,0 km/h (0 Bft) SW 231 2 min 0,000 mm 0,0 UV-I 61 W/m 9,0 C 9,8 C 0,0 km/h (0 Bft) 95,74 %
14.09.2017 07:12 9,8 C 16,7 C 95 % 1005,4 hPa 0,0 l/m 0,0 km/h (0 Bft) SW 231 2 min 0,000 mm 0,0 UV-I 65 W/m 9,0 C 9,8 C 1,6 km/h (1 Bft) 100,00 %
14.09.2017 07:14 9,8 C 16,7 C 95 % 1005,4 hPa 0,0 l/m 0,0 km/h (0 Bft) SW 231 2 min 0,000 mm 0,0 UV-I 69 W/m 9,0 C 9,8 C 0,0 km/h (0 Bft) 100,00 %
14.09.2017 07:16 9,9 C 16,7 C 95 % 1005,6 hPa 0,0 l/m 0,7 km/h (0 Bft) SW 231 2 min 0,000 mm 0,0 UV-I 73 W/m 9,1 C 9,9 C 1,6 km/h (1 Bft) 100,00 %
14.09.2017 07:18 10,1 C 16,7 C 95 % 1005,6 hPa 0,0 l/m 1,9 km/h (1 Bft) SW 231 2 min 0,000 mm 0,0 UV-I 77 W/m 9,3 C 10,1 C 3,2 km/h (1 Bft) 98,11 %
14.09.2017 07:20 10,0 C 16,7 C 95 % 1005,6 hPa 0,0 l/m 0,9 km/h (0 Bft) SW 231 2 min 0,000 mm 0,0 UV-I 81 W/m 9,2 C 10,0 C 3,2 km/h (1 Bft) 98,00 %
14.09.2017 07:22 9,9 C 16,7 C 95 % 1005,6 hPa 0,0 l/m 0,0 km/h (0 Bft) SW 231 2 min 0,000 mm 0,0 UV-I 84 W/m 9,1 C 9,9 C 0,0 km/h (0 Bft) 95,74 %
14.09.2017 07:24 9,9 C 16,7 C 95 % 1005,7 hPa 0,0 l/m 3,1 km/h (1 Bft) SW 231 2 min 0,000 mm 0,0 UV-I 88 W/m 9,1 C 9,9 C 4,8 km/h (1 Bft) 97,37 %
14.09.2017 07:26 9,9 C 16,7 C 95 % 1005,7 hPa 0,0 l/m 2,7 km/h (1 Bft) SW 231 2 min 0,000 mm 0,0 UV-I 92 W/m 9,1 C 9,9 C 4,8 km/h (1 Bft) 98,11 %
14.09.2017 07:28 9,9 C 16,7 C 96 % 1005,7 hPa 0,0 l/m 1,9 km/h (1 Bft) SW 231 2 min 0,000 mm 0,0 UV-I 97 W/m 9,3 C 9,9 C 3,2 km/h (1 Bft) 95,74 %
14.09.2017 07:30 9,9 C 16,7 C 96 % 1005,6 hPa 0,0 l/m 1,3 km/h (1 Bft) SW 231 2 min 0,000 mm 0,0 UV-I 101 W/m 9,3 C 9,9 C 3,2 km/h (1 Bft) 95,45 %
14.09.2017 07:32 9,9 C 16,7 C 96 % 1005,7 hPa 0,0 l/m 0,3 km/h (0 Bft) SW 231 2 min 0,000 mm 0,0 UV-I 106 W/m 9,3 C 9,9 C 1,6 km/h (1 Bft) 100,00 %
14.09.2017 07:34 10,1 C 16,7 C 96 % 1005,6 hPa 0,0 l/m 0,0 km/h (0 Bft) SW 231 2 min 0,000 mm 0,0 UV-I 110 W/m 9,5 C 10,1 C 0,0 km/h (0 Bft) 95,74 %
14.09.2017 07:36 10,3 C 16,7 C 96 % 1005,6 hPa 0,0 l/m 0,0 km/h (0 Bft) SW 231 2 min 0,000 mm 0,0 UV-I 115 W/m 9,7 C 10,3 C 0,0 km/h (0 Bft) 95,12 %
14.09.2017 07:38 10,5 C 16,7 C 96 % 1005,7 hPa 0,0 l/m 0,0 km/h (0 Bft) SW 231 2 min 0,000 mm 0,0 UV-I 119 W/m 9,9 C 10,5 C 0,0 km/h (0 Bft) 94,00 %
14.09.2017 07:40 10,7 C 16,7 C 97 % 1005,7 hPa 0,0 l/m 0,0 km/h (0 Bft) SW 231 2 min 0,000 mm 0,0 UV-I 124 W/m 10,2 C 10,7 C 0,0 km/h (0 Bft) 96,00 %
14.09.2017 07:42 10,9 C 16,7 C 96 % 1005,7 hPa 0,0 l/m 1,4 km/h (1 Bft) SW 231 2 min 0,000 mm 0,0 UV-I 129 W/m 10,3 C 10,9 C 3,2 km/h (1 Bft) 97,22 %
14.09.2017 07:44 10,9 C 16,7 C 96 % 1005,8 hPa 0,0 l/m 1,2 km/h (1 Bft) S-SW 204 2 min 0,000 mm 0,0 UV-I 134 W/m 10,3 C 10,9 C 3,2 km/h (1 Bft) 96,23 %
14.09.2017 07:46 11,0 C 16,7 C 96 % 1005,8 hPa 0,0 l/m 2,2 km/h (1 Bft) S-SW 204 2 min 0,000 mm 0,0 UV-I 138 W/m 10,4 C 11,0 C 4,8 km/h (1 Bft) 95,74 %
14.09.2017 07:48 11,1 C 16,7 C 96 % 1005,8 hPa 0,0 l/m 1,8 km/h (1 Bft) S-SW 204 2 min 0,000 mm 0,0 UV-I 144 W/m 10,5 C 11,1 C 4,8 km/h (1 Bft) 93,62 %
14.09.2017 07:50 11,2 C 16,7 C 96 % 1005,8 hPa 0,0 l/m 1,2 km/h (1 Bft) S-SW 196 2 min 0,000 mm 0,0 UV-I 149 W/m 10,6 C 11,2 C 3,2 km/h (1 Bft) 94,00 %
14.09.2017 07:52 11,3 C 16,7 C 96 % 1005,6 hPa 0,0 l/m 2,9 km/h (1 Bft) S-SO 167 2 min 0,000 mm 0,0 UV-I 156 W/m 10,7 C 11,3 C 6,4 km/h (2 Bft) 94,74 %
14.09.2017 07:54 11,6 C 16,7 C 97 % 1005,6 hPa 0,0 l/m 1,0 km/h (0 Bft) S-SO 167 2 min 0,000 mm 0,0 UV-I 161 W/m 11,1 C 11,6 C 4,8 km/h (1 Bft) 96,43 %
14.09.2017 07:56 11,8 C 16,7 C 97 % 1005,6 hPa 0,0 l/m 0,8 km/h (0 Bft) S-SO 167 2 min 0,000 mm 0,0 UV-I 166 W/m 11,3 C 11,8 C 4,8 km/h (1 Bft) 95,74 %
14.09.2017 07:58 11,9 C 16,7 C 97 % 1005,6 hPa 0,0 l/m 2,3 km/h (1 Bft) S-SO 167 2 min 0,000 mm 0,0 UV-I 170 W/m 11,4 C 11,9 C 4,8 km/h (1 Bft) 93,62 %
14.09.2017 08:00 12,1 C 16,7 C 97 % 1005,6 hPa 0,0 l/m 4,4 km/h (1 Bft) S-SO 167 2 min 0,051 mm 0,0 UV-I 176 W/m 11,6 C 12,1 C 6,4 km/h (2 Bft) 93,62 %
14.09.2017 08:02 12,1 C 16,7 C 96 % 1005,6 hPa 0,0 l/m 4,4 km/h (1 Bft) S-SO 167 2 min 0,000 mm 0,0 UV-I 181 W/m 11,5 C 12,1 C 4,8 km/h (1 Bft) 95,74 %
14.09.2017 08:04 12,2 C 16,7 C 96 % 1005,6 hPa 0,0 l/m 4,9 km/h (1 Bft) S-SW 213 2 min 0,000 mm 0,0 UV-I 186 W/m 11,6 C 12,2 C 6,4 km/h (2 Bft) 95,12 %
14.09.2017 08:06 12,2 C 16,7 C 96 % 1005,7 hPa 0,0 l/m 6,0 km/h (2 Bft) SW 214 2 min 0,000 mm 0,0 UV-I 192 W/m 11,6 C 12,2 C 8,0 km/h (2 Bft) 94,00 %
14.09.2017 08:08 12,2 C 16,7 C 95 % 1005,7 hPa 0,0 l/m 4,0 km/h (1 Bft) SW 214 2 min 0,000 mm 0,0 UV-I 198 W/m 11,4 C 12,2 C 6,4 km/h (2 Bft) 95,74 %
14.09.2017 08:10 12,2 C 16,7 C 96 % 1005,8 hPa 0,0 l/m 4,4 km/h (1 Bft) SW 225 2 min 0,000 mm 0,0 UV-I 204 W/m 11,6 C 12,2 C 6,4 km/h (2 Bft) 92,68 %
14.09.2017 08:12 12,3 C 16,7 C 95 % 1005,7 hPa 0,0 l/m 4,0 km/h (1 Bft) SW 225 2 min 0,000 mm 0,0 UV-I 210 W/m 11,5 C 12,3 C 4,8 km/h (1 Bft) 96,30 %
14.09.2017 08:14 12,3 C 16,7 C 95 % 1005,7 hPa 0,0 l/m 3,3 km/h (1 Bft) SW 225 2 min 0,000 mm 0,0 UV-I 216 W/m 11,5 C 12,3 C 4,8 km/h (1 Bft) 93,62 %
14.09.2017 08:16 12,4 C 16,7 C 95 % 1005,8 hPa 0,0 l/m 2,3 km/h (1 Bft) SW 225 2 min 0,000 mm 0,0 UV-I 222 W/m 11,6 C 12,4 C 4,8 km/h (1 Bft) 93,62 %
14.09.2017 08:18 12,6 C 16,7 C 95 % 1005,8 hPa 0,0 l/m 3,5 km/h (1 Bft) SW 225 2 min 0,000 mm 0,0 UV-I 229 W/m 11,8 C 12,6 C 4,8 km/h (1 Bft) 91,67 %
14.09.2017 08:20 12,8 C 16,7 C 95 % 1005,7 hPa 0,0 l/m 4,0 km/h (1 Bft) SW 225 2 min 0,000 mm 0,0 UV-I 236 W/m 12,0 C 12,8 C 6,4 km/h (2 Bft) 98,75 %
14.09.2017 08:22 12,9 C 16,7 C 95 % 1005,6 hPa 0,0 l/m 3,1 km/h (1 Bft) SW 225 2 min 0,000 mm 0,1 UV-I 243 W/m 12,1 C 12,9 C 6,4 km/h (2 Bft) 93,88 %
14.09.2017 08:24 13,1 C 16,7 C 94 % 1005,6 hPa 0,0 l/m 0,6 km/h (0 Bft) SW 225 2 min 0,000 mm 0,5 UV-I 249 W/m 12,2 C 13,1 C 1,6 km/h (1 Bft) 100,00 %
14.09.2017 08:26 13,2 C 16,7 C 94 % 1005,6 hPa 0,0 l/m 2,9 km/h (1 Bft) SW 225 2 min 0,000 mm 0,5 UV-I 256 W/m 12,3 C 13,2 C 4,8 km/h (1 Bft) 100,00 %
14.09.2017 08:28 13,3 C 16,7 C 94 % 1005,6 hPa 0,0 l/m 2,8 km/h (1 Bft) SW 225 2 min 0,000 mm 0,5 UV-I 262 W/m 12,4 C 13,3 C 4,8 km/h (1 Bft) 98,00 %
14.09.2017 08:30 13,4 C 16,7 C 94 % 1005,6 hPa 0,0 l/m 3,5 km/h (1 Bft) SW 225 2 min 0,000 mm 0,5 UV-I 268 W/m 12,5 C 13,4 C 4,8 km/h (1 Bft) 100,00 %
14.09.2017 08:32 13,6 C 16,7 C 93 % 1005,6 hPa 0,0 l/m 1,8 km/h (1 Bft) SW 225 2 min 0,000 mm 0,6 UV-I 273 W/m 12,5 C 13,6 C 4,8 km/h (1 Bft) 96,23 %
14.09.2017 08:34 13,7 C 16,7 C 94 % 1005,7 hPa 0,0 l/m 3,7 km/h (1 Bft) SW 225 2 min 0,000 mm 0,6 UV-I 278 W/m 12,8 C 13,7 C 6,4 km/h (2 Bft) 92,11 %
14.09.2017 08:36 13,8 C 16,7 C 93 % 1005,6 hPa 0,0 l/m 4,4 km/h (1 Bft) S-SW 203 2 min 0,000 mm 0,6 UV-I 284 W/m 12,7 C 13,8 C 6,4 km/h (2 Bft) 100,00 %
14.09.2017 08:38 13,9 C 16,7 C 93 % 1005,7 hPa 0,0 l/m 3,3 km/h (1 Bft) S-SW 205 2 min 0,000 mm 0,6 UV-I 289 W/m 12,8 C 13,9 C 4,8 km/h (1 Bft) 100,00 %
14.09.2017 08:40 14,1 C 16,7 C 92 % 1005,7 hPa 0,0 l/m 3,5 km/h (1 Bft) S-SW 211 2 min 0,000 mm 0,6 UV-I 294 W/m 12,8 C 14,1 C 6,4 km/h (2 Bft) 98,21 %
14.09.2017 08:42 14,1 C 16,7 C 92 % 1005,7 hPa 0,0 l/m 3,9 km/h (1 Bft) S-SW 211 2 min 0,000 mm 0,7 UV-I 300 W/m 12,8 C 14,1 C 8,0 km/h (2 Bft) 100,00 %
14.09.2017 08:44 14,3 C 16,7 C 92 % 1005,7 hPa 0,0 l/m 7,0 km/h (2 Bft) S-SW 212 2 min 0,000 mm 0,7 UV-I 306 W/m 13,0 C 13,9 C 8,0 km/h (2 Bft) 100,00 %
14.09.2017 08:46 14,4 C 16,7 C 91 % 1005,7 hPa 0,0 l/m 3,8 km/h (1 Bft) S-SW 207 2 min 0,000 mm 0,7 UV-I 311 W/m 12,9 C 14,4 C 8,0 km/h (2 Bft) 100,00 %
14.09.2017 08:48 14,4 C 16,7 C 91 % 1005,8 hPa 0,0 l/m 4,8 km/h (1 Bft) S-SW 213 2 min 0,000 mm 0,7 UV-I 317 W/m 12,9 C 14,4 C 8,0 km/h (2 Bft) 96,00 %
14.09.2017 08:50 14,6 C 16,7 C 90 % 1005,8 hPa 0,0 l/m 4,8 km/h (1 Bft) S-SW 207 2 min 0,000 mm 0,8 UV-I 322 W/m 13,0 C 14,6 C 8,0 km/h (2 Bft) 100,00 %
14.09.2017 08:52 14,6 C 16,7 C 91 % 1005,7 hPa 0,0 l/m 4,7 km/h (1 Bft) S-SW 198 2 min 0,000 mm 0,8 UV-I 328 W/m 13,1 C 14,6 C 9,7 km/h (2 Bft) 100,00 %
14.09.2017 08:54 14,7 C 16,7 C 90 % 1005,7 hPa 0,0 l/m 3,2 km/h (1 Bft) S 186 2 min 0,000 mm 0,8 UV-I 334 W/m 13,1 C 14,7 C 4,8 km/h (1 Bft) 100,00 %
14.09.2017 08:56 14,8 C 16,7 C 89 % 1005,7 hPa 0,0 l/m 3,0 km/h (1 Bft) S 175 2 min 0,000 mm 0,8 UV-I 339 W/m 13,0 C 14,8 C 6,4 km/h (2 Bft) 100,00 %
14.09.2017 08:58 14,9 C 16,7 C 89 % 1005,7 hPa 0,0 l/m 4,0 km/h (1 Bft) S-SO 159 2 min 0,000 mm 0,9 UV-I 345 W/m 13,1 C 14,9 C 8,0 km/h (2 Bft) 98,11 %
14.09.2017 09:00 15,1 C 16,7 C 89 % 1005,6 hPa 0,0 l/m 4,8 km/h (1 Bft) S-SO 163 2 min 0,127 mm 0,9 UV-I 350 W/m 13,3 C 15,1 C 9,7 km/h (2 Bft) 100,00 %
14.09.2017 09:02 15,1 C 16,7 C 88 % 1005,7 hPa 0,0 l/m 4,9 km/h (1 Bft) SO 146 2 min 0,000 mm 0,9 UV-I 355 W/m 13,1 C 15,1 C 8,0 km/h (2 Bft) 100,00 %
14.09.2017 09:04 15,2 C 16,7 C 88 % 1005,5 hPa 0,0 l/m 5,4 km/h (1 Bft) S 179 2 min 0,000 mm 0,9 UV-I 361 W/m 13,2 C 15,2 C 9,7 km/h (2 Bft) 100,00 %
14.09.2017 09:06 15,4 C 16,7 C 88 % 1005,6 hPa 0,0 l/m 2,5 km/h (1 Bft) SO 144 2 min 0,000 mm 1,0 UV-I 368 W/m 13,4 C 15,4 C 4,8 km/h (1 Bft) 100,00 %
14.09.2017 09:08 15,6 C 16,7 C 87 % 1005,5 hPa 0,0 l/m 3,0 km/h (1 Bft) S-SO 157 2 min 0,000 mm 1,0 UV-I 373 W/m 13,4 C 15,6 C 4,8 km/h (1 Bft) 100,00 %
14.09.2017 09:10 15,7 C 16,7 C 84 % 1005,4 hPa 0,0 l/m 4,0 km/h (1 Bft) S-SO 161 2 min 0,000 mm 1,0 UV-I 378 W/m 13,0 C 15,7 C 9,7 km/h (2 Bft) 100,00 %
14.09.2017 09:12 15,8 C 16,7 C 84 % 1005,5 hPa 0,0 l/m 4,5 km/h (1 Bft) S 169 2 min 0,000 mm 1,1 UV-I 383 W/m 13,1 C 15,8 C 8,0 km/h (2 Bft) 100,00 %
14.09.2017 09:14 15,9 C 16,7 C 83 % 1005,4 hPa 0,0 l/m 4,9 km/h (1 Bft) S-SO 158 2 min 0,000 mm 1,1 UV-I 388 W/m 13,0 C 15,9 C 8,0 km/h (2 Bft) 100,00 %
14.09.2017 09:16 15,9 C 16,7 C 82 % 1005,4 hPa 0,0 l/m 1,7 km/h (1 Bft) S-SO 159 2 min 0,000 mm 1,1 UV-I 393 W/m 12,8 C 15,9 C 3,2 km/h (1 Bft) 100,00 %
14.09.2017 09:18 15,9 C 16,7 C 82 % 1005,4 hPa 0,0 l/m 0,9 km/h (0 Bft) S-SO 159 2 min 0,000 mm 1,2 UV-I 398 W/m 12,8 C 15,9 C 3,2 km/h (1 Bft) 100,00 %
14.09.2017 09:20 16,1 C 16,7 C 82 % 1005,4 hPa 0,0 l/m 3,7 km/h (1 Bft) S-SW 207 2 min 0,000 mm 1,2 UV-I 404 W/m 13,0 C 16,1 C 8,0 km/h (2 Bft) 100,00 %
14.09.2017 09:22 16,2 C 16,7 C 82 % 1005,4 hPa 0,0 l/m 3,4 km/h (1 Bft) S 171 2 min 0,000 mm 1,2 UV-I 408 W/m 13,1 C 16,2 C 6,4 km/h (2 Bft) 100,00 %
14.09.2017 09:24 16,3 C 16,7 C 81 % 1005,4 hPa 0,0 l/m 3,2 km/h (1 Bft) S 181 2 min 0,000 mm 1,3 UV-I 416 W/m 13,0 C 16,3 C 8,0 km/h (2 Bft) 100,00 %
14.09.2017 09:26 16,4 C 16,7 C 81 % 1005,4 hPa 0,0 l/m 4,8 km/h (1 Bft) S-SW 193 2 min 0,000 mm 1,3 UV-I 420 W/m 13,1 C 16,4 C 9,7 km/h (2 Bft) 100,00 %
14.09.2017 09:28 16,6 C 16,7 C 80 % 1005,4 hPa 0,0 l/m 4,5 km/h (1 Bft) S-SW 212 2 min 0,000 mm 1,3 UV-I 425 W/m 13,1 C 16,6 C 6,4 km/h (2 Bft) 100,00 %
14.09.2017 09:30 16,7 C 16,7 C 79 % 1005,4 hPa 0,0 l/m 4,7 km/h (1 Bft) S-SW 205 2 min 0,000 mm 1,4 UV-I 430 W/m 13,0 C 16,7 C 8,0 km/h (2 Bft) 100,00 %
14.09.2017 09:32 16,8 C 16,7 C 78 % 1005,4 hPa 0,0 l/m 5,4 km/h (1 Bft) S 171 2 min 0,000 mm 1,4 UV-I 436 W/m 12,9 C 16,8 C 8,0 km/h (2 Bft) 97,37 %
14.09.2017 09:34 16,8 C 16,7 C 78 % 1005,4 hPa 0,0 l/m 4,5 km/h (1 Bft) S-SO 159 2 min 0,000 mm 1,4 UV-I 440 W/m 12,9 C 16,8 C 12,9 km/h (3 Bft) 100,00 %
14.09.2017 09:36 16,9 C 16,7 C 77 % 1005,3 hPa 0,0 l/m 4,8 km/h (1 Bft) S-SW 202 2 min 0,000 mm 1,5 UV-I 446 W/m 12,8 C 16,9 C 11,3 km/h (2 Bft) 100,00 %
14.09.2017 09:38 17,1 C 16,7 C 78 % 1005,4 hPa 0,0 l/m 5,4 km/h (1 Bft) W-SW 239 2 min 0,000 mm 1,5 UV-I 452 W/m 13,2 C 17,1 C 8,0 km/h (2 Bft) 100,00 %
14.09.2017 09:40 17,3 C 16,7 C 78 % 1005,4 hPa 0,0 l/m 5,0 km/h (1 Bft) S-SO 163 2 min 0,000 mm 1,5 UV-I 456 W/m 13,4 C 17,3 C 8,0 km/h (2 Bft) 100,00 %
14.09.2017 09:42 17,4 C 16,7 C 78 % 1005,4 hPa 0,0 l/m 4,7 km/h (1 Bft) S 188 2 min 0,000 mm 1,6 UV-I 460 W/m 13,5 C 17,4 C 8,0 km/h (2 Bft) 100,00 %
14.09.2017 09:44 17,6 C 16,7 C 78 % 1005,3 hPa 0,0 l/m 3,2 km/h (1 Bft) S-SW 209 2 min 0,000 mm 1,6 UV-I 466 W/m 13,7 C 17,6 C 6,4 km/h (2 Bft) 100,00 %
14.09.2017 09:46 17,6 C 16,7 C 77 % 1005,3 hPa 0,0 l/m 1,9 km/h (1 Bft) S-SW 208 2 min 0,000 mm 1,5 UV-I 470 W/m 13,5 C 17,6 C 3,2 km/h (1 Bft) 100,00 %
14.09.2017 09:48 17,7 C 16,7 C 77 % 1005,3 hPa 0,0 l/m 2,1 km/h (1 Bft) S-SW 208 2 min 0,000 mm 1,3 UV-I 474 W/m 13,6 C 17,7 C 4,8 km/h (1 Bft) 98,00 %
14.09.2017 09:50 17,8 C 16,7 C 78 % 1005,3 hPa 0,0 l/m 4,7 km/h (1 Bft) S-SO 155 2 min 0,000 mm 1,4 UV-I 480 W/m 13,9 C 17,8 C 6,4 km/h (2 Bft) 97,56 %
14.09.2017 09:52 17,9 C 16,7 C 76 % 1005,1 hPa 0,0 l/m 1,0 km/h (0 Bft) S-SO 155 2 min 0,000 mm 1,3 UV-I 485 W/m 13,6 C 17,9 C 3,2 km/h (1 Bft) 98,11 %
14.09.2017 09:54 18,1 C 16,7 C 75 % 1005,1 hPa 0,0 l/m 2,9 km/h (1 Bft) S-SO 150 2 min 0,000 mm 1,8 UV-I 489 W/m 13,6 C 18,1 C 6,4 km/h (2 Bft) 97,37 %
14.09.2017 09:56 18,1 C 16,7 C 76 % 1005,0 hPa 0,0 l/m 2,9 km/h (1 Bft) S-SO 168 2 min 0,000 mm 1,9 UV-I 495 W/m 13,8 C 18,1 C 6,4 km/h (2 Bft) 98,00 %
14.09.2017 09:58 18,3 C 16,7 C 75 % 1005,0 hPa 0,0 l/m 2,8 km/h (1 Bft) S-SO 155 2 min 0,000 mm 1,9 UV-I 500 W/m 13,8 C 18,3 C 8,0 km/h (2 Bft) 98,00 %
14.09.2017 10:00 18,3 C 16,7 C 76 % 1005,1 hPa 0,0 l/m 4,2 km/h (1 Bft) S-SO 147 2 min 0,254 mm 1,9 UV-I 504 W/m 14,0 C 18,3 C 8,0 km/h (2 Bft) 98,00 %
14.09.2017 10:02 18,3 C 16,7 C 76 % 1005,0 hPa 0,0 l/m 5,5 km/h (1 Bft) S-SO 161 2 min 0,000 mm 2,0 UV-I 508 W/m 14,0 C 18,3 C 11,3 km/h (2 Bft) 97,37 %
14.09.2017 10:04 18,3 C 16,7 C 76 % 1005,0 hPa 0,0 l/m 4,5 km/h (1 Bft) S-SO 153 2 min 0,000 mm 2,0 UV-I 512 W/m 14,0 C 18,3 C 9,7 km/h (2 Bft) 98,00 %
14.09.2017 10:06 18,3 C 16,7 C 75 % 1005,0 hPa 0,0 l/m 4,4 km/h (1 Bft) S-SO 155 2 min 0,000 mm 2,1 UV-I 518 W/m 13,8 C 18,3 C 9,7 km/h (2 Bft) 94,00 %
14.09.2017 10:08 18,4 C 16,7 C 75 % 1005,0 hPa 0,0 l/m 3,8 km/h (1 Bft) O-SO 123 2 min 0,000 mm 2,1 UV-I 522 W/m 13,9 C 18,4 C 11,3 km/h (2 Bft) 96,23 %
14.09.2017 10:10 18,6 C 16,7 C 76 % 1004,9 hPa 0,0 l/m 3,2 km/h (1 Bft) SO 145 2 min 0,000 mm 2,1 UV-I 526 W/m 14,3 C 18,6 C 6,4 km/h (2 Bft) 97,56 %
14.09.2017 10:12 18,8 C 16,7 C 75 % 1004,8 hPa 0,0 l/m 5,0 km/h (1 Bft) O-SO 103 2 min 0,000 mm 2,2 UV-I 529 W/m 14,3 C 18,8 C 6,4 km/h (2 Bft) 96,23 %
14.09.2017 10:14 18,9 C 16,7 C 73 % 1004,9 hPa 0,0 l/m 7,2 km/h (2 Bft) O-SO 107 2 min 0,000 mm 2,2 UV-I 534 W/m 13,9 C 18,5 C 12,9 km/h (3 Bft) 97,37 %
14.09.2017 10:16 19,1 C 16,7 C 73 % 1004,9 hPa 0,0 l/m 9,1 km/h (2 Bft) SO 132 2 min 0,000 mm 2,2 UV-I 540 W/m 14,1 C 18,0 C 12,9 km/h (3 Bft) 98,11 %
14.09.2017 10:18 19,1 C 16,7 C 71 % 1004,9 hPa 0,0 l/m 3,3 km/h (1 Bft) SO 128 2 min 0,000 mm 2,3 UV-I 543 W/m 13,7 C 19,1 C 6,4 km/h (2 Bft) 97,44 %
14.09.2017 10:20 19,2 C 16,7 C 72 % 1004,9 hPa 0,0 l/m 7,6 km/h (2 Bft) O 90 2 min 0,000 mm 2,3 UV-I 547 W/m 14,0 C 18,7 C 12,9 km/h (3 Bft) 96,23 %
14.09.2017 10:22 19,2 C 16,7 C 70 % 1004,8 hPa 0,0 l/m 6,7 km/h (2 Bft) O-SO 114 2 min 0,000 mm 2,3 UV-I 552 W/m 13,6 C 19,1 C 14,5 km/h (3 Bft) 97,56 %
14.09.2017 10:24 19,3 C 16,7 C 69 % 1004,9 hPa 0,0 l/m 3,4 km/h (1 Bft) SO 139 2 min 0,000 mm 2,4 UV-I 556 W/m 13,5 C 19,3 C 8,0 km/h (2 Bft) 97,56 %
14.09.2017 10:26 19,2 C 16,7 C 70 % 1004,9 hPa 0,0 l/m 3,5 km/h (1 Bft) SO 127 2 min 0,000 mm 2,4 UV-I 560 W/m 13,6 C 19,2 C 8,0 km/h (2 Bft) 100,00 %
14.09.2017 10:28 19,3 C 16,7 C 71 % 1004,8 hPa 0,0 l/m 2,8 km/h (1 Bft) O 90 2 min 0,000 mm 2,5 UV-I 561 W/m 13,9 C 19,3 C 9,7 km/h (2 Bft) 98,11 %
14.09.2017 10:30 19,4 C 16,7 C 71 % 1004,7 hPa 0,0 l/m 5,0 km/h (1 Bft) O 99 2 min 0,000 mm 2,5 UV-I 566 W/m 14,0 C 19,4 C 9,7 km/h (2 Bft) 100,00 %
14.09.2017 10:32 19,7 C 16,7 C 70 % 1004,7 hPa 0,0 l/m 4,5 km/h (1 Bft) SO 134 2 min 0,000 mm 2,6 UV-I 571 W/m 14,1 C 19,7 C 9,7 km/h (2 Bft) 100,00 %
14.09.2017 10:34 19,6 C 16,7 C 69 % 1004,6 hPa 0,0 l/m 1,9 km/h (1 Bft) S-SO 148 2 min 0,000 mm 2,6 UV-I 576 W/m 13,8 C 19,6 C 4,8 km/h (1 Bft) 100,00 %
14.09.2017 10:36 19,7 C 16,7 C 70 % 1004,6 hPa 0,0 l/m 2,0 km/h (1 Bft) SO 132 2 min 0,000 mm 2,6 UV-I 564 W/m 14,1 C 19,7 C 6,4 km/h (2 Bft) 98,11 %
14.09.2017 10:38 19,7 C 16,7 C 67 % 1004,6 hPa 0,0 l/m 5,0 km/h (1 Bft) S-SO 155 2 min 0,000 mm 2,7 UV-I 574 W/m 13,4 C 19,7 C 9,7 km/h (2 Bft) 100,00 %
14.09.2017 10:40 19,8 C 16,7 C 67 % 1004,6 hPa 0,0 l/m 5,3 km/h (1 Bft) S-SO 165 2 min 0,000 mm 2,7 UV-I 586 W/m 13,5 C 19,8 C 9,7 km/h (2 Bft) 100,00 %
14.09.2017 10:42 19,8 C 16,7 C 66 % 1004,6 hPa 0,0 l/m 4,4 km/h (1 Bft) S-SO 165 2 min 0,000 mm 2,7 UV-I 590 W/m 13,3 C 19,8 C 8,0 km/h (2 Bft) 97,37 %
14.09.2017 10:44 19,9 C 16,7 C 67 % 1004,5 hPa 0,0 l/m 7,8 km/h (2 Bft) O-SO 106 2 min 0,000 mm 2,8 UV-I 594 W/m 13,6 C 19,3 C 11,3 km/h (2 Bft) 100,00 %
14.09.2017 10:46 20,2 C 16,7 C 69 % 1004,5 hPa 0,0 l/m 4,9 km/h (1 Bft) O-SO 122 2 min 0,000 mm 2,8 UV-I 597 W/m 14,3 C 20,2 C 11,3 km/h (2 Bft) 100,00 %
14.09.2017 10:48 20,3 C 16,7 C 67 % 1004,5 hPa 0,0 l/m 3,9 km/h (1 Bft) O-SO 103 2 min 0,000 mm 2,8 UV-I 599 W/m 14,0 C 20,3 C 6,4 km/h (2 Bft) 97,37 %
14.09.2017 10:50 20,4 C 16,7 C 65 % 1004,5 hPa 0,0 l/m 3,5 km/h (1 Bft) S-SO 149 2 min 0,000 mm 2,9 UV-I 603 W/m 13,6 C 20,4 C 6,4 km/h (2 Bft) 100,00 %
14.09.2017 10:52 20,5 C 16,7 C 64 % 1004,5 hPa 0,0 l/m 3,0 km/h (1 Bft) S-SO 153 2 min 0,000 mm 2,9 UV-I 605 W/m 13,5 C 20,5 C 4,8 km/h (1 Bft) 100,00 %
14.09.2017 10:54 20,6 C 16,7 C 66 % 1004,4 hPa 0,0 l/m 4,4 km/h (1 Bft) O-NO 70 2 min 0,000 mm 2,9 UV-I 606 W/m 14,0 C 20,6 C 6,4 km/h (2 Bft) 100,00 %
14.09.2017 10:56 20,6 C 16,7 C 63 % 1004,4 hPa 0,0 l/m 2,3 km/h (1 Bft) SO 124 2 min 0,000 mm 3,0 UV-I 611 W/m 13,3 C 20,6 C 4,8 km/h (1 Bft) 100,00 %
14.09.2017 10:58 20,6 C 16,7 C 62 % 1004,4 hPa 0,0 l/m 3,8 km/h (1 Bft) O 87 2 min 0,000 mm 3,0 UV-I 615 W/m 13,1 C 20,6 C 9,7 km/h (2 Bft) 98,00 %
14.09.2017 11:00 20,6 C 16,7 C 61 % 1004,4 hPa 0,0 l/m 3,3 km/h (1 Bft) O-NO 70 2 min 0,000 mm 3,1 UV-I 619 W/m 12,8 C 20,6 C 4,8 km/h (1 Bft) 97,22 %
14.09.2017 11:02 20,8 C 16,7 C 61 % 1004,4 hPa 0,0 l/m 3,6 km/h (1 Bft) NO 54 2 min 0,330 mm 3,1 UV-I 623 W/m 13,0 C 20,8 C 4,8 km/h (1 Bft) 98,21 %
14.09.2017 11:04 20,9 C 16,7 C 64 % 1004,4 hPa 0,0 l/m 3,2 km/h (1 Bft) NO 54 2 min 0,000 mm 3,1 UV-I 628 W/m 13,8 C 20,9 C 4,8 km/h (1 Bft) 98,00 %
14.09.2017 11:06 21,0 C 16,7 C 65 % 1004,4 hPa 0,0 l/m 1,4 km/h (1 Bft) NO 54 2 min 0,000 mm 3,2 UV-I 630 W/m 14,2 C 21,0 C 4,8 km/h (1 Bft) 97,37 %
14.09.2017 11:08 21,1 C 16,7 C 61 % 1004,3 hPa 0,0 l/m 1,4 km/h (1 Bft) NO 54 2 min 0,000 mm 3,2 UV-I 633 W/m 13,3 C 21,1 C 3,2 km/h (1 Bft) 98,11 %
14.09.2017 11:10 21,1 C 16,7 C 63 % 1004,3 hPa 0,0 l/m 1,0 km/h (0 Bft) NO 54 2 min 0,000 mm 3,3 UV-I 636 W/m 13,8 C 21,1 C 3,2 km/h (1 Bft) 96,00 %
14.09.2017 11:12 21,2 C 16,7 C 64 % 1004,4 hPa 0,0 l/m 0,8 km/h (0 Bft) NO 54 2 min 0,000 mm 3,3 UV-I 639 W/m 14,1 C 21,2 C 3,2 km/h (1 Bft) 97,22 %
14.09.2017 11:14 21,3 C 16,7 C 65 % 1004,3 hPa 0,0 l/m 0,2 km/h (0 Bft) NO 54 2 min 0,000 mm 3,3 UV-I 642 W/m 14,4 C 21,3 C 1,6 km/h (1 Bft) 95,74 %
14.09.2017 11:16 21,4 C 16,7 C 63 % 1004,3 hPa 0,0 l/m 2,4 km/h (1 Bft) NO 43 2 min 0,000 mm 3,4 UV-I 645 W/m 14,1 C 21,4 C 6,4 km/h (2 Bft) 98,00 %
14.09.2017 11:18 21,4 C 16,7 C 64 % 1004,2 hPa 0,0 l/m 1,5 km/h (1 Bft) NO 43 2 min 0,000 mm 3,4 UV-I 648 W/m 14,3 C 21,4 C 4,8 km/h (1 Bft) 98,00 %
14.09.2017 11:20 21,3 C 16,7 C 60 % 1004,2 hPa 0,0 l/m 1,6 km/h (1 Bft) NO 43 2 min 0,000 mm 3,5 UV-I 651 W/m 13,2 C 21,3 C 3,2 km/h (1 Bft) 94,74 %
14.09.2017 11:22 21,2 C 16,7 C 60 % 1004,2 hPa 0,0 l/m 1,4 km/h (1 Bft) NO 43 2 min 0,000 mm 3,5 UV-I 648 W/m 13,1 C 21,2 C 3,2 km/h (1 Bft) 98,00 %
14.09.2017 11:24 21,2 C 16,7 C 62 % 1004,2 hPa 0,0 l/m 1,0 km/h (0 Bft) NO 43 2 min 0,000 mm 3,5 UV-I 656 W/m 13,6 C 21,2 C 3,2 km/h (1 Bft) 98,00 %
14.09.2017 11:26 21,2 C 16,7 C 62 % 1004,2 hPa 0,0 l/m 1,9 km/h (1 Bft) W-NW 286 2 min 0,000 mm 3,5 UV-I 658 W/m 13,6 C 21,2 C 4,8 km/h (1 Bft) 98,00 %
14.09.2017 11:28 21,3 C 16,7 C 62 % 1004,2 hPa 0,0 l/m 2,8 km/h (1 Bft) N-NO 15 2 min 0,000 mm 3,6 UV-I 661 W/m 13,7 C 21,3 C 6,4 km/h (2 Bft) 97,56 %
14.09.2017 11:30 21,4 C 16,7 C 62 % 1004,2 hPa 0,0 l/m 2,0 km/h (1 Bft) NW 309 2 min 0,000 mm 3,6 UV-I 663 W/m 13,8 C 21,4 C 3,2 km/h (1 Bft) 92,86 %
14.09.2017 11:32 21,4 C 16,7 C 60 % 1004,1 hPa 0,0 l/m 0,5 km/h (0 Bft) NW 310 2 min 0,000 mm 3,6 UV-I 664 W/m 13,3 C 21,4 C 3,2 km/h (1 Bft) 97,87 %
14.09.2017 11:34 21,4 C 16,7 C 58 % 1004,0 hPa 0,0 l/m 2,2 km/h (1 Bft) W-NW 287 2 min 0,000 mm 3,7 UV-I 666 W/m 12,8 C 21,4 C 6,4 km/h (2 Bft) 100,00 %
14.09.2017 11:36 21,4 C 16,7 C 59 % 1004,1 hPa 0,0 l/m 1,9 km/h (1 Bft) W-NW 302 2 min 0,000 mm 3,7 UV-I 668 W/m 13,0 C 21,4 C 3,2 km/h (1 Bft) 98,21 %
14.09.2017 11:38 21,4 C 16,7 C 63 % 1004,0 hPa 0,0 l/m 0,1 km/h (0 Bft) W-NW 303 2 min 0,000 mm 3,7 UV-I 670 W/m 14,1 C 21,4 C 1,6 km/h (1 Bft) 96,23 %
14.09.2017 11:40 21,4 C 16,7 C 61 % 1004,0 hPa 0,0 l/m 0,6 km/h (0 Bft) W-NW 302 2 min 0,000 mm 3,8 UV-I 674 W/m 13,6 C 21,4 C 1,6 km/h (1 Bft) 98,00 %
14.09.2017 11:42 21,6 C 16,7 C 62 % 1004,0 hPa 0,0 l/m 2,0 km/h (1 Bft) W-NW 288 2 min 0,000 mm 3,8 UV-I 675 W/m 14,0 C 21,6 C 4,8 km/h (1 Bft) 97,73 %
14.09.2017 11:44 21,8 C 16,7 C 62 % 1004,0 hPa 0,0 l/m 1,0 km/h (0 Bft) W-NW 289 2 min 0,000 mm 3,8 UV-I 678 W/m 14,2 C 21,8 C 3,2 km/h (1 Bft) 96,00 %
14.09.2017 11:46 21,9 C 16,7 C 63 % 1004,0 hPa 0,0 l/m 1,0 km/h (0 Bft) W-NW 290 2 min 0,000 mm 3,9 UV-I 679 W/m 14,5 C 21,9 C 3,2 km/h (1 Bft) 97,87 %
14.09.2017 11:48 22,0 C 16,7 C 60 % 1004,0 hPa 0,0 l/m 1,9 km/h (1 Bft) W-NW 294 2 min 0,000 mm 3,9 UV-I 681 W/m 13,9 C 22,0 C 4,8 km/h (1 Bft) 95,12 %
14.09.2017 11:50 21,9 C 16,7 C 59 % 1004,0 hPa 0,0 l/m 1,9 km/h (1 Bft) NW 323 2 min 0,000 mm 3,9 UV-I 685 W/m 13,5 C 21,9 C 4,8 km/h (1 Bft) 94,34 %
14.09.2017 11:52 21,8 C 16,7 C 62 % 1004,1 hPa 0,0 l/m 1,6 km/h (1 Bft) W-SW 248 2 min 0,000 mm 3,9 UV-I 686 W/m 14,2 C 21,8 C 6,4 km/h (2 Bft) 95,74 %
14.09.2017 11:54 21,8 C 16,7 C 58 % 1004,1 hPa 0,0 l/m 5,7 km/h (1 Bft) W 273 2 min 0,000 mm 4,0 UV-I 687 W/m 13,2 C 21,8 C 12,9 km/h (3 Bft) 94,00 %
14.09.2017 11:56 21,8 C 16,7 C 61 % 1004,0 hPa 0,0 l/m 1,4 km/h (1 Bft) W 269 2 min 0,000 mm 4,0 UV-I 691 W/m 13,9 C 21,8 C 4,8 km/h (1 Bft) 95,74 %
14.09.2017 11:58 21,9 C 16,7 C 60 % 1004,0 hPa 0,0 l/m 5,6 km/h (1 Bft) SW 231 2 min 0,000 mm 4,0 UV-I 692 W/m 13,8 C 21,9 C 9,7 km/h (2 Bft) 97,14 %
14.09.2017 12:00 22,1 C 16,7 C 59 % 1004,1 hPa 0,0 l/m 6,3 km/h (2 Bft) SW 218 2 min 0,406 mm 4,0 UV-I 693 W/m 13,7 C 22,1 C 12,9 km/h (3 Bft) 94,64 %
14.09.2017 12:02 22,2 C 16,7 C 58 % 1004,0 hPa 0,0 l/m 8,7 km/h (2 Bft) W 275 2 min 0,000 mm 4,0 UV-I 695 W/m 13,5 C 21,4 C 14,5 km/h (3 Bft) 94,74 %
14.09.2017 12:04 22,1 C 16,7 C 57 % 1004,0 hPa 0,0 l/m 5,9 km/h (2 Bft) NW 304 2 min 0,000 mm 4,0 UV-I 697 W/m 13,2 C 22,1 C 11,3 km/h (2 Bft) 96,43 %
14.09.2017 12:06 21,9 C 16,7 C 59 % 1004,0 hPa 0,0 l/m 1,6 km/h (1 Bft) NW 311 2 min 0,000 mm 4,0 UV-I 696 W/m 13,5 C 21,9 C 4,8 km/h (1 Bft) 93,18 %
14.09.2017 12:08 21,8 C 16,7 C 58 % 1003,9 hPa 0,0 l/m 1,9 km/h (1 Bft) W 265 2 min 0,000 mm 4,1 UV-I 698 W/m 13,2 C 21,8 C 8,0 km/h (2 Bft) 97,56 %
14.09.2017 12:10 21,9 C 16,7 C 61 % 1003,9 hPa 0,0 l/m 5,1 km/h (1 Bft) SW 219 2 min 0,000 mm 4,1 UV-I 700 W/m 14,0 C 21,9 C 9,7 km/h (2 Bft) 93,62 %
14.09.2017 12:12 22,2 C 16,7 C 57 % 1003,9 hPa 0,0 l/m 7,1 km/h (2 Bft) W-SW 243 2 min 0,000 mm 4,1 UV-I 701 W/m 13,3 C 22,0 C 12,9 km/h (3 Bft) 96,00 %
14.09.2017 12:14 22,2 C 16,7 C 60 % 1003,9 hPa 0,0 l/m 4,7 km/h (1 Bft) W 259 2 min 0,000 mm 4,1 UV-I 701 W/m 14,1 C 22,2 C 6,4 km/h (2 Bft) 96,23 %
14.09.2017 12:16 22,3 C 16,7 C 59 % 1003,9 hPa 0,0 l/m 5,6 km/h (1 Bft) W 259 2 min 0,000 mm 4,1 UV-I 703 W/m 13,9 C 22,3 C 8,0 km/h (2 Bft) 95,24 %
14.09.2017 12:18 22,5 C 16,7 C 58 % 1003,9 hPa 0,0 l/m 10,1 km/h (2 Bft) W-SW 251 2 min 0,000 mm 4,2 UV-I 706 W/m 13,8 C 21,4 C 16,1 km/h (3 Bft) 95,12 %
14.09.2017 12:20 22,3 C 16,7 C 57 % 1003,8 hPa 0,0 l/m 7,9 km/h (2 Bft) W-NW 289 2 min 0,000 mm 4,2 UV-I 706 W/m 13,4 C 21,8 C 16,1 km/h (3 Bft) 96,00 %
14.09.2017 12:22 22,3 C 16,7 C 56 % 1003,8 hPa 0,0 l/m 2,8 km/h (1 Bft) W 269 2 min 0,000 mm 4,2 UV-I 707 W/m 13,1 C 22,3 C 4,8 km/h (1 Bft) 96,00 %
14.09.2017 12:24 22,4 C 16,7 C 62 % 1003,8 hPa 0,0 l/m 3,1 km/h (1 Bft) SW 234 2 min 0,000 mm 4,2 UV-I 707 W/m 14,8 C 22,4 C 6,4 km/h (2 Bft) 94,00 %
14.09.2017 12:26 22,6 C 16,7 C 59 % 1003,7 hPa 0,0 l/m 3,4 km/h (1 Bft) N-NW 335 2 min 0,000 mm 4,2 UV-I 708 W/m 14,2 C 22,6 C 6,4 km/h (2 Bft) 94,29 %
14.09.2017 12:28 22,4 C 16,7 C 59 % 1003,6 hPa 0,0 l/m 1,5 km/h (1 Bft) SW 221 2 min 0,000 mm 4,2 UV-I 708 W/m 14,0 C 22,4 C 4,8 km/h (1 Bft) 97,92 %
14.09.2017 12:30 22,4 C 16,7 C 57 % 1003,6 hPa 0,0 l/m 1,0 km/h (0 Bft) N-NW 327 2 min 0,000 mm 4,2 UV-I 708 W/m 13,5 C 22,4 C 3,2 km/h (1 Bft) 98,00 %
14.09.2017 12:32 22,3 C 16,7 C 58 % 1003,6 hPa 0,0 l/m 4,0 km/h (1 Bft) W 268 2 min 0,000 mm 4,3 UV-I 710 W/m 13,6 C 22,3 C 9,7 km/h (2 Bft) 98,11 %
14.09.2017 12:34 22,3 C 16,7 C 59 % 1003,4 hPa 0,0 l/m 3,2 km/h (1 Bft) SW 226 2 min 0,000 mm 4,3 UV-I 712 W/m 13,9 C 22,3 C 6,4 km/h (2 Bft) 97,14 %
14.09.2017 12:36 22,4 C 16,7 C 62 % 1003,4 hPa 0,0 l/m 2,0 km/h (1 Bft) N-NO 28 2 min 0,000 mm 4,3 UV-I 712 W/m 14,8 C 22,4 C 4,8 km/h (1 Bft) 100,00 %
14.09.2017 12:38 22,6 C 16,7 C 57 % 1003,4 hPa 0,0 l/m 2,7 km/h (1 Bft) W-SW 251 2 min 0,000 mm 4,3 UV-I 713 W/m 13,6 C 22,6 C 6,4 km/h (2 Bft) 100,00 %
14.09.2017 12:40 22,7 C 16,7 C 59 % 1003,6 hPa 0,0 l/m 1,5 km/h (1 Bft) NW 306 2 min 0,000 mm 4,3 UV-I 712 W/m 14,3 C 22,7 C 4,8 km/h (1 Bft) 100,00 %
14.09.2017 12:42 22,7 C 16,7 C 57 % 1003,7 hPa 0,0 l/m 5,3 km/h (1 Bft) W-SW 255 2 min 0,000 mm 4,3 UV-I 713 W/m 13,7 C 22,7 C 9,7 km/h (2 Bft) 100,00 %
14.09.2017 12:44 22,6 C 16,7 C 61 % 1003,7 hPa 0,0 l/m 1,7 km/h (1 Bft) W-SW 255 2 min 0,000 mm 4,3 UV-I 712 W/m 14,7 C 22,6 C 3,2 km/h (1 Bft) 100,00 %
14.09.2017 12:46 22,6 C 16,7 C 59 % 1003,8 hPa 0,0 l/m 6,2 km/h (2 Bft) W-SW 243 2 min 0,000 mm 4,3 UV-I 711 W/m 14,2 C 22,6 C 11,3 km/h (2 Bft) 100,00 %
14.09.2017 12:48 22,7 C 16,7 C 59 % 1003,7 hPa 0,0 l/m 5,9 km/h (2 Bft) W-SW 249 2 min 0,000 mm 4,4 UV-I 712 W/m 14,3 C 22,7 C 9,7 km/h (2 Bft) 100,00 %
14.09.2017 12:50 22,7 C 16,7 C 62 % 1003,7 hPa 0,0 l/m 3,9 km/h (1 Bft) S-SW 211 2 min 0,000 mm 4,4 UV-I 712 W/m 15,0 C 22,7 C 8,0 km/h (2 Bft) 100,00 %
14.09.2017 12:52 22,8 C 16,7 C 60 % 1003,7 hPa 0,0 l/m 4,7 km/h (1 Bft) NW 305 2 min 0,000 mm 4,4 UV-I 714 W/m 14,6 C 22,8 C 9,7 km/h (2 Bft) 98,00 %
14.09.2017 12:54 22,7 C 16,7 C 58 % 1003,7 hPa 0,0 l/m 3,1 km/h (1 Bft) W-NW 300 2 min 0,000 mm 4,4 UV-I 715 W/m 14,0 C 22,7 C 11,3 km/h (2 Bft) 96,00 %
14.09.2017 12:56 22,7 C 16,7 C 61 % 1003,7 hPa 0,0 l/m 3,9 km/h (1 Bft) W-SW 252 2 min 0,000 mm 4,4 UV-I 721 W/m 14,8 C 22,7 C 6,4 km/h (2 Bft) 100,00 %
14.09.2017 12:58 22,7 C 16,7 C 58 % 1003,7 hPa 0,0 l/m 5,3 km/h (1 Bft) W-SW 238 2 min 0,000 mm 4,4 UV-I 730 W/m 14,0 C 22,7 C 11,3 km/h (2 Bft) 97,37 %
14.09.2017 13:00 22,8 C 16,7 C 62 % 1003,8 hPa 0,0 l/m 2,7 km/h (1 Bft) W 277 2 min 0,458 mm 4,5 UV-I 759 W/m 15,1 C 22,8 C 6,4 km/h (2 Bft) 98,11 %
14.09.2017 13:02 23,1 C 16,7 C 61 % 1003,7 hPa 0,0 l/m 2,3 km/h (1 Bft) W-SW 238 2 min 0,000 mm 4,6 UV-I 805 W/m 15,2 C 23,1 C 8,0 km/h (2 Bft) 100,00 %
14.09.2017 13:04 23,3 C 16,7 C 61 % 1003,9 hPa 0,0 l/m 7,9 km/h (2 Bft) SW 223 2 min 0,000 mm 4,4 UV-I 854 W/m 15,3 C 22,8 C 20,9 km/h (4 Bft) 100,00 %
14.09.2017 13:06 23,1 C 16,7 C 62 % 1003,9 hPa 0,0 l/m 14,5 km/h (3 Bft) W-NW 284 2 min 0,000 mm 3,0 UV-I 460 W/m 15,4 C 21,1 C 24,1 km/h (4 Bft) 100,00 %
14.09.2017 13:08 22,7 C 16,7 C 62 % 1004,3 hPa 0,0 l/m 15,1 km/h (3 Bft) W 269 0 min 0,000 mm 2,5 UV-I 348 W/m 15,0 C 20,5 C 30,6 km/h (5 Bft) 100,00 %
14.09.2017 13:10 21,9 C 16,7 C 63 % 1004,2 hPa 0,0 l/m 14,5 km/h (3 Bft) W 269 0 min 0,000 mm 2,4 UV-I 297 W/m 14,5 C 19,7 C 24,1 km/h (4 Bft) 100,00 %
14.09.2017 13:12 21,3 C 16,7 C 64 % 1004,2 hPa 0,0 l/m 12,8 km/h (3 Bft) SW 236 0 min 0,000 mm 2,4 UV-I 302 W/m 14,2 C 19,3 C 20,9 km/h (4 Bft) 100,00 %
14.09.2017 13:13 21,0 C 16,7 C 66 % 1004,2 hPa 0,0 l/m 12,7 km/h (3 Bft) W 277 0 min 0,000 mm 2,3 UV-I 311 W/m 14,4 C 19,0 C 24,1 km/h (4 Bft) 100,00 %
14.09.2017 13:14 20,8 C 16,7 C 66 % 1004,4 hPa 0,0 l/m 19,2 km/h (3 Bft) W-SW 242 0 min 0,000 mm 2,3 UV-I 315 W/m 14,2 C 17,4 C 33,8 km/h (5 Bft) 100,00 %
14.09.2017 13:15 20,6 C 16,7 C 67 % 1004,3 hPa 0,0 l/m 10,7 km/h (2 Bft) W-NW 299 0 min 0,000 mm 2,3 UV-I 308 W/m 14,3 C 19,1 C 32,2 km/h (5 Bft) 100,00 %
14.09.2017 13:16 20,5 C 16,7 C 67 % 1004,3 hPa 0,0 l/m 16,3 km/h (3 Bft) W 262 0 min 0,000 mm 2,9 UV-I 369 W/m 14,2 C 17,6 C 32,2 km/h (5 Bft) 100,00 %
14.09.2017 13:17 20,4 C 16,7 C 68 % 1004,3 hPa 0,0 l/m 13,7 km/h (3 Bft) SW 223 1 min 0,000 mm 3,3 UV-I 392 W/m 14,3 C 18,0 C 25,7 km/h (4 Bft) 100,00 %
14.09.2017 13:18 20,3 C 16,7 C 67 % 1004,4 hPa 0,0 l/m 10,4 km/h (2 Bft) W-SW 253 1 min 0,000 mm 4,0 UV-I 768 W/m 14,0 C 18,8 C 22,5 km/h (4 Bft) 100,00 %
14.09.2017 13:19 20,3 C 16,7 C 68 % 1004,4 hPa 0,0 l/m 12,0 km/h (2 Bft) SW 217 1 min 0,000 mm 4,2 UV-I 791 W/m 14,2 C 18,4 C 20,9 km/h (4 Bft) 96,30 %
14.09.2017 13:20 20,4 C 16,7 C 68 % 1004,5 hPa 0,0 l/m 6,4 km/h (2 Bft) N 5 1 min 0,000 mm 3,6 UV-I 640 W/m 14,3 C 20,4 C 11,3 km/h (2 Bft) 100,00 %
14.09.2017 13:21 20,4 C 16,7 C 68 % 1004,4 hPa 0,0 l/m 14,0 km/h (3 Bft) W-SW 244 1 min 0,000 mm 3,2 UV-I 405 W/m 14,3 C 18,0 C 27,4 km/h (4 Bft) 93,33 %
14.09.2017 13:22 20,3 C 16,7 C 65 % 1004,4 hPa 0,0 l/m 12,3 km/h (3 Bft) W 277 1 min 0,000 mm 3,7 UV-I 425 W/m 13,5 C 18,3 C 24,1 km/h (4 Bft) 95,65 %
14.09.2017 13:23 20,3 C 16,7 C 67 % 1004,4 hPa 0,0 l/m 10,9 km/h (2 Bft) SW 220 1 min 0,000 mm 4,4 UV-I 425 W/m 14,0 C 18,7 C 16,1 km/h (3 Bft) 100,00 %
14.09.2017 13:24 20,3 C 16,7 C 66 % 1004,4 hPa 0,0 l/m 7,6 km/h (2 Bft) W-NW 286 1 min 0,000 mm 4,6 UV-I 445 W/m 13,7 C 19,8 C 19,3 km/h (3 Bft) 92,31 %
14.09.2017 13:25 20,3 C 16,7 C 67 % 1004,6 hPa 0,0 l/m 7,0 km/h (2 Bft) NW 312 1 min 0,000 mm 4,5 UV-I 814 W/m 14,0 C 20,1 C 17,7 km/h (3 Bft) 100,00 %
14.09.2017 13:26 20,3 C 16,7 C 66 % 1004,6 hPa 0,0 l/m 6,8 km/h (2 Bft) W-NW 296 1 min 0,000 mm 4,5 UV-I 799 W/m 13,7 C 20,1 C 17,7 km/h (3 Bft) 97,92 %
14.09.2017 13:27 20,3 C 16,7 C 66 % 1004,7 hPa 0,0 l/m 23,6 km/h (4 Bft) W-NW 302 1 min 0,000 mm 4,2 UV-I 793 W/m 13,7 C 16,0 C 35,4 km/h (5 Bft) 100,00 %
14.09.2017 13:28 20,2 C 16,7 C 63 % 1004,5 hPa 0,0 l/m 12,6 km/h (3 Bft) W 277 1 min 0,000 mm 4,0 UV-I 793 W/m 12,9 C 18,1 C 20,9 km/h (4 Bft) 100,00 %
14.09.2017 13:29 20,1 C 16,7 C 63 % 1004,7 hPa 0,0 l/m 13,1 km/h (3 Bft) W-SW 257 1 min 0,000 mm 3,8 UV-I 793 W/m 12,8 C 17,8 C 20,9 km/h (4 Bft) 100,00 %
14.09.2017 13:30 19,9 C 16,7 C 64 % 1004,7 hPa 0,0 l/m 15,5 km/h (3 Bft) W 264 0 min 0,000 mm 3,4 UV-I 318 W/m 12,9 C 17,0 C 33,8 km/h (5 Bft) 100,00 %
14.09.2017 13:31 19,8 C 16,7 C 62 % 1004,9 hPa 0,0 l/m 16,4 km/h (3 Bft) N-NW 344 0 min 0,000 mm 3,5 UV-I 250 W/m 12,3 C 16,7 C 27,4 km/h (4 Bft) 100,00 %
14.09.2017 13:32 19,7 C 16,7 C 63 % 1004,7 hPa 0,0 l/m 12,8 km/h (3 Bft) SW 215 0 min 0,000 mm 3,7 UV-I 250 W/m 12,5 C 17,5 C 22,5 km/h (4 Bft) 100,00 %
14.09.2017 13:33 19,6 C 16,7 C 64 % 1004,8 hPa 0,0 l/m 13,8 km/h (3 Bft) N 360 0 min 0,000 mm 3,3 UV-I 250 W/m 12,6 C 17,1 C 24,1 km/h (4 Bft) 100,00 %
14.09.2017 13:34 19,6 C 16,7 C 63 % 1004,8 hPa 0,0 l/m 9,7 km/h (2 Bft) NW 306 0 min 0,000 mm 3,4 UV-I 250 W/m 12,4 C 18,3 C 16,1 km/h (3 Bft) 100,00 %
14.09.2017 13:35 19,6 C 16,7 C 65 % 1005,0 hPa 0,0 l/m 13,9 km/h (3 Bft) W 274 1 min 0,000 mm 3,7 UV-I 649 W/m 12,8 C 17,0 C 20,9 km/h (4 Bft) 100,00 %
14.09.2017 13:36 19,6 C 16,7 C 66 % 1004,9 hPa 0,0 l/m 11,0 km/h (2 Bft) W-SW 244 1 min 0,000 mm 4,1 UV-I 806 W/m 13,1 C 17,9 C 27,4 km/h (4 Bft) 100,00 %
14.09.2017 13:37 19,7 C 16,7 C 65 % 1005,0 hPa 0,0 l/m 12,2 km/h (2 Bft) W 276 1 min 0,000 mm 3,1 UV-I 805 W/m 12,9 C 17,6 C 20,9 km/h (4 Bft) 100,00 %
14.09.2017 13:38 19,7 C 16,7 C 65 % 1005,0 hPa 0,0 l/m 10,8 km/h (2 Bft) SW 217 1 min 0,000 mm 2,9 UV-I 693 W/m 12,9 C 18,0 C 17,7 km/h (3 Bft) 100,00 %
14.09.2017 13:39 19,7 C 16,7 C 64 % 1005,1 hPa 0,0 l/m 13,3 km/h (3 Bft) W-NW 302 1 min 0,000 mm 3,0 UV-I 444 W/m 12,7 C 17,3 C 30,6 km/h (5 Bft) 100,00 %
14.09.2017 13:40 19,6 C 16,7 C 63 % 1005,2 hPa 0,0 l/m 9,6 km/h (2 Bft) SW 236 1 min 0,000 mm 2,7 UV-I 454 W/m 12,4 C 18,3 C 17,7 km/h (3 Bft) 100,00 %
14.09.2017 13:41 19,4 C 16,7 C 63 % 1005,1 hPa 0,0 l/m 11,5 km/h (2 Bft) W-SW 242 0 min 0,000 mm 2,4 UV-I 324 W/m 12,2 C 17,5 C 19,3 km/h (3 Bft) 100,00 %
14.09.2017 13:42 19,2 C 16,7 C 62 % 1005,4 hPa 0,0 l/m 20,0 km/h (4 Bft) S-SW 207 0 min 0,000 mm 2,3 UV-I 260 W/m 11,7 C 15,2 C 27,4 km/h (4 Bft) 91,67 %
14.09.2017 13:43 18,9 C 16,7 C 62 % 1005,2 hPa 0,0 l/m 12,6 km/h (3 Bft) O-NO 60 0 min 0,000 mm 2,1 UV-I 235 W/m 11,5 C 16,6 C 27,4 km/h (4 Bft) 97,14 %
14.09.2017 13:44 18,7 C 16,7 C 63 % 1005,4 hPa 0,0 l/m 17,8 km/h (3 Bft) SW 217 0 min 0,000 mm 2,0 UV-I 222 W/m 11,5 C 15,0 C 30,6 km/h (5 Bft) 100,00 %
14.09.2017 13:45 18,5 C 16,7 C 63 % 1005,4 hPa 0,0 l/m 11,7 km/h (2 Bft) SW 224 0 min 0,000 mm 1,9 UV-I 218 W/m 11,3 C 16,4 C 30,6 km/h (5 Bft) 95,65 %
14.09.2017 13:46 18,3 C 16,7 C 63 % 1005,3 hPa 0,0 l/m 19,2 km/h (3 Bft) N-NW 343 0 min 0,000 mm 1,9 UV-I 223 W/m 11,1 C 14,2 C 32,2 km/h (5 Bft) 100,00 %
14.09.2017 13:47 18,2 C 16,7 C 64 % 1005,4 hPa 0,0 l/m 12,2 km/h (2 Bft) W-SW 250 0 min 0,000 mm 1,9 UV-I 223 W/m 11,3 C 15,9 C 29,0 km/h (5 Bft) 92,31 %
14.09.2017 13:48 18,1 C 16,7 C 65 % 1005,5 hPa 0,0 l/m 11,3 km/h (2 Bft) W-SW 238 0 min 0,000 mm 2,0 UV-I 268 W/m 11,4 C 16,1 C 19,3 km/h (3 Bft) 100,00 %
14.09.2017 13:49 17,9 C 16,7 C 65 % 1005,6 hPa 0,0 l/m 10,0 km/h (2 Bft) W-NW 302 0 min 0,000 mm 1,9 UV-I 264 W/m 11,2 C 16,3 C 22,5 km/h (4 Bft) 96,30 %
14.09.2017 13:50 17,8 C 16,7 C 64 % 1005,6 hPa 0,0 l/m 15,4 km/h (3 Bft) N-NW 335 0 min 0,000 mm 1,9 UV-I 260 W/m 10,9 C 14,5 C 33,8 km/h (5 Bft) 100,00 %
14.09.2017 13:51 17,7 C 16,7 C 64 % 1005,5 hPa 0,0 l/m 11,8 km/h (2 Bft) W-SW 242 0 min 0,000 mm 1,9 UV-I 260 W/m 10,8 C 15,4 C 24,1 km/h (4 Bft) 96,55 %
14.09.2017 13:52 17,6 C 16,7 C 64 % 1005,7 hPa 0,0 l/m 14,0 km/h (3 Bft) W-SW 238 0 min 0,000 mm 1,9 UV-I 262 W/m 10,7 C 14,6 C 27,4 km/h (4 Bft) 86,67 %
14.09.2017 13:53 17,5 C 16,7 C 64 % 1005,6 hPa 0,0 l/m 16,2 km/h (3 Bft) S-SW 207 0 min 0,000 mm 1,9 UV-I 265 W/m 10,6 C 13,9 C 24,1 km/h (4 Bft) 96,55 %
14.09.2017 13:54 17,4 C 16,7 C 65 % 1005,8 hPa 0,0 l/m 7,2 km/h (2 Bft) N-NW 338 0 min 0,000 mm 1,9 UV-I 258 W/m 10,8 C 17,0 C 12,9 km/h (3 Bft) 96,30 %
14.09.2017 13:55 17,4 C 16,7 C 65 % 1005,8 hPa 0,0 l/m 11,6 km/h (2 Bft) W 273 0 min 0,000 mm 1,9 UV-I 248 W/m 10,8 C 15,2 C 22,5 km/h (4 Bft) 100,00 %
14.09.2017 13:56 17,3 C 16,7 C 65 % 1005,9 hPa 0,0 l/m 18,2 km/h (3 Bft) W-SW 254 0 min 0,000 mm 1,8 UV-I 237 W/m 10,7 C 13,1 C 33,8 km/h (5 Bft) 96,15 %
14.09.2017 13:57 17,2 C 16,7 C 65 % 1005,9 hPa 0,0 l/m 17,5 km/h (3 Bft) W 261 0 min 0,000 mm 1,8 UV-I 233 W/m 10,6 C 13,2 C 25,7 km/h (4 Bft) 100,00 %
14.09.2017 13:58 17,2 C 16,7 C 65 % 1005,9 hPa 0,0 l/m 12,7 km/h (3 Bft) S-SW 199 0 min 0,000 mm 1,8 UV-I 238 W/m 10,6 C 14,6 C 17,7 km/h (3 Bft) 95,65 %
14.09.2017 13:59 17,1 C 16,7 C 66 % 1006,1 hPa 0,0 l/m 11,0 km/h (2 Bft) S-SW 207 0 min 0,000 mm 1,8 UV-I 258 W/m 10,7 C 15,1 C 17,7 km/h (3 Bft) 100,00 %
14.09.2017 14:00 17,1 C 16,7 C 66 % 1006,1 hPa 0,0 l/m 6,6 km/h (2 Bft) W-SW 252 0 min 0,000 mm 1,8 UV-I 243 W/m 10,7 C 17,0 C 8,0 km/h (2 Bft) 97,94 %
14.09.2017 14:01 17,1 C 16,7 C 67 % 1006,1 hPa 0,0 l/m 16,5 km/h (3 Bft) NW 326 0 min 0,330 mm 1,8 UV-I 239 W/m 10,9 C 13,3 C 25,7 km/h (4 Bft) 96,08 %
14.09.2017 14:02 17,1 C 16,7 C 67 % 1006,3 hPa 0,0 l/m 15,4 km/h (3 Bft) W 279 0 min 0,000 mm 1,7 UV-I 225 W/m 10,9 C 13,6 C 27,4 km/h (4 Bft) 100,00 %
14.09.2017 14:03 17,1 C 16,7 C 67 % 1006,2 hPa 0,0 l/m 10,7 km/h (2 Bft) NW 324 0 min 0,000 mm 1,6 UV-I 213 W/m 10,9 C 15,2 C 22,5 km/h (4 Bft) 96,67 %
14.09.2017 14:04 17,1 C 16,7 C 66 % 1006,4 hPa 0,0 l/m 21,6 km/h (4 Bft) NW 314 0 min 0,000 mm 1,4 UV-I 199 W/m 10,7 C 12,1 C 32,2 km/h (5 Bft) 100,00 %
14.09.2017 14:05 17,0 C 16,7 C 64 % 1006,5 hPa 0,0 l/m 14,1 km/h (3 Bft) SW 227 0 min 0,000 mm 1,3 UV-I 193 W/m 10,1 C 13,9 C 25,7 km/h (4 Bft) 93,33 %
14.09.2017 14:06 16,9 C 16,7 C 64 % 1006,5 hPa 0,0 l/m 11,0 km/h (2 Bft) W 265 0 min 0,000 mm 1,2 UV-I 162 W/m 10,0 C 14,8 C 20,9 km/h (4 Bft) 97,14 %
14.09.2017 14:07 16,8 C 16,7 C 63 % 1006,5 hPa 0,0 l/m 12,2 km/h (2 Bft) S 188 0 min 0,000 mm 1,1 UV-I 147 W/m 9,7 C 14,3 C 22,5 km/h (4 Bft) 100,00 %
14.09.2017 14:08 16,7 C 16,7 C 64 % 1006,6 hPa 0,0 l/m 9,3 km/h (2 Bft) W 259 0 min 0,000 mm 0,9 UV-I 129 W/m 9,9 C 15,3 C 19,3 km/h (3 Bft) 96,77 %
14.09.2017 14:09 16,6 C 16,7 C 64 % 1006,8 hPa 0,0 l/m 21,5 km/h (4 Bft) W-SW 255 0 min 0,000 mm 0,9 UV-I 117 W/m 9,8 C 11,5 C 32,2 km/h (5 Bft) 100,00 %
14.09.2017 14:10 16,4 C 16,7 C 63 % 1006,8 hPa 0,0 l/m 14,4 km/h (3 Bft) W 273 0 min 0,000 mm 0,7 UV-I 103 W/m 9,3 C 13,1 C 24,1 km/h (4 Bft) 100,00 %
14.09.2017 14:11 16,3 C 16,7 C 64 % 1006,9 hPa 0,0 l/m 16,2 km/h (3 Bft) W 275 0 min 0,000 mm 0,6 UV-I 95 W/m 9,5 C 12,4 C 24,1 km/h (4 Bft) 97,56 %
14.09.2017 14:12 16,3 C 16,7 C 64 % 1007,1 hPa 0,0 l/m 20,7 km/h (4 Bft) W 260 0 min 0,000 mm 0,6 UV-I 88 W/m 9,5 C 11,3 C 35,4 km/h (5 Bft) 96,15 %
14.09.2017 14:13 16,2 C 16,7 C 63 % 1007,0 hPa 0,0 l/m 22,9 km/h (4 Bft) W-NW 296 0 min 0,000 mm 0,6 UV-I 82 W/m 9,1 C 10,7 C 41,8 km/h (6 Bft) 91,67 %
14.09.2017 14:14 16,1 C 16,7 C 63 % 1007,0 hPa 0,0 l/m 17,2 km/h (3 Bft) N-NO 12 0 min 0,000 mm 0,5 UV-I 76 W/m 9,1 C 11,9 C 27,4 km/h (4 Bft) 100,00 %
14.09.2017 14:15 16,0 C 16,7 C 63 % 1007,0 hPa 0,0 l/m 17,5 km/h (3 Bft) W-NW 301 0 min 0,000 mm 0,5 UV-I 71 W/m 9,0 C 11,7 C 27,4 km/h (4 Bft) 96,15 %
14.09.2017 14:16 15,9 C 16,7 C 63 % 1007,2 hPa 0,0 l/m 12,2 km/h (2 Bft) W-SW 248 0 min 0,000 mm 0,5 UV-I 67 W/m 8,9 C 13,2 C 22,5 km/h (4 Bft) 100,00 %
14.09.2017 14:17 15,8 C 16,7 C 63 % 1007,3 hPa 0,0 l/m 18,4 km/h (3 Bft) W-NW 296 0 min 0,000 mm 0,1 UV-I 63 W/m 8,8 C 11,2 C 32,2 km/h (5 Bft) 100,00 %
14.09.2017 14:18 15,8 C 16,7 C 64 % 1007,5 hPa 0,0 l/m 24,9 km/h (4 Bft) N 9 0 min 0,000 mm 0,0 UV-I 59 W/m 9,0 C 9,7 C 48,3 km/h (6 Bft) 100,00 %
14.09.2017 14:19 15,7 C 16,7 C 63 % 1007,5 hPa 0,0 l/m 6,6 km/h (2 Bft) S-SW 207 0 min 0,000 mm 0,0 UV-I 55 W/m 8,7 C 15,6 C 16,1 km/h (3 Bft) 100,00 %
14.09.2017 14:20 15,7 C 16,7 C 64 % 1007,5 hPa 0,0 l/m 18,7 km/h (3 Bft) W-NW 282 0 min 0,000 mm 0,0 UV-I 54 W/m 8,9 C 11,0 C 27,4 km/h (4 Bft) 100,00 %
14.09.2017 14:21 15,6 C 16,7 C 63 % 1007,7 hPa 0,0 l/m 24,3 km/h (4 Bft) SO 126 0 min 0,000 mm 0,0 UV-I 50 W/m 8,6 C 9,6 C 40,2 km/h (6 Bft) 100,00 %
14.09.2017 14:22 15,6 C 16,7 C 63 % 1007,7 hPa 0,0 l/m 27,9 km/h (4 Bft) W-NW 294 0 min 0,000 mm 0,0 UV-I 46 W/m 8,6 C 8,9 C 41,8 km/h (6 Bft) 100,00 %
14.09.2017 14:23 15,5 C 16,7 C 64 % 1007,7 hPa 0,0 l/m 17,0 km/h (3 Bft) S-SW 208 0 min 0,000 mm 0,0 UV-I 44 W/m 8,7 C 11,2 C 35,4 km/h (5 Bft) 100,00 %
14.09.2017 14:24 15,5 C 16,7 C 63 % 1007,7 hPa 0,0 l/m 17,9 km/h (3 Bft) W-SW 257 0 min 0,000 mm 0,0 UV-I 43 W/m 8,5 C 10,9 C 25,7 km/h (4 Bft) 100,00 %
14.09.2017 14:25 15,4 C 16,7 C 64 % 1007,8 hPa 0,0 l/m 16,3 km/h (3 Bft) W-SW 252 0 min 0,000 mm 0,0 UV-I 41 W/m 8,6 C 11,3 C 32,2 km/h (5 Bft) 100,00 %
14.09.2017 14:27 15,3 C 16,7 C 64 % 1008,0 hPa 0,0 l/m 13,7 km/h (3 Bft) W 278 0 min 0,000 mm 0,0 UV-I 38 W/m 8,5 C 12,0 C 29,0 km/h (5 Bft) 100,00 %
14.09.2017 14:28 15,3 C 16,7 C 65 % 1008,0 hPa 0,0 l/m 17,6 km/h (3 Bft) S-SW 206 0 min 0,000 mm 0,0 UV-I 35 W/m 8,8 C 10,8 C 29,0 km/h (5 Bft) 95,83 %
14.09.2017 14:29 15,3 C 16,7 C 65 % 1008,1 hPa 0,0 l/m 13,6 km/h (3 Bft) SW 236 0 min 0,000 mm 0,0 UV-I 33 W/m 8,8 C 12,0 C 25,7 km/h (4 Bft) 100,00 %
14.09.2017 14:30 15,3 C 16,7 C 66 % 1008,3 hPa 0,0 l/m 19,4 km/h (3 Bft) SW 235 0 min 0,000 mm 0,0 UV-I 30 W/m 9,0 C 10,3 C 33,8 km/h (5 Bft) 100,00 %
14.09.2017 14:31 15,2 C 16,7 C 65 % 1008,3 hPa 0,0 l/m 15,9 km/h (3 Bft) W 275 0 min 0,000 mm 0,0 UV-I 27 W/m 8,7 C 11,1 C 25,7 km/h (4 Bft) 100,00 %
14.09.2017 14:32 15,2 C 16,7 C 66 % 1008,3 hPa 0,0 l/m 15,8 km/h (3 Bft) S-SW 210 0 min 0,000 mm 0,0 UV-I 26 W/m 8,9 C 11,2 C 30,6 km/h (5 Bft) 100,00 %
14.09.2017 14:33 15,2 C 16,7 C 65 % 1008,3 hPa 0,0 l/m 16,1 km/h (3 Bft) W 263 0 min 0,000 mm 0,0 UV-I 25 W/m 8,7 C 11,1 C 25,7 km/h (4 Bft) 100,00 %
14.09.2017 14:34 15,2 C 16,7 C 66 % 1008,3 hPa 0,0 l/m 11,4 km/h (2 Bft) SW 225 0 min 0,000 mm 0,0 UV-I 25 W/m 8,9 C 12,7 C 22,5 km/h (4 Bft) 92,31 %
14.09.2017 14:35 15,2 C 16,7 C 66 % 1008,4 hPa 0,0 l/m 15,9 km/h (3 Bft) SW 223 0 min 0,000 mm 0,0 UV-I 25 W/m 8,9 C 11,1 C 22,5 km/h (4 Bft) 100,00 %
14.09.2017 14:36 15,1 C 16,7 C 66 % 1008,6 hPa 0,0 l/m 23,1 km/h (4 Bft) W 272 0 min 0,000 mm 0,0 UV-I 25 W/m 8,8 C 9,1 C 43,5 km/h (6 Bft) 100,00 %
14.09.2017 14:37 15,1 C 16,7 C 66 % 1008,5 hPa 0,0 l/m 19,0 km/h (3 Bft) W-SW 239 0 min 0,000 mm 0,0 UV-I 24 W/m 8,8 C 10,1 C 33,8 km/h (5 Bft) 95,83 %
14.09.2017 14:38 15,1 C 16,7 C 66 % 1008,7 hPa 0,0 l/m 13,7 km/h (3 Bft) SW 222 0 min 0,000 mm 0,0 UV-I 22 W/m 8,8 C 11,8 C 19,3 km/h (3 Bft) 100,00 %
14.09.2017 14:39 15,1 C 16,7 C 67 % 1008,9 hPa 0,0 l/m 17,5 km/h (3 Bft) W-SW 242 0 min 0,000 mm 0,0 UV-I 21 W/m 9,0 C 10,5 C 27,4 km/h (4 Bft) 100,00 %
14.09.2017 14:40 15,1 C 16,7 C 67 % 1009,0 hPa 0,0 l/m 19,9 km/h (4 Bft) W-NW 288 0 min 0,000 mm 0,0 UV-I 21 W/m 9,0 C 9,9 C 24,1 km/h (4 Bft) 100,00 %
14.09.2017 14:41 15,0 C 16,7 C 67 % 1009,1 hPa 0,0 l/m 17,7 km/h (3 Bft) W-NW 299 0 min 0,000 mm 0,0 UV-I 19 W/m 8,9 C 10,4 C 27,4 km/h (4 Bft) 100,00 %
14.09.2017 14:42 15,0 C 16,7 C 67 % 1009,1 hPa 0,0 l/m 19,1 km/h (3 Bft) NW 313 0 min 0,000 mm 0,0 UV-I 19 W/m 8,9 C 10,0 C 25,7 km/h (4 Bft) 100,00 %
14.09.2017 14:43 15,0 C 16,7 C 67 % 1009,3 hPa 0,0 l/m 20,5 km/h (4 Bft) W-SW 242 0 min 0,000 mm 0,0 UV-I 19 W/m 8,9 C 9,6 C 30,6 km/h (5 Bft) 100,00 %
14.09.2017 14:44 14,9 C 16,7 C 68 % 1009,3 hPa 0,0 l/m 18,4 km/h (3 Bft) W-SW 258 0 min 0,000 mm 0,0 UV-I 19 W/m 9,0 C 10,0 C 32,2 km/h (5 Bft) 100,00 %
14.09.2017 14:45 14,9 C 16,7 C 68 % 1009,4 hPa 0,0 l/m 16,0 km/h (3 Bft) W-NW 284 0 min 0,000 mm 0,0 UV-I 19 W/m 9,0 C 10,7 C 20,9 km/h (4 Bft) 100,00 %
14.09.2017 14:46 14,9 C 16,7 C 68 % 1009,4 hPa 0,0 l/m 17,9 km/h (3 Bft) W 272 0 min 0,000 mm 0,0 UV-I 21 W/m 9,0 C 10,2 C 25,7 km/h (4 Bft) 100,00 %
14.09.2017 14:47 14,9 C 16,7 C 68 % 1009,5 hPa 0,0 l/m 22,0 km/h (4 Bft) W-NW 293 0 min 0,000 mm 0,0 UV-I 23 W/m 9,0 C 9,1 C 32,2 km/h (5 Bft) 100,00 %
14.09.2017 14:48 14,9 C 16,7 C 68 % 1009,4 hPa 0,0 l/m 24,7 km/h (4 Bft) W-SW 248 0 min 0,000 mm 0,0 UV-I 23 W/m 9,0 C 8,5 C 38,6 km/h (5 Bft) 100,00 %
14.09.2017 14:49 14,9 C 16,7 C 68 % 1009,5 hPa 0,0 l/m 19,7 km/h (3 Bft) W-SW 241 0 min 0,000 mm 0,0 UV-I 24 W/m 9,0 C 9,7 C 27,4 km/h (4 Bft) 100,00 %
14.09.2017 14:50 14,9 C 16,7 C 67 % 1009,6 hPa 0,0 l/m 13,0 km/h (3 Bft) W-SW 250 0 min 0,000 mm 0,0 UV-I 25 W/m 8,8 C 11,8 C 17,7 km/h (3 Bft) 100,00 %
14.09.2017 14:51 14,9 C 16,7 C 68 % 1009,7 hPa 0,0 l/m 12,1 km/h (2 Bft) W 263 0 min 0,000 mm 0,0 UV-I 26 W/m 9,0 C 12,1 C 19,3 km/h (3 Bft) 100,00 %
14.09.2017 14:52 14,9 C 16,7 C 67 % 1009,7 hPa 0,0 l/m 24,9 km/h (4 Bft) W-SW 244 0 min 0,000 mm 0,0 UV-I 28 W/m 8,8 C 8,5 C 38,6 km/h (5 Bft) 100,00 %
14.09.2017 14:53 14,8 C 16,7 C 67 % 1009,8 hPa 0,0 l/m 19,3 km/h (3 Bft) SW 233 0 min 0,000 mm 0,0 UV-I 30 W/m 8,7 C 9,7 C 27,4 km/h (4 Bft) 100,00 %
14.09.2017 14:54 14,8 C 16,7 C 66 % 1009,9 hPa 0,0 l/m 25,7 km/h (4 Bft) W-SW 256 0 min 0,000 mm 0,0 UV-I 32 W/m 8,5 C 8,2 C 37,0 km/h (5 Bft) 100,00 %
14.09.2017 14:55 14,8 C 16,7 C 66 % 1009,8 hPa 0,0 l/m 22,5 km/h (4 Bft) W 270 0 min 0,000 mm 0,0 UV-I 34 W/m 8,5 C 8,9 C 37,0 km/h (5 Bft) 100,00 %
14.09.2017 14:57 14,8 C 16,7 C 65 % 1009,9 hPa 0,0 l/m 19,4 km/h (3 Bft) SW 234 0 min 0,000 mm 0,0 UV-I 32 W/m 8,3 C 9,6 C 35,4 km/h (5 Bft) 98,00 %
14.09.2017 14:58 14,8 C 16,7 C 65 % 1009,9 hPa 0,0 l/m 22,6 km/h (4 Bft) SW 232 0 min 0,000 mm 0,0 UV-I 28 W/m 8,3 C 8,9 C 30,6 km/h (5 Bft) 100,00 %
14.09.2017 14:59 14,7 C 16,7 C 65 % 1010,0 hPa 0,0 l/m 21,4 km/h (4 Bft) W-SW 255 0 min 0,000 mm 0,0 UV-I 26 W/m 8,2 C 9,0 C 37,0 km/h (5 Bft) 100,00 %
14.09.2017 15:00 14,7 C 16,7 C 65 % 1010,0 hPa 0,0 l/m 25,4 km/h (4 Bft) W-SW 248 0 min 0,000 mm 0,0 UV-I 26 W/m 8,2 C 8,1 C 37,0 km/h (5 Bft) 100,00 %
14.09.2017 15:01 14,7 C 16,7 C 64 % 1010,1 hPa 0,0 l/m 15,8 km/h (3 Bft) W-NW 290 0 min 0,101 mm 0,0 UV-I 25 W/m 8,0 C 10,6 C 27,4 km/h (4 Bft) 100,00 %
14.09.2017 15:02 14,7 C 16,7 C 64 % 1010,2 hPa 0,0 l/m 18,4 km/h (3 Bft) W 271 0 min 0,000 mm 0,0 UV-I 25 W/m 8,0 C 9,8 C 25,7 km/h (4 Bft) 95,83 %
14.09.2017 15:03 14,7 C 16,7 C 65 % 1010,3 hPa 0,0 l/m 19,7 km/h (3 Bft) W-SW 250 0 min 0,000 mm 0,0 UV-I 23 W/m 8,2 C 9,4 C 27,4 km/h (4 Bft) 100,00 %
14.09.2017 15:04 14,6 C 16,7 C 64 % 1010,4 hPa 0,0 l/m 17,1 km/h (3 Bft) W 261 0 min 0,000 mm 0,0 UV-I 23 W/m 7,9 C 10,0 C 35,4 km/h (5 Bft) 100,00 %
14.09.2017 15:05 14,6 C 16,7 C 65 % 1010,5 hPa 0,0 l/m 16,9 km/h (3 Bft) W 272 0 min 0,000 mm 0,0 UV-I 24 W/m 8,1 C 10,1 C 33,8 km/h (5 Bft) 100,00 %
14.09.2017 15:06 14,6 C 16,7 C 64 % 1010,4 hPa 0,0 l/m 23,8 km/h (4 Bft) W-SW 255 0 min 0,000 mm 0,0 UV-I 25 W/m 7,9 C 8,3 C 43,5 km/h (6 Bft) 100,00 %
14.09.2017 15:07 14,5 C 16,7 C 63 % 1010,4 hPa 0,0 l/m 20,3 km/h (4 Bft) S-SW 211 0 min 0,000 mm 0,0 UV-I 27 W/m 7,5 C 9,0 C 35,4 km/h (5 Bft) 100,00 %
14.09.2017 15:08 14,5 C 16,7 C 63 % 1010,5 hPa 0,0 l/m 21,3 km/h (4 Bft) S-SW 198 0 min 0,000 mm 0,0 UV-I 28 W/m 7,5 C 8,8 C 32,2 km/h (5 Bft) 100,00 %
14.09.2017 15:09 14,4 C 16,7 C 64 % 1010,6 hPa 0,0 l/m 17,9 km/h (3 Bft) SW 224 0 min 0,000 mm 0,0 UV-I 30 W/m 7,7 C 9,6 C 29,0 km/h (5 Bft) 100,00 %
14.09.2017 15:10 14,4 C 16,7 C 64 % 1010,7 hPa 0,0 l/m 17,3 km/h (3 Bft) W-SW 242 0 min 0,000 mm 0,0 UV-I 30 W/m 7,7 C 9,7 C 25,7 km/h (4 Bft) 91,67 %
14.09.2017 15:11 14,4 C 16,7 C 65 % 1010,7 hPa 0,0 l/m 15,7 km/h (3 Bft) W 269 0 min 0,000 mm 0,0 UV-I 28 W/m 7,9 C 10,2 C 22,5 km/h (4 Bft) 100,00 %
14.09.2017 15:12 14,3 C 16,7 C 65 % 1010,8 hPa 0,0 l/m 17,1 km/h (3 Bft) SW 234 0 min 0,000 mm 0,0 UV-I 26 W/m 7,8 C 9,7 C 24,1 km/h (4 Bft) 100,00 %
14.09.2017 15:13 14,3 C 16,7 C 67 % 1010,8 hPa 0,0 l/m 16,6 km/h (3 Bft) W 278 0 min 0,000 mm 0,0 UV-I 27 W/m 8,3 C 9,8 C 29,0 km/h (5 Bft) 100,00 %
14.09.2017 15:14 14,2 C 16,7 C 67 % 1010,8 hPa 0,0 l/m 15,6 km/h (3 Bft) W 264 0 min 0,000 mm 0,0 UV-I 28 W/m 8,2 C 10,0 C 24,1 km/h (4 Bft) 100,00 %
14.09.2017 15:15 14,2 C 16,7 C 67 % 1010,8 hPa 0,0 l/m 20,8 km/h (4 Bft) W-SW 249 0 min 0,000 mm 0,0 UV-I 28 W/m 8,2 C 8,5 C 30,6 km/h (5 Bft) 100,00 %
14.09.2017 15:16 14,1 C 16,7 C 67 % 1010,9 hPa 0,0 l/m 27,4 km/h (4 Bft) W-SW 258 0 min 0,000 mm 0,0 UV-I 29 W/m 8,1 C 6,9 C 37,0 km/h (5 Bft) 94,44 %
14.09.2017 15:17 14,0 C 16,7 C 67 % 1010,9 hPa 0,0 l/m 23,5 km/h (4 Bft) W-NW 282 0 min 0,000 mm 0,0 UV-I 35 W/m 8,0 C 7,6 C 37,0 km/h (5 Bft) 100,00 %
14.09.2017 15:18 13,9 C 16,7 C 67 % 1010,9 hPa 0,0 l/m 19,9 km/h (4 Bft) W-SW 239 0 min 0,000 mm 0,0 UV-I 40 W/m 7,9 C 8,4 C 27,4 km/h (4 Bft) 98,07 %
14.09.2017 15:19 13,8 C 16,7 C 68 % 1011,0 hPa 0,0 l/m 23,0 km/h (4 Bft) W 259 0 min 0,000 mm 0,0 UV-I 40 W/m 8,0 C 7,4 C 29,0 km/h (5 Bft) 100,00 %
14.09.2017 15:20 13,8 C 16,7 C 68 % 1011,0 hPa 0,0 l/m 25,1 km/h (4 Bft) W-SW 240 0 min 0,000 mm 0,0 UV-I 45 W/m 8,0 C 7,0 C 43,5 km/h (6 Bft) 100,00 %
14.09.2017 15:21 13,7 C 16,7 C 69 % 1011,1 hPa 0,0 l/m 20,8 km/h (4 Bft) W-SW 248 0 min 0,000 mm 0,0 UV-I 49 W/m 8,1 C 7,9 C 25,7 km/h (4 Bft) 100,00 %
14.09.2017 15:22 13,7 C 16,7 C 69 % 1011,2 hPa 0,0 l/m 17,3 km/h (3 Bft) SW 227 0 min 0,000 mm 0,0 UV-I 50 W/m 8,1 C 8,9 C 22,5 km/h (4 Bft) 100,00 %
14.09.2017 15:23 13,6 C 16,7 C 70 % 1011,3 hPa 0,0 l/m 23,3 km/h (4 Bft) W-SW 254 0 min 0,000 mm 0,0 UV-I 54 W/m 8,2 C 7,1 C 41,8 km/h (6 Bft) 100,00 %
14.09.2017 15:24 13,5 C 16,7 C 70 % 1011,3 hPa 0,0 l/m 25,9 km/h (4 Bft) W 266 0 min 0,000 mm 0,0 UV-I 60 W/m 8,1 C 6,4 C 33,8 km/h (5 Bft) 100,00 %
14.09.2017 15:25 13,4 C 16,7 C 71 % 1011,3 hPa 0,0 l/m 21,5 km/h (4 Bft) SW 224 0 min 0,000 mm 0,0 UV-I 66 W/m 8,3 C 7,3 C 37,0 km/h (5 Bft) 100,00 %
14.09.2017 15:26 13,3 C 16,7 C 70 % 1011,2 hPa 0,0 l/m 27,5 km/h (4 Bft) W-SW 248 0 min 0,000 mm 0,0 UV-I 69 W/m 7,9 C 5,8 C 38,6 km/h (5 Bft) 100,00 %
14.09.2017 15:27 13,3 C 16,7 C 71 % 1011,3 hPa 0,0 l/m 19,4 km/h (3 Bft) W-SW 242 0 min 0,000 mm 0,0 UV-I 70 W/m 8,2 C 7,7 C 45,1 km/h (6 Bft) 100,00 %
14.09.2017 15:28 13,2 C 16,7 C 71 % 1011,4 hPa 0,0 l/m 24,8 km/h (4 Bft) W 260 0 min 0,000 mm 0,0 UV-I 70 W/m 8,1 C 6,2 C 33,8 km/h (5 Bft) 100,00 %
14.09.2017 15:29 13,1 C 16,7 C 71 % 1011,5 hPa 0,0 l/m 23,5 km/h (4 Bft) SW 222 0 min 0,000 mm 0,0 UV-I 70 W/m 8,0 C 6,4 C 38,6 km/h (5 Bft) 100,00 %
14.09.2017 15:30 13,1 C 16,7 C 71 % 1011,5 hPa 0,0 l/m 22,2 km/h (4 Bft) W-SW 240 0 min 0,000 mm 0,0 UV-I 67 W/m 8,0 C 6,7 C 32,2 km/h (5 Bft) 96,55 %
14.09.2017 15:31 13,0 C 16,7 C 73 % 1011,6 hPa 0,0 l/m 22,0 km/h (4 Bft) W-SW 247 0 min 0,000 mm 0,0 UV-I 62 W/m 8,3 C 6,6 C 32,2 km/h (5 Bft) 100,00 %
14.09.2017 15:32 12,9 C 16,7 C 73 % 1011,6 hPa 0,0 l/m 20,7 km/h (4 Bft) W-SW 247 0 min 0,000 mm 0,0 UV-I 60 W/m 8,2 C 6,8 C 29,0 km/h (5 Bft) 95,83 %
14.09.2017 15:33 12,9 C 16,7 C 73 % 1011,6 hPa 0,0 l/m 23,4 km/h (4 Bft) W-SW 245 0 min 0,000 mm 0,0 UV-I 60 W/m 8,2 C 6,1 C 30,6 km/h (5 Bft) 100,00 %
14.09.2017 15:34 12,9 C 16,7 C 73 % 1011,8 hPa 0,0 l/m 19,0 km/h (3 Bft) W-SW 250 0 min 0,000 mm 0,0 UV-I 60 W/m 8,2 C 7,3 C 27,4 km/h (4 Bft) 95,83 %
14.09.2017 15:35 12,9 C 16,7 C 73 % 1011,8 hPa 0,0 l/m 17,5 km/h (3 Bft) SW 236 0 min 0,000 mm 0,0 UV-I 60 W/m 8,2 C 7,8 C 25,7 km/h (4 Bft) 100,00 %
14.09.2017 15:37 12,8 C 16,7 C 72 % 1011,8 hPa 0,0 l/m 22,4 km/h (4 Bft) W-SW 243 0 min 0,000 mm 0,0 UV-I 55 W/m 7,9 C 6,3 C 35,4 km/h (5 Bft) 96,23 %
14.09.2017 15:38 12,8 C 16,7 C 72 % 1011,8 hPa 0,0 l/m 21,5 km/h (4 Bft) W-SW 250 0 min 0,000 mm 0,0 UV-I 51 W/m 7,9 C 6,5 C 30,6 km/h (5 Bft) 100,00 %
14.09.2017 15:39 12,8 C 16,7 C 73 % 1011,9 hPa 0,0 l/m 14,7 km/h (3 Bft) W-SW 238 0 min 0,000 mm 0,0 UV-I 49 W/m 8,1 C 8,6 C 20,9 km/h (4 Bft) 100,00 %
14.09.2017 15:40 12,7 C 16,7 C 73 % 1012,0 hPa 0,0 l/m 19,4 km/h (3 Bft) W 270 0 min 0,000 mm 0,0 UV-I 47 W/m 8,0 C 6,9 C 27,4 km/h (4 Bft) 95,12 %
14.09.2017 15:41 12,7 C 16,7 C 73 % 1012,0 hPa 0,0 l/m 17,2 km/h (3 Bft) W 261 0 min 0,000 mm 0,0 UV-I 47 W/m 8,0 C 7,6 C 24,1 km/h (4 Bft) 100,00 %
14.09.2017 15:42 12,7 C 16,7 C 73 % 1011,9 hPa 0,0 l/m 16,9 km/h (3 Bft) W-SW 241 0 min 0,000 mm 0,0 UV-I 46 W/m 8,0 C 7,7 C 22,5 km/h (4 Bft) 86,67 %
14.09.2017 15:43 12,7 C 16,7 C 74 % 1011,9 hPa 0,0 l/m 17,1 km/h (3 Bft) W-NW 290 0 min 0,000 mm 0,0 UV-I 45 W/m 8,2 C 7,7 C 22,5 km/h (4 Bft) 92,68 %
14.09.2017 15:44 12,7 C 16,7 C 74 % 1011,9 hPa 0,0 l/m 13,5 km/h (3 Bft) SW 221 0 min 0,000 mm 0,0 UV-I 41 W/m 8,2 C 9,0 C 20,9 km/h (4 Bft) 100,00 %
14.09.2017 15:45 12,6 C 16,7 C 74 % 1012,0 hPa 0,0 l/m 19,1 km/h (3 Bft) W-SW 256 0 min 0,000 mm 0,0 UV-I 40 W/m 8,1 C 6,9 C 27,4 km/h (4 Bft) 91,30 %
14.09.2017 15:46 12,6 C 16,7 C 74 % 1012,0 hPa 0,0 l/m 20,8 km/h (4 Bft) W-SW 253 0 min 0,000 mm 0,0 UV-I 42 W/m 8,1 C 6,4 C 29,0 km/h (5 Bft) 100,00 %
14.09.2017 15:47 12,6 C 16,7 C 73 % 1012,0 hPa 0,0 l/m 26,4 km/h (4 Bft) W 259 0 min 0,000 mm 0,0 UV-I 42 W/m 7,9 C 5,0 C 35,4 km/h (5 Bft) 91,30 %
14.09.2017 15:48 12,6 C 16,7 C 72 % 1012,1 hPa 0,0 l/m 30,0 km/h (5 Bft) W-SW 238 0 min 0,000 mm 0,0 UV-I 42 W/m 7,7 C 4,3 C 41,8 km/h (6 Bft) 100,00 %
14.09.2017 15:49 12,6 C 16,7 C 72 % 1012,1 hPa 0,0 l/m 23,9 km/h (4 Bft) SW 229 0 min 0,000 mm 0,0 UV-I 42 W/m 7,7 C 5,6 C 41,8 km/h (6 Bft) 86,96 %
14.09.2017 15:50 12,6 C 16,7 C 71 % 1012,1 hPa 0,0 l/m 24,7 km/h (4 Bft) W 268 0 min 0,000 mm 0,0 UV-I 44 W/m 7,5 C 5,4 C 32,2 km/h (5 Bft) 91,67 %
14.09.2017 15:51 12,5 C 16,7 C 71 % 1012,1 hPa 0,0 l/m 24,4 km/h (4 Bft) W-SW 254 0 min 0,000 mm 0,0 UV-I 46 W/m 7,4 C 5,4 C 37,0 km/h (5 Bft) 100,00 %
14.09.2017 15:52 12,5 C 16,7 C 71 % 1012,2 hPa 0,0 l/m 25,6 km/h (4 Bft) W-SW 248 0 min 0,000 mm 0,0 UV-I 45 W/m 7,4 C 5,1 C 38,6 km/h (5 Bft) 96,55 %
14.09.2017 15:53 12,4 C 16,7 C 71 % 1012,2 hPa 0,0 l/m 23,1 km/h (4 Bft) W-SW 238 0 min 0,000 mm 0,0 UV-I 47 W/m 7,3 C 5,5 C 33,8 km/h (5 Bft) 100,00 %
14.09.2017 15:54 12,4 C 16,7 C 70 % 1012,3 hPa 0,0 l/m 34,8 km/h (5 Bft) W-SW 248 0 min 0,000 mm 0,0 UV-I 47 W/m 7,1 C 3,2 C 43,5 km/h (6 Bft) 92,31 %
14.09.2017 15:55 12,4 C 16,7 C 71 % 1012,2 hPa 0,0 l/m 24,1 km/h (4 Bft) W 273 0 min 0,000 mm 0,0 UV-I 49 W/m 7,3 C 5,3 C 33,8 km/h (5 Bft) 100,00 %
14.09.2017 15:56 12,4 C 16,7 C 71 % 1012,2 hPa 0,0 l/m 22,0 km/h (4 Bft) W-SW 242 0 min 0,000 mm 0,0 UV-I 51 W/m 7,3 C 5,8 C 29,0 km/h (5 Bft) 85,71 %
14.09.2017 15:57 12,3 C 16,7 C 72 % 1012,3 hPa 0,0 l/m 33,7 km/h (5 Bft) W-SW 255 0 min 0,000 mm 0,0 UV-I 51 W/m 7,4 C 3,2 C 48,3 km/h (6 Bft) 100,00 %
14.09.2017 15:58 12,3 C 16,7 C 72 % 1012,3 hPa 0,0 l/m 26,6 km/h (4 Bft) W-SW 244 0 min 0,000 mm 0,0 UV-I 48 W/m 7,4 C 4,6 C 35,4 km/h (5 Bft) 92,31 %
14.09.2017 15:59 12,2 C 16,7 C 73 % 1012,4 hPa 0,0 l/m 21,0 km/h (4 Bft) W-SW 257 0 min 0,000 mm 0,0 UV-I 47 W/m 7,5 C 5,8 C 32,2 km/h (5 Bft) 92,59 %
14.09.2017 16:00 12,2 C 16,7 C 74 % 1012,4 hPa 0,0 l/m 28,0 km/h (4 Bft) SW 218 0 min 0,000 mm 0,0 UV-I 48 W/m 7,7 C 4,1 C 38,6 km/h (5 Bft) 90,91 %
14.09.2017 16:01 12,1 C 16,7 C 74 % 1012,4 hPa 0,0 l/m 29,1 km/h (5 Bft) W-SW 241 0 min 0,102 mm 0,0 UV-I 51 W/m 7,6 C 3,8 C 43,5 km/h (6 Bft) 96,67 %
14.09.2017 16:02 12,0 C 16,7 C 75 % 1012,5 hPa 0,0 l/m 27,6 km/h (4 Bft) W-SW 240 0 min 0,000 mm 0,0 UV-I 51 W/m 7,7 C 4,0 C 35,4 km/h (5 Bft) 96,15 %
14.09.2017 16:03 11,9 C 16,7 C 76 % 1012,5 hPa 0,0 l/m 24,8 km/h (4 Bft) W-SW 252 0 min 0,000 mm 0,0 UV-I 53 W/m 7,8 C 4,5 C 35,4 km/h (5 Bft) 91,67 %
14.09.2017 16:04 11,8 C 16,7 C 76 % 1012,5 hPa 0,0 l/m 26,3 km/h (4 Bft) W 267 0 min 0,000 mm 0,0 UV-I 59 W/m 7,7 C 4,0 C 38,6 km/h (5 Bft) 93,33 %
14.09.2017 16:05 11,7 C 16,7 C 77 % 1012,6 hPa 0,0 l/m 25,3 km/h (4 Bft) W 259 0 min 0,000 mm 0,0 UV-I 62 W/m 7,8 C 4,1 C 32,2 km/h (5 Bft) 92,31 %
14.09.2017 16:06 11,6 C 16,7 C 77 % 1012,5 hPa 0,0 l/m 20,4 km/h (4 Bft) W-SW 254 0 min 0,000 mm 0,0 UV-I 65 W/m 7,7 C 5,2 C 29,0 km/h (5 Bft) 95,83 %
14.09.2017 16:07 11,5 C 16,7 C 78 % 1012,5 hPa 0,0 l/m 15,4 km/h (3 Bft) W-SW 239 0 min 0,000 mm 0,0 UV-I 67 W/m 7,8 C 6,8 C 20,9 km/h (4 Bft) 92,59 %
14.09.2017 16:08 11,4 C 16,7 C 79 % 1012,5 hPa 0,0 l/m 24,7 km/h (4 Bft) W-SW 244 0 min 0,000 mm 0,0 UV-I 63 W/m 7,9 C 3,8 C 35,4 km/h (5 Bft) 100,00 %
14.09.2017 16:09 11,3 C 16,7 C 79 % 1012,4 hPa 0,0 l/m 15,5 km/h (3 Bft) W-SW 258 0 min 0,000 mm 0,0 UV-I 62 W/m 7,8 C 6,5 C 22,5 km/h (4 Bft) 91,67 %
14.09.2017 16:10 11,3 C 16,7 C 79 % 1012,5 hPa 0,0 l/m 18,3 km/h (3 Bft) W-SW 248 0 min 0,000 mm 0,0 UV-I 60 W/m 7,8 C 5,5 C 24,1 km/h (4 Bft) 100,00 %
14.09.2017 16:11 11,2 C 16,7 C 80 % 1012,4 hPa 0,0 l/m 15,4 km/h (3 Bft) NW 313 0 min 0,000 mm 0,0 UV-I 59 W/m 7,9 C 6,4 C 20,9 km/h (4 Bft) 95,83 %
14.09.2017 16:12 11,2 C 16,7 C 80 % 1012,5 hPa 0,0 l/m 14,7 km/h (3 Bft) W-SW 258 0 min 0,000 mm 0,0 UV-I 57 W/m 7,9 C 6,7 C 20,9 km/h (4 Bft) 100,00 %
14.09.2017 16:13 11,2 C 16,7 C 81 % 1012,5 hPa 0,0 l/m 18,9 km/h (3 Bft) W-NW 287 0 min 0,000 mm 0,0 UV-I 57 W/m 8,1 C 5,2 C 25,7 km/h (4 Bft) 96,55 %
14.09.2017 16:14 11,2 C 16,7 C 81 % 1012,4 hPa 0,0 l/m 16,5 km/h (3 Bft) W-NW 290 0 min 0,000 mm 0,0 UV-I 63 W/m 8,1 C 6,0 C 25,7 km/h (4 Bft) 95,83 %
14.09.2017 16:15 11,1 C 16,7 C 81 % 1012,3 hPa 0,0 l/m 23,3 km/h (4 Bft) W 261 0 min 0,000 mm 0,0 UV-I 67 W/m 8,0 C 3,8 C 30,6 km/h (5 Bft) 100,00 %
14.09.2017 16:16 11,1 C 16,7 C 81 % 1012,3 hPa 0,0 l/m 11,6 km/h (2 Bft) W-NW 284 0 min 0,000 mm 0,0 UV-I 65 W/m 8,0 C 8,0 C 17,7 km/h (3 Bft) 93,33 %
14.09.2017 16:17 11,1 C 16,7 C 80 % 1012,3 hPa 0,0 l/m 16,9 km/h (3 Bft) W-SW 254 0 min 0,000 mm 0,0 UV-I 62 W/m 7,8 C 5,7 C 20,9 km/h (4 Bft) 100,00 %
14.09.2017 16:18 11,1 C 16,7 C 81 % 1012,3 hPa 0,0 l/m 19,3 km/h (3 Bft) W 262 0 min 0,000 mm 0,0 UV-I 59 W/m 8,0 C 4,9 C 27,4 km/h (4 Bft) 96,30 %
14.09.2017 16:19 11,1 C 16,7 C 81 % 1012,3 hPa 0,0 l/m 18,7 km/h (3 Bft) W-SW 241 0 min 0,000 mm 0,0 UV-I 58 W/m 8,0 C 5,1 C 27,4 km/h (4 Bft) 97,95 %
14.09.2017 16:20 11,1 C 16,7 C 80 % 1012,3 hPa 0,0 l/m 19,9 km/h (4 Bft) W-SW 240 0 min 0,000 mm 0,0 UV-I 62 W/m 7,8 C 4,7 C 24,1 km/h (4 Bft) 97,50 %
14.09.2017 16:21 11,1 C 16,7 C 81 % 1012,3 hPa 0,0 l/m 14,7 km/h (3 Bft) W-SW 240 0 min 0,000 mm 0,0 UV-I 63 W/m 8,0 C 6,6 C 25,7 km/h (4 Bft) 100,00 %
14.09.2017 16:22 11,2 C 16,7 C 81 % 1012,3 hPa 0,0 l/m 18,5 km/h (3 Bft) W-SW 243 0 min 0,000 mm 0,0 UV-I 64 W/m 8,1 C 5,3 C 25,7 km/h (4 Bft) 96,30 %
14.09.2017 16:23 11,2 C 16,7 C 81 % 1012,3 hPa 0,0 l/m 14,1 km/h (3 Bft) W 278 0 min 0,000 mm 0,0 UV-I 61 W/m 8,1 C 7,0 C 19,3 km/h (3 Bft) 100,00 %
14.09.2017 16:24 11,2 C 16,7 C 81 % 1012,3 hPa 0,0 l/m 20,4 km/h (4 Bft) W 275 0 min 0,000 mm 0,0 UV-I 58 W/m 8,1 C 4,7 C 25,7 km/h (4 Bft) 96,30 %
14.09.2017 16:25 11,2 C 16,7 C 80 % 1012,3 hPa 0,0 l/m 29,0 km/h (5 Bft) W 267 0 min 0,000 mm 0,0 UV-I 56 W/m 7,9 C 2,5 C 41,8 km/h (6 Bft) 100,00 %
14.09.2017 16:26 11,2 C 16,7 C 80 % 1012,4 hPa 0,0 l/m 15,8 km/h (3 Bft) SW 231 0 min 0,000 mm 0,0 UV-I 58 W/m 7,9 C 6,3 C 25,7 km/h (4 Bft) 96,15 %
14.09.2017 16:27 11,2 C 16,7 C 80 % 1012,3 hPa 0,0 l/m 11,8 km/h (2 Bft) W-SW 240 0 min 0,000 mm 0,0 UV-I 62 W/m 7,9 C 8,0 C 17,7 km/h (3 Bft) 100,00 %
14.09.2017 16:28 11,2 C 16,7 C 80 % 1012,4 hPa 0,0 l/m 15,8 km/h (3 Bft) W-SW 257 0 min 0,000 mm 0,0 UV-I 67 W/m 7,9 C 6,3 C 20,9 km/h (4 Bft) 100,00 %
14.09.2017 16:29 11,2 C 16,7 C 80 % 1012,4 hPa 0,0 l/m 16,6 km/h (3 Bft) W 270 0 min 0,000 mm 0,0 UV-I 72 W/m 7,9 C 6,0 C 25,7 km/h (4 Bft) 100,00 %
14.09.2017 16:30 11,2 C 16,7 C 80 % 1012,4 hPa 0,0 l/m 11,2 km/h (2 Bft) W-SW 238 0 min 0,000 mm 0,0 UV-I 73 W/m 7,9 C 8,3 C 12,9 km/h (3 Bft) 100,00 %
14.09.2017 16:31 11,3 C 16,7 C 80 % 1012,4 hPa 0,0 l/m 15,3 km/h (3 Bft) W 269 0 min 0,000 mm 0,0 UV-I 69 W/m 8,0 C 6,6 C 22,5 km/h (4 Bft) 100,00 %
14.09.2017 16:32 11,3 C 16,7 C 80 % 1012,3 hPa 0,0 l/m 19,0 km/h (3 Bft) W 273 0 min 0,000 mm 0,0 UV-I 63 W/m 8,0 C 5,3 C 27,4 km/h (4 Bft) 95,65 %
14.09.2017 16:33 11,3 C 16,7 C 80 % 1012,3 hPa 0,0 l/m 14,3 km/h (3 Bft) W-SW 257 0 min 0,000 mm 0,0 UV-I 58 W/m 8,0 C 7,0 C 22,5 km/h (4 Bft) 100,00 %
14.09.2017 16:34 11,3 C 16,7 C 80 % 1012,4 hPa 0,0 l/m 14,8 km/h (3 Bft) W-SW 255 0 min 0,000 mm 0,0 UV-I 55 W/m 8,0 C 6,8 C 17,7 km/h (3 Bft) 100,00 %
14.09.2017 16:35 11,3 C 16,7 C 80 % 1012,4 hPa 0,0 l/m 19,3 km/h (3 Bft) W-SW 257 0 min 0,000 mm 0,0 UV-I 55 W/m 8,0 C 5,2 C 29,0 km/h (5 Bft) 100,00 %
14.09.2017 16:36 11,3 C 16,7 C 80 % 1012,4 hPa 0,0 l/m 15,1 km/h (3 Bft) W-SW 252 0 min 0,000 mm 0,0 UV-I 59 W/m 8,0 C 6,7 C 22,5 km/h (4 Bft) 100,00 %
14.09.2017 16:37 11,3 C 16,7 C 80 % 1012,4 hPa 0,0 l/m 15,8 km/h (3 Bft) W 261 0 min 0,000 mm 0,0 UV-I 66 W/m 8,0 C 6,4 C 20,9 km/h (4 Bft) 100,00 %
14.09.2017 16:38 11,3 C 16,7 C 80 % 1012,4 hPa 0,0 l/m 17,6 km/h (3 Bft) W-SW 250 0 min 0,000 mm 0,0 UV-I 72 W/m 8,0 C 5,7 C 24,1 km/h (4 Bft) 100,00 %
14.09.2017 16:39 11,3 C 16,7 C 80 % 1012,5 hPa 0,0 l/m 13,6 km/h (3 Bft) W-SW 253 0 min 0,000 mm 0,0 UV-I 77 W/m 8,0 C 7,3 C 17,7 km/h (3 Bft) 100,00 %
14.09.2017 16:40 11,3 C 16,7 C 80 % 1012,5 hPa 0,0 l/m 9,3 km/h (2 Bft) W-SW 249 0 min 0,000 mm 0,0 UV-I 78 W/m 8,0 C 9,4 C 14,5 km/h (3 Bft) 100,00 %
14.09.2017 16:41 11,3 C 16,7 C 80 % 1012,5 hPa 0,0 l/m 20,5 km/h (4 Bft) S-SW 211 0 min 0,000 mm 0,0 UV-I 79 W/m 8,0 C 4,8 C 27,4 km/h (4 Bft) 100,00 %
14.09.2017 16:42 11,3 C 16,7 C 80 % 1012,4 hPa 0,0 l/m 20,7 km/h (4 Bft) W 267 0 min 0,000 mm 0,0 UV-I 77 W/m 8,0 C 4,8 C 25,7 km/h (4 Bft) 100,00 %
14.09.2017 16:43 11,4 C 16,7 C 80 % 1012,5 hPa 0,0 l/m 15,7 km/h (3 Bft) SW 232 0 min 0,000 mm 0,0 UV-I 70 W/m 8,1 C 6,6 C 20,9 km/h (4 Bft) 100,00 %
14.09.2017 16:44 11,4 C 16,7 C 80 % 1012,5 hPa 0,0 l/m 11,5 km/h (2 Bft) W 277 0 min 0,000 mm 0,0 UV-I 62 W/m 8,1 C 8,4 C 16,1 km/h (3 Bft) 100,00 %
14.09.2017 16:45 11,4 C 16,7 C 80 % 1012,4 hPa 0,0 l/m 13,8 km/h (3 Bft) SW 218 0 min 0,000 mm 0,0 UV-I 55 W/m 8,1 C 7,3 C 19,3 km/h (3 Bft) 100,00 %
14.09.2017 16:46 11,4 C 16,7 C 81 % 1012,4 hPa 0,0 l/m 15,2 km/h (3 Bft) W-SW 253 0 min 0,000 mm 0,0 UV-I 54 W/m 8,3 C 6,8 C 19,3 km/h (3 Bft) 100,00 %
14.09.2017 16:47 11,4 C 16,7 C 81 % 1012,4 hPa 0,0 l/m 14,2 km/h (3 Bft) W 264 0 min 0,000 mm 0,0 UV-I 54 W/m 8,3 C 7,2 C 19,3 km/h (3 Bft) 100,00 %
14.09.2017 16:48 11,4 C 16,7 C 81 % 1012,4 hPa 0,0 l/m 16,4 km/h (3 Bft) W 259 0 min 0,000 mm 0,0 UV-I 55 W/m 8,3 C 6,3 C 20,9 km/h (4 Bft) 100,00 %
14.09.2017 16:49 11,4 C 16,7 C 81 % 1012,4 hPa 0,0 l/m 14,3 km/h (3 Bft) W 264 0 min 0,000 mm 0,0 UV-I 56 W/m 8,3 C 7,1 C 19,3 km/h (3 Bft) 100,00 %
14.09.2017 16:50 11,4 C 16,7 C 82 % 1012,3 hPa 0,0 l/m 16,7 km/h (3 Bft) W-SW 249 0 min 0,000 mm 0,0 UV-I 56 W/m 8,4 C 6,2 C 20,9 km/h (4 Bft) 93,33 %
14.09.2017 16:51 11,4 C 16,7 C 82 % 1012,3 hPa 0,0 l/m 17,1 km/h (3 Bft) W-SW 238 0 min 0,000 mm 0,0 UV-I 53 W/m 8,4 C 6,0 C 24,1 km/h (4 Bft) 100,00 %
14.09.2017 16:52 11,4 C 16,7 C 82 % 1012,3 hPa 0,0 l/m 20,9 km/h (4 Bft) W-SW 246 0 min 0,000 mm 0,0 UV-I 49 W/m 8,4 C 4,8 C 30,6 km/h (5 Bft) 100,00 %
14.09.2017 16:53 11,4 C 16,7 C 82 % 1012,2 hPa 0,0 l/m 17,0 km/h (3 Bft) W 263 0 min 0,000 mm 0,0 UV-I 44 W/m 8,4 C 6,1 C 24,1 km/h (4 Bft) 100,00 %
14.09.2017 16:54 11,3 C 16,7 C 82 % 1012,2 hPa 0,0 l/m 17,0 km/h (3 Bft) SW 229 0 min 0,000 mm 0,0 UV-I 41 W/m 8,3 C 6,0 C 22,5 km/h (4 Bft) 96,30 %
14.09.2017 16:55 11,3 C 16,7 C 82 % 1012,2 hPa 0,0 l/m 15,8 km/h (3 Bft) SW 233 0 min 0,000 mm 0,0 UV-I 39 W/m 8,3 C 6,4 C 20,9 km/h (4 Bft) 100,00 %
14.09.2017 16:56 11,3 C 16,7 C 83 % 1012,2 hPa 0,0 l/m 13,6 km/h (3 Bft) SW 227 0 min 0,000 mm 0,0 UV-I 37 W/m 8,5 C 7,3 C 20,9 km/h (4 Bft) 100,00 %
14.09.2017 16:57 11,3 C 16,7 C 83 % 1012,2 hPa 0,0 l/m 11,9 km/h (2 Bft) SW 217 0 min 0,000 mm 0,0 UV-I 38 W/m 8,5 C 8,1 C 17,7 km/h (3 Bft) 95,65 %
14.09.2017 16:58 11,3 C 16,7 C 83 % 1012,2 hPa 0,0 l/m 9,5 km/h (2 Bft) W-SW 251 0 min 0,000 mm 0,0 UV-I 39 W/m 8,5 C 9,3 C 14,5 km/h (3 Bft) 100,00 %
14.09.2017 16:59 11,2 C 16,7 C 84 % 1012,2 hPa 0,0 l/m 13,4 km/h (3 Bft) SW 235 0 min 0,000 mm 0,0 UV-I 39 W/m 8,6 C 7,3 C 17,7 km/h (3 Bft) 100,00 %
14.09.2017 17:00 11,2 C 16,7 C 84 % 1012,1 hPa 0,0 l/m 11,9 km/h (2 Bft) SW 229 0 min 0,000 mm 0,0 UV-I 37 W/m 8,6 C 7,9 C 14,5 km/h (3 Bft) 95,83 %
14.09.2017 17:01 11,2 C 16,7 C 84 % 1012,2 hPa 0,0 l/m 17,4 km/h (3 Bft) SW 227 0 min 0,076 mm 0,0 UV-I 35 W/m 8,6 C 5,7 C 25,7 km/h (4 Bft) 100,00 %
14.09.2017 17:02 11,2 C 16,7 C 84 % 1012,2 hPa 0,0 l/m 17,4 km/h (3 Bft) SW 227 0 min 0,000 mm 0,0 UV-I 35 W/m 8,6 C 5,7 C 24,1 km/h (4 Bft) 100,00 %
14.09.2017 17:03 11,2 C 16,7 C 84 % 1012,2 hPa 0,0 l/m 17,0 km/h (3 Bft) SW 228 0 min 0,000 mm 0,0 UV-I 34 W/m 8,6 C 5,8 C 24,1 km/h (4 Bft) 98,01 %
14.09.2017 17:04 11,2 C 16,7 C 84 % 1012,2 hPa 0,0 l/m 13,5 km/h (3 Bft) SW 236 0 min 0,000 mm 0,0 UV-I 33 W/m 8,6 C 7,2 C 19,3 km/h (3 Bft) 100,00 %
14.09.2017 17:05 11,2 C 16,7 C 84 % 1012,1 hPa 0,0 l/m 14,5 km/h (3 Bft) S 190 0 min 0,000 mm 0,0 UV-I 33 W/m 8,6 C 6,8 C 22,5 km/h (4 Bft) 100,00 %
14.09.2017 17:06 11,2 C 16,7 C 85 % 1012,2 hPa 0,0 l/m 16,1 km/h (3 Bft) W-SW 248 0 min 0,000 mm 0,0 UV-I 32 W/m 8,8 C 6,2 C 25,7 km/h (4 Bft) 100,00 %
14.09.2017 17:07 11,1 C 16,7 C 85 % 1012,2 hPa 0,0 l/m 13,9 km/h (3 Bft) S-SW 211 0 min 0,000 mm 0,0 UV-I 32 W/m 8,7 C 6,9 C 22,5 km/h (4 Bft) 100,00 %
14.09.2017 17:08 11,1 C 16,7 C 85 % 1012,2 hPa 0,0 l/m 17,1 km/h (3 Bft) SW 220 0 min 0,000 mm 0,0 UV-I 32 W/m 8,7 C 5,7 C 22,5 km/h (4 Bft) 95,65 %
14.09.2017 17:09 11,1 C 16,7 C 85 % 1012,2 hPa 0,0 l/m 13,8 km/h (3 Bft) S-SW 205 0 min 0,000 mm 0,0 UV-I 30 W/m 8,7 C 7,0 C 17,7 km/h (3 Bft) 100,00 %
14.09.2017 17:10 11,1 C 16,7 C 85 % 1012,2 hPa 0,0 l/m 15,0 km/h (3 Bft) SW 214 0 min 0,000 mm 0,0 UV-I 29 W/m 8,7 C 6,5 C 22,5 km/h (4 Bft) 100,00 %
14.09.2017 17:11 11,1 C 16,7 C 86 % 1012,2 hPa 0,0 l/m 13,2 km/h (3 Bft) W-SW 256 0 min 0,000 mm 0,0 UV-I 28 W/m 8,8 C 7,2 C 20,9 km/h (4 Bft) 100,00 %
14.09.2017 17:12 11,1 C 16,7 C 86 % 1012,2 hPa 0,0 l/m 16,8 km/h (3 Bft) W-SW 247 0 min 0,000 mm 0,0 UV-I 28 W/m 8,8 C 5,8 C 22,5 km/h (4 Bft) 100,00 %
14.09.2017 17:13 11,1 C 16,7 C 86 % 1012,2 hPa 0,0 l/m 13,3 km/h (3 Bft) SW 226 0 min 0,000 mm 0,0 UV-I 28 W/m 8,8 C 7,2 C 20,9 km/h (4 Bft) 100,00 %
14.09.2017 17:14 11,1 C 16,7 C 86 % 1012,2 hPa 0,0 l/m 12,4 km/h (3 Bft) S-SW 212 0 min 0,000 mm 0,0 UV-I 28 W/m 8,8 C 7,6 C 16,1 km/h (3 Bft) 95,65 %
14.09.2017 17:15 11,0 C 16,7 C 86 % 1012,2 hPa 0,0 l/m 10,8 km/h (2 Bft) SW 230 0 min 0,000 mm 0,0 UV-I 28 W/m 8,7 C 8,3 C 17,7 km/h (3 Bft) 100,00 %
14.09.2017 17:16 11,0 C 16,7 C 87 % 1012,2 hPa 0,2 l/m 11,5 km/h (2 Bft) SW 227 0 min 0,000 mm 0,0 UV-I 28 W/m 8,9 C 7,9 C 16,1 km/h (3 Bft) 100,00 %
14.09.2017 17:17 10,9 C 16,7 C 87 % 1012,2 hPa 0,0 l/m 14,7 km/h (3 Bft) W 262 0 min 0,000 mm 0,0 UV-I 28 W/m 8,8 C 6,3 C 22,5 km/h (4 Bft) 100,00 %
14.09.2017 17:18 10,9 C 16,7 C 87 % 1012,2 hPa 0,0 l/m 14,2 km/h (3 Bft) W-SW 240 0 min 0,000 mm 0,0 UV-I 28 W/m 8,8 C 6,6 C 27,4 km/h (4 Bft) 100,00 %
14.09.2017 17:19 10,9 C 16,7 C 87 % 1012,2 hPa 0,0 l/m 16,3 km/h (3 Bft) SW 227 0 min 0,000 mm 0,0 UV-I 28 W/m 8,8 C 5,7 C 22,5 km/h (4 Bft) 100,00 %
14.09.2017 17:20 10,9 C 16,7 C 87 % 1012,3 hPa 0,0 l/m 15,0 km/h (3 Bft) S-SW 211 0 min 0,000 mm 0,0 UV-I 30 W/m 8,8 C 6,2 C 22,5 km/h (4 Bft) 100,00 %
14.09.2017 17:21 10,9 C 16,7 C 87 % 1012,3 hPa 0,0 l/m 15,9 km/h (3 Bft) SW 226 0 min 0,000 mm 0,0 UV-I 30 W/m 8,8 C 5,9 C 19,3 km/h (3 Bft) 100,00 %
14.09.2017 17:22 10,8 C 16,7 C 87 % 1012,3 hPa 0,0 l/m 17,1 km/h (3 Bft) SW 223 0 min 0,000 mm 0,0 UV-I 30 W/m 8,7 C 5,3 C 27,4 km/h (4 Bft) 100,00 %
14.09.2017 17:23 10,8 C 16,7 C 87 % 1012,3 hPa 0,0 l/m 18,3 km/h (3 Bft) SW 216 0 min 0,000 mm 0,0 UV-I 31 W/m 8,7 C 4,9 C 27,4 km/h (4 Bft) 100,00 %
14.09.2017 17:24 10,8 C 16,7 C 87 % 1012,4 hPa 0,0 l/m 16,6 km/h (3 Bft) SW 236 0 min 0,000 mm 0,0 UV-I 32 W/m 8,7 C 5,5 C 22,5 km/h (4 Bft) 100,00 %
14.09.2017 17:25 10,8 C 16,7 C 87 % 1012,3 hPa 0,0 l/m 14,0 km/h (3 Bft) S-SW 210 0 min 0,000 mm 0,0 UV-I 33 W/m 8,7 C 6,5 C 19,3 km/h (3 Bft) 100,00 %
14.09.2017 17:26 10,8 C 16,7 C 87 % 1012,3 hPa 0,0 l/m 17,6 km/h (3 Bft) S-SW 205 0 min 0,000 mm 0,0 UV-I 33 W/m 8,7 C 5,1 C 20,9 km/h (4 Bft) 100,00 %
14.09.2017 17:27 10,8 C 16,7 C 87 % 1012,3 hPa 0,0 l/m 14,3 km/h (3 Bft) W-SW 238 0 min 0,000 mm 0,0 UV-I 32 W/m 8,7 C 6,4 C 20,9 km/h (4 Bft) 100,00 %
14.09.2017 17:28 10,8 C 16,7 C 88 % 1012,3 hPa 0,0 l/m 13,8 km/h (3 Bft) SW 234 0 min 0,000 mm 0,0 UV-I 32 W/m 8,9 C 6,6 C 17,7 km/h (3 Bft) 100,00 %
14.09.2017 17:29 10,8 C 16,7 C 88 % 1012,3 hPa 0,0 l/m 16,3 km/h (3 Bft) SW 214 0 min 0,000 mm 0,0 UV-I 32 W/m 8,9 C 5,6 C 25,7 km/h (4 Bft) 100,00 %
14.09.2017 17:30 10,8 C 16,7 C 88 % 1012,3 hPa 0,0 l/m 13,9 km/h (3 Bft) SW 225 0 min 0,000 mm 0,0 UV-I 32 W/m 8,9 C 6,6 C 19,3 km/h (3 Bft) 100,00 %
14.09.2017 17:31 10,8 C 16,7 C 88 % 1012,3 hPa 0,0 l/m 19,1 km/h (3 Bft) S-SO 155 0 min 0,000 mm 0,0 UV-I 32 W/m 8,9 C 4,6 C 29,0 km/h (5 Bft) 100,00 %
14.09.2017 17:32 10,7 C 16,7 C 87 % 1012,2 hPa 0,0 l/m 13,7 km/h (3 Bft) S-SW 204 0 min 0,000 mm 0,0 UV-I 32 W/m 8,6 C 6,5 C 24,1 km/h (4 Bft) 100,00 %
14.09.2017 17:33 10,7 C 16,7 C 88 % 1012,3 hPa 0,0 l/m 17,3 km/h (3 Bft) SW 227 0 min 0,000 mm 0,0 UV-I 34 W/m 8,8 C 5,1 C 25,7 km/h (4 Bft) 100,00 %
14.09.2017 17:34 10,7 C 16,7 C 88 % 1012,3 hPa 0,0 l/m 13,4 km/h (3 Bft) SW 219 0 min 0,000 mm 0,0 UV-I 35 W/m 8,8 C 6,7 C 16,1 km/h (3 Bft) 95,83 %
14.09.2017 17:35 10,7 C 16,7 C 87 % 1012,4 hPa 0,0 l/m 18,0 km/h (3 Bft) W-SW 252 0 min 0,000 mm 0,0 UV-I 35 W/m 8,6 C 4,9 C 24,1 km/h (4 Bft) 100,00 %
14.09.2017 17:36 10,7 C 16,7 C 88 % 1012,4 hPa 0,0 l/m 13,5 km/h (3 Bft) SW 235 0 min 0,000 mm 0,0 UV-I 35 W/m 8,8 C 6,6 C 17,7 km/h (3 Bft) 100,00 %
14.09.2017 17:37 10,7 C 16,7 C 88 % 1012,4 hPa 0,0 l/m 17,0 km/h (3 Bft) S-SW 201 0 min 0,000 mm 0,0 UV-I 35 W/m 8,8 C 5,2 C 25,7 km/h (4 Bft) 100,00 %
14.09.2017 17:38 10,7 C 16,7 C 88 % 1012,4 hPa 0,0 l/m 14,8 km/h (3 Bft) SW 234 0 min 0,000 mm 0,0 UV-I 35 W/m 8,8 C 6,1 C 22,5 km/h (4 Bft) 100,00 %
14.09.2017 17:39 10,7 C 16,7 C 88 % 1012,4 hPa 0,0 l/m 21,3 km/h (4 Bft) W-SW 243 0 min 0,000 mm 0,0 UV-I 36 W/m 8,8 C 3,8 C 27,4 km/h (4 Bft) 96,43 %
14.09.2017 17:40 10,7 C 16,7 C 88 % 1012,4 hPa 0,0 l/m 17,9 km/h (3 Bft) SW 221 0 min 0,000 mm 0,0 UV-I 37 W/m 8,8 C 4,9 C 24,1 km/h (4 Bft) 96,30 %
14.09.2017 17:41 10,7 C 16,7 C 88 % 1012,4 hPa 0,0 l/m 20,8 km/h (4 Bft) W-SW 252 0 min 0,000 mm 0,0 UV-I 37 W/m 8,8 C 3,9 C 30,6 km/h (5 Bft) 100,00 %
14.09.2017 17:42 10,7 C 16,7 C 87 % 1012,3 hPa 0,0 l/m 17,8 km/h (3 Bft) W-SW 238 0 min 0,000 mm 0,0 UV-I 37 W/m 8,6 C 4,9 C 27,4 km/h (4 Bft) 95,83 %
14.09.2017 17:43 10,7 C 16,7 C 87 % 1012,3 hPa 0,0 l/m 19,5 km/h (3 Bft) SW 224 0 min 0,000 mm 0,0 UV-I 37 W/m 8,6 C 4,4 C 33,8 km/h (5 Bft) 95,65 %
14.09.2017 17:44 10,7 C 16,7 C 88 % 1012,3 hPa 0,0 l/m 16,5 km/h (3 Bft) SW 229 0 min 0,000 mm 0,0 UV-I 35 W/m 8,8 C 5,4 C 24,1 km/h (4 Bft) 100,00 %
14.09.2017 17:45 10,7 C 16,7 C 88 % 1012,4 hPa 0,0 l/m 23,1 km/h (4 Bft) W-SW 247 0 min 0,000 mm 0,0 UV-I 34 W/m 8,8 C 3,3 C 32,2 km/h (5 Bft) 96,15 %
14.09.2017 17:46 10,8 C 16,7 C 88 % 1012,4 hPa 0,0 l/m 15,0 km/h (3 Bft) SW 236 0 min 0,000 mm 0,0 UV-I 33 W/m 8,9 C 6,1 C 24,1 km/h (4 Bft) 100,00 %
14.09.2017 17:47 10,8 C 16,7 C 88 % 1012,4 hPa 0,0 l/m 19,6 km/h (3 Bft) SW 234 0 min 0,000 mm 0,0 UV-I 35 W/m 8,9 C 4,4 C 29,0 km/h (5 Bft) 96,15 %
14.09.2017 17:48 10,8 C 16,7 C 87 % 1012,3 hPa 0,0 l/m 19,0 km/h (3 Bft) W 261 0 min 0,000 mm 0,0 UV-I 39 W/m 8,7 C 4,6 C 25,7 km/h (4 Bft) 100,00 %
14.09.2017 17:49 10,8 C 16,7 C 87 % 1012,4 hPa 0,0 l/m 19,7 km/h (3 Bft) W-SW 240 0 min 0,000 mm 0,0 UV-I 43 W/m 8,7 C 4,4 C 27,4 km/h (4 Bft) 96,30 %
14.09.2017 17:50 10,8 C 16,7 C 87 % 1012,4 hPa 0,0 l/m 24,7 km/h (4 Bft) S 172 0 min 0,000 mm 0,0 UV-I 43 W/m 8,7 C 3,0 C 32,2 km/h (5 Bft) 96,15 %
14.09.2017 17:51 10,8 C 16,7 C 87 % 1012,4 hPa 0,0 l/m 21,8 km/h (4 Bft) W-SW 248 0 min 0,000 mm 0,0 UV-I 40 W/m 8,7 C 3,8 C 27,4 km/h (4 Bft) 96,30 %
14.09.2017 17:52 10,8 C 16,7 C 87 % 1012,5 hPa 0,0 l/m 28,2 km/h (4 Bft) SW 227 0 min 0,000 mm 0,0 UV-I 36 W/m 8,7 C 2,2 C 35,4 km/h (5 Bft) 100,00 %
14.09.2017 17:53 10,8 C 16,7 C 86 % 1012,5 hPa 0,0 l/m 20,4 km/h (4 Bft) W-SW 238 0 min 0,000 mm 0,0 UV-I 33 W/m 8,6 C 4,2 C 29,0 km/h (5 Bft) 96,30 %
14.09.2017 17:54 10,8 C 16,7 C 86 % 1012,5 hPa 0,0 l/m 22,2 km/h (4 Bft) S 176 0 min 0,000 mm 0,0 UV-I 32 W/m 8,6 C 3,7 C 32,2 km/h (5 Bft) 96,15 %
14.09.2017 17:55 10,8 C 16,7 C 86 % 1012,5 hPa 0,0 l/m 22,8 km/h (4 Bft) SW 217 0 min 0,000 mm 0,0 UV-I 30 W/m 8,6 C 3,5 C 30,6 km/h (5 Bft) 100,00 %
14.09.2017 17:56 10,9 C 16,7 C 86 % 1012,5 hPa 0,0 l/m 22,7 km/h (4 Bft) SW 223 0 min 0,000 mm 0,0 UV-I 29 W/m 8,7 C 3,7 C 30,6 km/h (5 Bft) 91,30 %
14.09.2017 17:57 10,9 C 16,7 C 85 % 1012,6 hPa 0,0 l/m 21,9 km/h (4 Bft) S-SW 209 0 min 0,000 mm 0,0 UV-I 29 W/m 8,5 C 3,9 C 32,2 km/h (5 Bft) 100,00 %
14.09.2017 17:58 10,9 C 16,7 C 85 % 1012,6 hPa 0,0 l/m 20,1 km/h (4 Bft) SW 225 0 min 0,000 mm 0,0 UV-I 30 W/m 8,5 C 4,4 C 38,6 km/h (5 Bft) 96,15 %
14.09.2017 17:59 10,9 C 16,7 C 85 % 1012,6 hPa 0,0 l/m 22,3 km/h (4 Bft) W-SW 238 0 min 0,000 mm 0,0 UV-I 30 W/m 8,5 C 3,8 C 33,8 km/h (5 Bft) 100,00 %
14.09.2017 18:00 10,9 C 16,7 C 85 % 1012,6 hPa 0,0 l/m 22,7 km/h (4 Bft) W-SW 247 0 min 0,000 mm 0,0 UV-I 30 W/m 8,5 C 3,7 C 32,2 km/h (5 Bft) 92,86 %
14.09.2017 18:01 10,9 C 16,7 C 85 % 1012,6 hPa 0,0 l/m 20,4 km/h (4 Bft) W-SW 239 0 min 0,051 mm 0,0 UV-I 27 W/m 8,5 C 4,3 C 29,0 km/h (5 Bft) 100,00 %
14.09.2017 18:02 11,0 C 16,7 C 85 % 1012,6 hPa 0,0 l/m 18,1 km/h (3 Bft) W-SW 252 0 min 0,000 mm 0,0 UV-I 26 W/m 8,6 C 5,2 C 27,4 km/h (4 Bft) 96,15 %
14.09.2017 18:03 11,0 C 16,7 C 85 % 1012,5 hPa 0,0 l/m 21,6 km/h (4 Bft) W-SW 241 0 min 0,000 mm 0,0 UV-I 26 W/m 8,6 C 4,1 C 33,8 km/h (5 Bft) 95,83 %
14.09.2017 18:04 11,0 C 16,7 C 85 % 1012,6 hPa 0,0 l/m 25,8 km/h (4 Bft) S-SW 197 0 min 0,000 mm 0,0 UV-I 25 W/m 8,6 C 3,0 C 38,6 km/h (5 Bft) 100,00 %
14.09.2017 18:05 11,0 C 16,7 C 84 % 1012,6 hPa 0,0 l/m 21,5 km/h (4 Bft) W-SW 247 0 min 0,000 mm 0,0 UV-I 25 W/m 8,4 C 4,1 C 32,2 km/h (5 Bft) 93,33 %
14.09.2017 18:06 11,0 C 16,7 C 84 % 1012,6 hPa 0,0 l/m 19,2 km/h (3 Bft) S-SW 199 0 min 0,000 mm 0,0 UV-I 23 W/m 8,4 C 4,8 C 27,4 km/h (4 Bft) 100,00 %
14.09.2017 18:07 11,1 C 16,7 C 84 % 1012,6 hPa 0,0 l/m 24,0 km/h (4 Bft) W-SW 244 0 min 0,000 mm 0,0 UV-I 23 W/m 8,5 C 3,6 C 37,0 km/h (5 Bft) 96,15 %
14.09.2017 18:08 11,1 C 16,7 C 84 % 1012,6 hPa 0,0 l/m 19,3 km/h (3 Bft) W 259 0 min 0,000 mm 0,0 UV-I 23 W/m 8,5 C 4,9 C 29,0 km/h (5 Bft) 100,00 %
14.09.2017 18:09 11,1 C 16,7 C 84 % 1012,8 hPa 0,0 l/m 20,4 km/h (4 Bft) SW 221 0 min 0,000 mm 0,0 UV-I 22 W/m 8,5 C 4,6 C 27,4 km/h (4 Bft) 93,10 %
14.09.2017 18:10 11,1 C 16,7 C 84 % 1012,7 hPa 0,0 l/m 22,6 km/h (4 Bft) S-SW 211 0 min 0,000 mm 0,0 UV-I 19 W/m 8,5 C 3,9 C 32,2 km/h (5 Bft) 96,30 %
14.09.2017 18:11 11,1 C 16,7 C 83 % 1012,7 hPa 0,0 l/m 24,1 km/h (4 Bft) W 261 0 min 0,000 mm 0,0 UV-I 19 W/m 8,3 C 3,6 C 30,6 km/h (5 Bft) 100,00 %
14.09.2017 18:12 11,1 C 16,7 C 83 % 1012,8 hPa 0,0 l/m 30,3 km/h (5 Bft) SW 233 0 min 0,000 mm 0,0 UV-I 19 W/m 8,3 C 2,1 C 40,2 km/h (6 Bft) 100,00 %
14.09.2017 18:13 11,1 C 16,7 C 83 % 1012,7 hPa 0,0 l/m 18,4 km/h (3 Bft) W-SW 244 0 min 0,000 mm 0,0 UV-I 19 W/m 8,3 C 5,2 C 27,4 km/h (4 Bft) 100,00 %
14.09.2017 18:14 11,1 C 16,7 C 82 % 1012,7 hPa 0,0 l/m 25,3 km/h (4 Bft) W 259 0 min 0,000 mm 0,0 UV-I 19 W/m 8,1 C 3,2 C 37,0 km/h (5 Bft) 100,00 %
14.09.2017 18:15 11,1 C 16,7 C 82 % 1012,7 hPa 0,0 l/m 21,5 km/h (4 Bft) W 259 0 min 0,000 mm 0,0 UV-I 20 W/m 8,1 C 4,3 C 32,2 km/h (5 Bft) 100,00 %
14.09.2017 18:16 11,1 C 16,7 C 82 % 1012,7 hPa 0,0 l/m 23,9 km/h (4 Bft) W-SW 248 0 min 0,000 mm 0,0 UV-I 21 W/m 8,1 C 3,6 C 32,2 km/h (5 Bft) 100,00 %
14.09.2017 18:17 11,2 C 16,7 C 82 % 1012,8 hPa 0,0 l/m 20,7 km/h (4 Bft) SW 236 0 min 0,000 mm 0,0 UV-I 19 W/m 8,2 C 4,6 C 33,8 km/h (5 Bft) 100,00 %
14.09.2017 18:18 11,2 C 16,7 C 81 % 1012,8 hPa 0,0 l/m 19,1 km/h (3 Bft) W-SW 256 0 min 0,000 mm 0,0 UV-I 19 W/m 8,1 C 5,1 C 27,4 km/h (4 Bft) 100,00 %
14.09.2017 18:19 11,2 C 16,7 C 81 % 1012,8 hPa 0,0 l/m 22,0 km/h (4 Bft) W-SW 255 0 min 0,000 mm 0,0 UV-I 19 W/m 8,1 C 4,2 C 32,2 km/h (5 Bft) 100,00 %
14.09.2017 18:20 11,2 C 16,7 C 81 % 1012,8 hPa 0,0 l/m 23,6 km/h (4 Bft) W-SW 246 0 min 0,000 mm 0,0 UV-I 18 W/m 8,1 C 3,8 C 32,2 km/h (5 Bft) 100,00 %
14.09.2017 18:21 11,2 C 16,7 C 81 % 1012,9 hPa 0,0 l/m 21,8 km/h (4 Bft) W-SW 248 0 min 0,000 mm 0,0 UV-I 18 W/m 8,1 C 4,3 C 32,2 km/h (5 Bft) 96,55 %
14.09.2017 18:22 11,2 C 16,7 C 81 % 1012,9 hPa 0,0 l/m 22,5 km/h (4 Bft) W 259 0 min 0,000 mm 0,0 UV-I 18 W/m 8,1 C 4,1 C 29,0 km/h (5 Bft) 100,00 %
14.09.2017 18:23 11,2 C 16,7 C 81 % 1012,9 hPa 0,0 l/m 21,1 km/h (4 Bft) W-SW 249 0 min 0,000 mm 0,0 UV-I 18 W/m 8,1 C 4,5 C 30,6 km/h (5 Bft) 100,00 %
14.09.2017 18:24 11,2 C 16,7 C 81 % 1013,0 hPa 0,0 l/m 17,8 km/h (3 Bft) SW 218 0 min 0,000 mm 0,0 UV-I 18 W/m 8,1 C 5,6 C 22,5 km/h (4 Bft) 100,00 %
14.09.2017 18:25 11,2 C 16,7 C 81 % 1013,0 hPa 0,0 l/m 24,4 km/h (4 Bft) W 259 0 min 0,000 mm 0,0 UV-I 18 W/m 8,1 C 3,6 C 30,6 km/h (5 Bft) 100,00 %
14.09.2017 18:26 11,2 C 16,7 C 81 % 1013,0 hPa 0,0 l/m 19,2 km/h (3 Bft) W-SW 238 0 min 0,000 mm 0,0 UV-I 18 W/m 8,1 C 5,1 C 30,6 km/h (5 Bft) 100,00 %
14.09.2017 18:27 11,2 C 16,7 C 81 % 1013,0 hPa 0,0 l/m 15,9 km/h (3 Bft) SW 221 0 min 0,000 mm 0,0 UV-I 18 W/m 8,1 C 6,2 C 27,4 km/h (4 Bft) 100,00 %
14.09.2017 18:28 11,2 C 16,7 C 81 % 1013,0 hPa 0,0 l/m 20,1 km/h (4 Bft) W-SW 254 0 min 0,000 mm 0,0 UV-I 18 W/m 8,1 C 4,8 C 25,7 km/h (4 Bft) 100,00 %
14.09.2017 18:29 11,2 C 16,7 C 81 % 1013,0 hPa 0,0 l/m 20,4 km/h (4 Bft) W-SW 251 0 min 0,000 mm 0,0 UV-I 19 W/m 8,1 C 4,7 C 32,2 km/h (5 Bft) 100,00 %
14.09.2017 18:30 11,2 C 16,7 C 81 % 1013,0 hPa 0,0 l/m 16,2 km/h (3 Bft) W-SW 247 0 min 0,000 mm 0,0 UV-I 19 W/m 8,1 C 6,1 C 24,1 km/h (4 Bft) 100,00 %
14.09.2017 18:31 11,2 C 16,7 C 81 % 1013,1 hPa 0,0 l/m 17,1 km/h (3 Bft) W-SW 254 0 min 0,000 mm 0,0 UV-I 19 W/m 8,1 C 5,8 C 20,9 km/h (4 Bft) 100,00 %
14.09.2017 18:32 11,2 C 16,7 C 81 % 1013,1 hPa 0,0 l/m 19,4 km/h (3 Bft) W-SW 240 0 min 0,000 mm 0,0 UV-I 19 W/m 8,1 C 5,0 C 27,4 km/h (4 Bft) 91,30 %
14.09.2017 18:33 11,2 C 16,7 C 81 % 1013,1 hPa 0,0 l/m 19,4 km/h (3 Bft) SW 219 0 min 0,000 mm 0,0 UV-I 19 W/m 8,1 C 5,0 C 25,7 km/h (4 Bft) 100,00 %
14.09.2017 18:34 11,2 C 16,7 C 81 % 1013,2 hPa 0,0 l/m 23,5 km/h (4 Bft) W-SW 250 0 min 0,000 mm 0,0 UV-I 19 W/m 8,1 C 3,8 C 29,0 km/h (5 Bft) 100,00 %
14.09.2017 18:35 11,2 C 16,7 C 81 % 1013,2 hPa 0,0 l/m 21,5 km/h (4 Bft) SW 231 0 min 0,000 mm 0,0 UV-I 19 W/m 8,1 C 4,4 C 27,4 km/h (4 Bft) 100,00 %
14.09.2017 18:36 11,1 C 16,7 C 81 % 1013,2 hPa 0,0 l/m 22,7 km/h (4 Bft) SW 229 0 min 0,000 mm 0,0 UV-I 18 W/m 8,0 C 3,9 C 29,0 km/h (5 Bft) 100,00 %
14.09.2017 18:37 11,1 C 16,7 C 81 % 1013,2 hPa 0,0 l/m 18,5 km/h (3 Bft) SW 215 0 min 0,000 mm 0,0 UV-I 14 W/m 8,0 C 5,2 C 22,5 km/h (4 Bft) 100,00 %
14.09.2017 18:38 11,1 C 16,7 C 81 % 1013,2 hPa 0,0 l/m 17,3 km/h (3 Bft) W-NW 294 0 min 0,000 mm 0,0 UV-I 12 W/m 8,0 C 5,6 C 25,7 km/h (4 Bft) 100,00 %
14.09.2017 18:39 11,1 C 16,7 C 81 % 1013,2 hPa 0,0 l/m 20,4 km/h (4 Bft) SW 218 0 min 0,000 mm 0,0 UV-I 11 W/m 8,0 C 4,6 C 29,0 km/h (5 Bft) 100,00 %
14.09.2017 18:40 11,1 C 16,7 C 81 % 1013,2 hPa 0,0 l/m 16,3 km/h (3 Bft) W-SW 239 0 min 0,000 mm 0,0 UV-I 11 W/m 8,0 C 6,0 C 25,7 km/h (4 Bft) 100,00 %
14.09.2017 18:41 11,1 C 16,7 C 81 % 1013,2 hPa 0,0 l/m 23,5 km/h (4 Bft) W-SW 237 0 min 0,000 mm 0,0 UV-I 9 W/m 8,0 C 3,7 C 32,2 km/h (5 Bft) 100,00 %
14.09.2017 18:42 11,1 C 16,7 C 81 % 1013,2 hPa 0,0 l/m 14,6 km/h (3 Bft) SW 226 0 min 0,000 mm 0,0 UV-I 9 W/m 8,0 C 6,6 C 20,9 km/h (4 Bft) 100,00 %
14.09.2017 18:43 11,1 C 16,7 C 81 % 1013,2 hPa 0,0 l/m 19,6 km/h (3 Bft) W-SW 238 0 min 0,000 mm 0,0 UV-I 9 W/m 8,0 C 4,8 C 29,0 km/h (5 Bft) 100,00 %
14.09.2017 18:44 11,1 C 16,7 C 82 % 1013,1 hPa 0,0 l/m 16,8 km/h (3 Bft) W-SW 243 0 min 0,000 mm 0,0 UV-I 9 W/m 8,1 C 5,8 C 29,0 km/h (5 Bft) 100,00 %
14.09.2017 18:45 11,1 C 16,7 C 82 % 1013,1 hPa 0,0 l/m 21,2 km/h (4 Bft) SW 221 0 min 0,000 mm 0,0 UV-I 10 W/m 8,1 C 4,3 C 29,0 km/h (5 Bft) 100,00 %
14.09.2017 18:46 11,0 C 16,7 C 82 % 1013,1 hPa 0,0 l/m 17,9 km/h (3 Bft) SW 217 0 min 0,000 mm 0,0 UV-I 11 W/m 8,0 C 5,3 C 24,1 km/h (4 Bft) 100,00 %
14.09.2017 18:47 11,0 C 16,7 C 82 % 1013,1 hPa 0,0 l/m 18,8 km/h (3 Bft) W-SW 242 0 min 0,000 mm 0,0 UV-I 11 W/m 8,0 C 5,0 C 25,7 km/h (4 Bft) 100,00 %
14.09.2017 18:48 11,0 C 16,7 C 82 % 1013,2 hPa 0,0 l/m 15,1 km/h (3 Bft) W-SW 242 0 min 0,000 mm 0,0 UV-I 11 W/m 8,0 C 6,3 C 22,5 km/h (4 Bft) 100,00 %
14.09.2017 18:49 11,0 C 16,7 C 82 % 1013,1 hPa 0,0 l/m 18,3 km/h (3 Bft) SW 228 0 min 0,000 mm 0,0 UV-I 11 W/m 8,0 C 5,1 C 25,7 km/h (4 Bft) 100,00 %
14.09.2017 18:50 11,0 C 16,7 C 82 % 1013,2 hPa 0,0 l/m 21,6 km/h (4 Bft) W-SW 246 0 min 0,000 mm 0,0 UV-I 11 W/m 8,0 C 4,1 C 25,7 km/h (4 Bft) 100,00 %
14.09.2017 18:51 11,0 C 16,7 C 83 % 1013,1 hPa 0,0 l/m 23,5 km/h (4 Bft) W-SW 246 0 min 0,000 mm 0,0 UV-I 11 W/m 8,2 C 3,6 C 32,2 km/h (5 Bft) 100,00 %
14.09.2017 18:52 10,9 C 16,7 C 83 % 1013,1 hPa 0,0 l/m 22,4 km/h (4 Bft) SW 236 0 min 0,000 mm 0,0 UV-I 9 W/m 8,1 C 3,7 C 25,7 km/h (4 Bft) 100,00 %
14.09.2017 18:53 10,9 C 16,7 C 83 % 1013,0 hPa 0,0 l/m 22,3 km/h (4 Bft) SW 222 0 min 0,000 mm 0,0 UV-I 9 W/m 8,1 C 3,8 C 29,0 km/h (5 Bft) 100,00 %
14.09.2017 18:54 10,9 C 16,7 C 83 % 1013,0 hPa 0,0 l/m 22,0 km/h (4 Bft) S-SW 198 0 min 0,000 mm 0,0 UV-I 8 W/m 8,1 C 3,9 C 30,6 km/h (5 Bft) 100,00 %
14.09.2017 18:55 10,9 C 16,7 C 83 % 1013,0 hPa 0,0 l/m 17,0 km/h (3 Bft) SW 223 0 min 0,000 mm 0,0 UV-I 7 W/m 8,1 C 5,5 C 24,1 km/h (4 Bft) 100,00 %
14.09.2017 18:56 10,9 C 16,7 C 83 % 1013,1 hPa 0,0 l/m 22,5 km/h (4 Bft) SW 229 0 min 0,000 mm 0,0 UV-I 7 W/m 8,1 C 3,7 C 29,0 km/h (5 Bft) 100,00 %
14.09.2017 18:57 10,8 C 16,7 C 83 % 1013,0 hPa 0,0 l/m 27,7 km/h (4 Bft) SW 219 0 min 0,000 mm 0,0 UV-I 7 W/m 8,0 C 2,3 C 41,8 km/h (6 Bft) 100,00 %
14.09.2017 18:58 10,8 C 16,7 C 83 % 1013,0 hPa 0,0 l/m 25,8 km/h (4 Bft) SW 232 0 min 0,000 mm 0,0 UV-I 7 W/m 8,0 C 2,7 C 41,8 km/h (6 Bft) 100,00 %
14.09.2017 18:59 10,8 C 16,7 C 83 % 1013,1 hPa 0,0 l/m 24,6 km/h (4 Bft) SW 233 0 min 0,000 mm 0,0 UV-I 6 W/m 8,0 C 3,0 C 38,6 km/h (5 Bft) 92,86 %
14.09.2017 19:00 10,8 C 16,7 C 83 % 1013,0 hPa 0,0 l/m 28,1 km/h (4 Bft) W 270 0 min 0,000 mm 0,0 UV-I 5 W/m 8,0 C 2,2 C 40,2 km/h (6 Bft) 100,00 %
14.09.2017 19:01 10,8 C 16,7 C 82 % 1012,9 hPa 0,0 l/m 19,1 km/h (3 Bft) SW 230 0 min 0,051 mm 0,0 UV-I 5 W/m 7,9 C 4,6 C 27,4 km/h (4 Bft) 94,44 %
14.09.2017 19:02 10,8 C 16,7 C 83 % 1013,0 hPa 0,0 l/m 18,3 km/h (3 Bft) W-SW 250 0 min 0,000 mm 0,0 UV-I 5 W/m 8,0 C 4,9 C 35,4 km/h (5 Bft) 100,00 %
14.09.2017 19:03 10,8 C 16,7 C 83 % 1013,0 hPa 0,0 l/m 18,9 km/h (3 Bft) SW 235 0 min 0,000 mm 0,0 UV-I 5 W/m 8,0 C 4,7 C 25,7 km/h (4 Bft) 96,15 %
14.09.2017 19:04 10,8 C 16,7 C 83 % 1013,1 hPa 0,0 l/m 17,1 km/h (3 Bft) SW 223 0 min 0,000 mm 0,0 UV-I 5 W/m 8,0 C 5,3 C 24,1 km/h (4 Bft) 96,30 %
14.09.2017 19:05 10,7 C 16,7 C 83 % 1013,0 hPa 0,0 l/m 16,5 km/h (3 Bft) SW 236 0 min 0,000 mm 0,0 UV-I 5 W/m 7,9 C 5,4 C 22,5 km/h (4 Bft) 100,00 %
14.09.2017 19:06 10,7 C 16,7 C 83 % 1013,0 hPa 0,0 l/m 17,2 km/h (3 Bft) SW 214 0 min 0,000 mm 0,0 UV-I 5 W/m 7,9 C 5,1 C 27,4 km/h (4 Bft) 100,00 %
14.09.2017 19:07 10,7 C 16,7 C 83 % 1013,0 hPa 0,0 l/m 17,4 km/h (3 Bft) S-SW 204 0 min 0,000 mm 0,0 UV-I 5 W/m 7,9 C 5,1 C 24,1 km/h (4 Bft) 100,00 %
14.09.2017 19:08 10,7 C 16,7 C 83 % 1013,0 hPa 0,0 l/m 16,2 km/h (3 Bft) SW 221 0 min 0,000 mm 0,0 UV-I 5 W/m 7,9 C 5,5 C 25,7 km/h (4 Bft) 96,15 %
14.09.2017 19:09 10,7 C 16,7 C 83 % 1012,9 hPa 0,0 l/m 18,6 km/h (3 Bft) SW 232 0 min 0,000 mm 0,0 UV-I 5 W/m 7,9 C 4,6 C 24,1 km/h (4 Bft) 100,00 %
14.09.2017 19:10 10,7 C 16,7 C 83 % 1013,0 hPa 0,0 l/m 15,6 km/h (3 Bft) SW 229 0 min 0,000 mm 0,0 UV-I 5 W/m 7,9 C 5,7 C 20,9 km/h (4 Bft) 95,65 %
14.09.2017 19:11 10,7 C 16,7 C 83 % 1012,9 hPa 0,0 l/m 22,5 km/h (4 Bft) W-SW 252 0 min 0,000 mm 0,0 UV-I 5 W/m 7,9 C 3,4 C 29,0 km/h (5 Bft) 100,00 %
14.09.2017 19:12 10,7 C 16,7 C 83 % 1012,9 hPa 0,0 l/m 15,0 km/h (3 Bft) SW 219 0 min 0,000 mm 0,0 UV-I 4 W/m 7,9 C 6,0 C 22,5 km/h (4 Bft) 96,55 %
14.09.2017 19:13 10,7 C 16,7 C 83 % 1013,0 hPa 0,0 l/m 16,7 km/h (3 Bft) SW 219 0 min 0,000 mm 0,0 UV-I 2 W/m 7,9 C 5,3 C 29,0 km/h (5 Bft) 96,30 %
14.09.2017 19:14 10,6 C 16,7 C 83 % 1013,0 hPa 0,0 l/m 14,6 km/h (3 Bft) W-SW 237 0 min 0,000 mm 0,0 UV-I 1 W/m 7,8 C 6,0 C 27,4 km/h (4 Bft) 94,12 %
14.09.2017 19:15 10,6 C 16,7 C 83 % 1013,0 hPa 0,0 l/m 17,1 km/h (3 Bft) S-SW 201 0 min 0,000 mm 0,0 UV-I 0 W/m 7,8 C 5,0 C 25,7 km/h (4 Bft) 96,30 %
14.09.2017 19:16 10,6 C 16,7 C 83 % 1012,9 hPa 0,0 l/m 20,7 km/h (4 Bft) S-SW 193 0 min 0,000 mm 0,0 UV-I 0 W/m 7,8 C 3,8 C 30,6 km/h (5 Bft) 100,00 %
14.09.2017 19:17 10,6 C 16,7 C 83 % 1013,0 hPa 0,0 l/m 21,5 km/h (4 Bft) W-SW 245 0 min 0,000 mm 0,0 UV-I 0 W/m 7,8 C 3,6 C 35,4 km/h (5 Bft) 100,00 %
14.09.2017 19:18 10,6 C 16,7 C 83 % 1013,1 hPa 0,0 l/m 19,9 km/h (4 Bft) SW 236 0 min 0,000 mm 0,0 UV-I 0 W/m 7,8 C 4,1 C 32,2 km/h (5 Bft) 96,15 %
14.09.2017 19:19 10,6 C 16,7 C 82 % 1013,1 hPa 0,0 l/m 18,8 km/h (3 Bft) S 172 0 min 0,000 mm 0,0 UV-I 0 W/m 7,7 C 4,5 C 22,5 km/h (4 Bft) 96,67 %
14.09.2017 19:20 10,6 C 16,7 C 82 % 1013,0 hPa 0,0 l/m 20,8 km/h (4 Bft) SW 234 0 min 0,000 mm 0,0 UV-I 0 W/m 7,7 C 3,8 C 30,6 km/h (5 Bft) 100,00 %
14.09.2017 19:21 10,6 C 16,7 C 82 % 1013,0 hPa 0,0 l/m 16,3 km/h (3 Bft) SW 223 0 min 0,000 mm 0,0 UV-I 0 W/m 7,7 C 5,3 C 22,5 km/h (4 Bft) 98,13 %
14.09.2017 19:22 10,6 C 16,7 C 82 % 1013,0 hPa 0,0 l/m 22,5 km/h (4 Bft) S-SW 194 0 min 0,000 mm 0,0 UV-I 0 W/m 7,7 C 3,3 C 27,4 km/h (4 Bft) 97,56 %
14.09.2017 19:23 10,5 C 16,7 C 82 % 1013,1 hPa 0,0 l/m 20,4 km/h (4 Bft) S 186 0 min 0,000 mm 0,0 UV-I 0 W/m 7,6 C 3,8 C 32,2 km/h (5 Bft) 95,83 %
14.09.2017 19:24 10,5 C 16,7 C 82 % 1013,1 hPa 0,0 l/m 22,6 km/h (4 Bft) W-SW 239 0 min 0,000 mm 0,0 UV-I 0 W/m 7,6 C 3,2 C 38,6 km/h (5 Bft) 100,00 %
14.09.2017 19:25 10,5 C 16,7 C 82 % 1013,1 hPa 0,2 l/m 21,0 km/h (4 Bft) SW 227 0 min 0,000 mm 0,0 UV-I 0 W/m 7,6 C 3,6 C 29,0 km/h (5 Bft) 95,83 %
14.09.2017 19:26 10,5 C 16,7 C 82 % 1013,2 hPa 0,0 l/m 25,3 km/h (4 Bft) S-SO 163 0 min 0,000 mm 0,0 UV-I 0 W/m 7,6 C 2,4 C 37,0 km/h (5 Bft) 100,00 %
14.09.2017 19:27 10,4 C 16,7 C 82 % 1013,0 hPa 0,0 l/m 17,2 km/h (3 Bft) W-SW 242 0 min 0,000 mm 0,0 UV-I 0 W/m 7,5 C 4,8 C 27,4 km/h (4 Bft) 96,55 %
14.09.2017 19:28 10,4 C 16,7 C 82 % 1013,1 hPa 0,0 l/m 16,3 km/h (3 Bft) S-SW 207 0 min 0,000 mm 0,0 UV-I 0 W/m 7,5 C 5,1 C 22,5 km/h (4 Bft) 100,00 %
14.09.2017 19:29 10,4 C 16,7 C 82 % 1013,1 hPa 0,0 l/m 19,7 km/h (3 Bft) S-SW 213 0 min 0,000 mm 0,0 UV-I 0 W/m 7,5 C 3,9 C 27,4 km/h (4 Bft) 95,45 %
14.09.2017 19:30 10,4 C 16,7 C 82 % 1013,2 hPa 0,0 l/m 20,6 km/h (4 Bft) SW 217 0 min 0,000 mm 0,0 UV-I 0 W/m 7,5 C 3,6 C 30,6 km/h (5 Bft) 86,67 %
14.09.2017 19:31 10,4 C 16,7 C 82 % 1013,1 hPa 0,0 l/m 15,8 km/h (3 Bft) S 189 0 min 0,000 mm 0,0 UV-I 0 W/m 7,5 C 5,3 C 20,9 km/h (4 Bft) 100,00 %
14.09.2017 19:32 10,4 C 16,7 C 82 % 1013,1 hPa 0,0 l/m 24,4 km/h (4 Bft) S 184 0 min 0,000 mm 0,0 UV-I 0 W/m 7,5 C 2,5 C 33,8 km/h (5 Bft) 96,30 %
14.09.2017 19:33 10,4 C 16,7 C 82 % 1013,2 hPa 0,0 l/m 17,4 km/h (3 Bft) S-SW 192 0 min 0,000 mm 0,0 UV-I 0 W/m 7,5 C 4,7 C 29,0 km/h (5 Bft) 100,00 %
14.09.2017 19:34 10,4 C 16,7 C 82 % 1013,2 hPa 0,0 l/m 19,7 km/h (3 Bft) S-SW 209 0 min 0,000 mm 0,0 UV-I 0 W/m 7,5 C 3,9 C 33,8 km/h (5 Bft) 96,30 %
14.09.2017 19:35 10,4 C 16,7 C 82 % 1013,2 hPa 0,0 l/m 8,9 km/h (2 Bft) S-SW 207 0 min 0,000 mm 0,0 UV-I 0 W/m 7,5 C 8,7 C 17,7 km/h (3 Bft) 96,15 %
14.09.2017 19:36 10,4 C 16,7 C 82 % 1013,3 hPa 0,0 l/m 11,1 km/h (2 Bft) S 185 0 min 0,000 mm 0,0 UV-I 0 W/m 7,5 C 7,4 C 20,9 km/h (4 Bft) 100,00 %
14.09.2017 19:37 10,4 C 16,7 C 83 % 1013,3 hPa 0,0 l/m 12,5 km/h (3 Bft) S-SW 213 0 min 0,000 mm 0,0 UV-I 0 W/m 7,6 C 6,7 C 16,1 km/h (3 Bft) 94,74 %
14.09.2017 19:38 10,4 C 16,7 C 83 % 1013,3 hPa 0,0 l/m 14,3 km/h (3 Bft) S-SW 197 0 min 0,000 mm 0,0 UV-I 0 W/m 7,6 C 5,9 C 25,7 km/h (4 Bft) 96,30 %
14.09.2017 19:39 10,4 C 16,7 C 83 % 1013,3 hPa 0,0 l/m 11,1 km/h (2 Bft) S-SO 167 0 min 0,000 mm 0,0 UV-I 0 W/m 7,6 C 7,4 C 17,7 km/h (3 Bft) 98,10 %
14.09.2017 19:40 10,4 C 16,7 C 83 % 1013,4 hPa 0,0 l/m 14,1 km/h (3 Bft) S 190 0 min 0,000 mm 0,0 UV-I 0 W/m 7,6 C 6,0 C 17,7 km/h (3 Bft) 97,56 %
14.09.2017 19:41 10,3 C 16,7 C 83 % 1013,3 hPa 0,0 l/m 15,4 km/h (3 Bft) S-SO 165 0 min 0,000 mm 0,0 UV-I 0 W/m 7,5 C 5,3 C 25,7 km/h (4 Bft) 96,15 %
14.09.2017 19:42 10,3 C 16,7 C 83 % 1013,4 hPa 0,0 l/m 12,7 km/h (3 Bft) S-SW 195 0 min 0,000 mm 0,0 UV-I 0 W/m 7,5 C 6,5 C 22,5 km/h (4 Bft) 93,33 %
14.09.2017 19:43 10,3 C 16,7 C 83 % 1013,5 hPa 0,0 l/m 8,7 km/h (2 Bft) S 185 0 min 0,000 mm 0,0 UV-I 0 W/m 7,5 C 8,7 C 14,5 km/h (3 Bft) 96,30 %
14.09.2017 19:44 10,3 C 16,7 C 83 % 1013,5 hPa 0,0 l/m 12,4 km/h (3 Bft) SW 227 0 min 0,000 mm 0,0 UV-I 0 W/m 7,5 C 6,7 C 19,3 km/h (3 Bft) 96,15 %
14.09.2017 19:45 10,3 C 16,7 C 82 % 1013,5 hPa 0,0 l/m 6,8 km/h (2 Bft) S-SW 199 0 min 0,000 mm 0,0 UV-I 0 W/m 7,4 C 10,0 C 11,3 km/h (2 Bft) 93,10 %
14.09.2017 19:46 10,3 C 16,7 C 83 % 1013,4 hPa 0,0 l/m 8,0 km/h (2 Bft) S-SW 208 0 min 0,000 mm 0,0 UV-I 0 W/m 7,5 C 9,2 C 16,1 km/h (3 Bft) 100,00 %
14.09.2017 19:47 10,3 C 16,7 C 83 % 1013,4 hPa 0,0 l/m 14,4 km/h (3 Bft) S-SW 209 0 min 0,000 mm 0,0 UV-I 0 W/m 7,5 C 5,8 C 22,5 km/h (4 Bft) 92,59 %
14.09.2017 19:48 10,3 C 16,7 C 83 % 1013,3 hPa 0,0 l/m 10,9 km/h (2 Bft) S-SW 206 0 min 0,000 mm 0,0 UV-I 0 W/m 7,5 C 7,4 C 17,7 km/h (3 Bft) 93,10 %
14.09.2017 19:49 10,4 C 16,7 C 83 % 1013,3 hPa 0,0 l/m 11,2 km/h (2 Bft) S 188 0 min 0,000 mm 0,0 UV-I 0 W/m 7,6 C 7,4 C 17,7 km/h (3 Bft) 86,67 %
14.09.2017 19:50 10,3 C 16,7 C 83 % 1013,3 hPa 0,0 l/m 15,4 km/h (3 Bft) W-SW 247 0 min 0,000 mm 0,0 UV-I 0 W/m 7,5 C 5,3 C 19,3 km/h (3 Bft) 96,55 %
14.09.2017 19:51 10,4 C 16,7 C 83 % 1013,4 hPa 0,0 l/m 15,2 km/h (3 Bft) W-SW 244 0 min 0,000 mm 0,0 UV-I 0 W/m 7,6 C 5,5 C 22,5 km/h (4 Bft) 95,83 %
14.09.2017 19:52 10,3 C 16,7 C 83 % 1013,3 hPa 0,0 l/m 8,0 km/h (2 Bft) S 180 0 min 0,000 mm 0,0 UV-I 0 W/m 7,5 C 9,2 C 19,3 km/h (3 Bft) 95,65 %
14.09.2017 19:53 10,4 C 16,7 C 83 % 1013,3 hPa 0,0 l/m 10,9 km/h (2 Bft) S 188 0 min 0,000 mm 0,0 UV-I 0 W/m 7,6 C 7,5 C 20,9 km/h (4 Bft) 96,30 %
14.09.2017 19:54 10,3 C 16,7 C 83 % 1013,3 hPa 0,0 l/m 12,1 km/h (2 Bft) SW 228 0 min 0,000 mm 0,0 UV-I 0 W/m 7,5 C 6,8 C 19,3 km/h (3 Bft) 91,30 %
14.09.2017 19:55 10,4 C 16,7 C 83 % 1013,3 hPa 0,0 l/m 15,1 km/h (3 Bft) S-SW 192 0 min 0,000 mm 0,0 UV-I 0 W/m 7,6 C 5,6 C 20,9 km/h (4 Bft) 100,00 %
14.09.2017 19:56 10,4 C 16,7 C 83 % 1013,2 hPa 0,0 l/m 15,0 km/h (3 Bft) SW 220 0 min 0,000 mm 0,0 UV-I 0 W/m 7,6 C 5,6 C 22,5 km/h (4 Bft) 86,96 %
14.09.2017 19:57 10,4 C 16,7 C 83 % 1013,3 hPa 0,0 l/m 15,4 km/h (3 Bft) SW 225 0 min 0,000 mm 0,0 UV-I 0 W/m 7,6 C 5,5 C 25,7 km/h (4 Bft) 100,00 %
14.09.2017 19:58 10,4 C 16,7 C 83 % 1013,2 hPa 0,0 l/m 19,0 km/h (3 Bft) SW 217 0 min 0,000 mm 0,0 UV-I 0 W/m 7,6 C 4,1 C 24,1 km/h (4 Bft) 96,15 %
14.09.2017 19:59 10,3 C 16,7 C 83 % 1013,3 hPa 0,0 l/m 13,2 km/h (3 Bft) SW 214 0 min 0,000 mm 0,0 UV-I 0 W/m 7,5 C 6,3 C 16,1 km/h (3 Bft) 100,00 %
14.09.2017 20:00 10,4 C 16,7 C 83 % 1013,4 hPa 0,0 l/m 15,7 km/h (3 Bft) W-SW 242 0 min 0,000 mm 0,0 UV-I 0 W/m 7,6 C 5,3 C 20,9 km/h (4 Bft) 96,15 %
14.09.2017 20:01 10,4 C 16,7 C 83 % 1013,4 hPa 0,0 l/m 19,3 km/h (3 Bft) SW 217 0 min 0,025 mm 0,0 UV-I 0 W/m 7,6 C 4,0 C 27,4 km/h (4 Bft) 100,00 %
14.09.2017 20:02 10,4 C 16,7 C 83 % 1013,4 hPa 0,0 l/m 19,5 km/h (3 Bft) S-SW 210 0 min 0,000 mm 0,0 UV-I 0 W/m 7,6 C 4,0 C 25,7 km/h (4 Bft) 92,31 %
14.09.2017 20:03 10,4 C 16,7 C 83 % 1013,4 hPa 0,0 l/m 15,6 km/h (3 Bft) SW 216 0 min 0,000 mm 0,0 UV-I 0 W/m 7,6 C 5,4 C 24,1 km/h (4 Bft) 95,83 %
14.09.2017 20:04 10,4 C 16,7 C 83 % 1013,5 hPa 0,0 l/m 18,3 km/h (3 Bft) SW 226 0 min 0,000 mm 0,0 UV-I 0 W/m 7,6 C 4,4 C 27,4 km/h (4 Bft) 100,00 %
14.09.2017 20:05 10,4 C 16,7 C 83 % 1013,5 hPa 0,0 l/m 17,8 km/h (3 Bft) S-SW 206 0 min 0,000 mm 0,0 UV-I 0 W/m 7,6 C 4,5 C 24,1 km/h (4 Bft) 96,55 %
14.09.2017 20:06 10,4 C 16,7 C 83 % 1013,5 hPa 0,0 l/m 17,6 km/h (3 Bft) SW 221 0 min 0,000 mm 0,0 UV-I 0 W/m 7,6 C 4,6 C 24,1 km/h (4 Bft) 100,00 %
14.09.2017 20:07 10,4 C 16,7 C 83 % 1013,5 hPa 0,0 l/m 19,2 km/h (3 Bft) S-SW 207 0 min 0,000 mm 0,0 UV-I 0 W/m 7,6 C 4,1 C 29,0 km/h (5 Bft) 96,15 %
14.09.2017 20:08 10,4 C 16,7 C 83 % 1013,5 hPa 0,0 l/m 19,9 km/h (4 Bft) SW 225 0 min 0,000 mm 0,0 UV-I 0 W/m 7,6 C 3,8 C 27,4 km/h (4 Bft) 95,83 %
14.09.2017 20:09 10,4 C 16,7 C 83 % 1013,5 hPa 0,0 l/m 17,0 km/h (3 Bft) S 174 0 min 0,000 mm 0,0 UV-I 0 W/m 7,6 C 4,8 C 24,1 km/h (4 Bft) 85,71 %
14.09.2017 20:10 10,4 C 16,7 C 83 % 1013,5 hPa 0,0 l/m 14,7 km/h (3 Bft) S-SW 196 0 min 0,000 mm 0,0 UV-I 0 W/m 7,6 C 5,7 C 25,7 km/h (4 Bft) 100,00 %
14.09.2017 20:11 10,4 C 16,7 C 83 % 1013,6 hPa 0,0 l/m 14,3 km/h (3 Bft) S-SW 202 0 min 0,000 mm 0,0 UV-I 0 W/m 7,6 C 5,9 C 22,5 km/h (4 Bft) 95,65 %
14.09.2017 20:12 10,4 C 16,7 C 83 % 1013,6 hPa 0,0 l/m 21,6 km/h (4 Bft) SW 227 0 min 0,000 mm 0,0 UV-I 0 W/m 7,6 C 3,3 C 30,6 km/h (5 Bft) 100,00 %
14.09.2017 20:13 10,4 C 16,7 C 83 % 1013,6 hPa 0,0 l/m 17,8 km/h (3 Bft) SW 217 0 min 0,000 mm 0,0 UV-I 0 W/m 7,6 C 4,5 C 27,4 km/h (4 Bft) 96,43 %
14.09.2017 20:14 10,4 C 16,7 C 83 % 1013,7 hPa 0,0 l/m 17,6 km/h (3 Bft) W-SW 248 0 min 0,000 mm 0,0 UV-I 0 W/m 7,6 C 4,6 C 24,1 km/h (4 Bft) 96,30 %
14.09.2017 20:15 10,4 C 16,7 C 83 % 1013,8 hPa 0,0 l/m 17,4 km/h (3 Bft) S-SW 192 0 min 0,000 mm 0,0 UV-I 0 W/m 7,6 C 4,7 C 25,7 km/h (4 Bft) 100,00 %
14.09.2017 20:16 10,4 C 16,7 C 83 % 1013,8 hPa 0,0 l/m 21,5 km/h (4 Bft) SW 236 0 min 0,000 mm 0,0 UV-I 0 W/m 7,6 C 3,3 C 27,4 km/h (4 Bft) 93,33 %
14.09.2017 20:17 10,4 C 16,7 C 83 % 1013,9 hPa 0,0 l/m 19,3 km/h (3 Bft) S-SW 197 0 min 0,000 mm 0,0 UV-I 0 W/m 7,6 C 4,0 C 27,4 km/h (4 Bft) 96,67 %
14.09.2017 20:18 10,4 C 16,7 C 83 % 1013,8 hPa 0,0 l/m 20,5 km/h (4 Bft) S-SW 196 0 min 0,000 mm 0,0 UV-I 0 W/m 7,6 C 3,6 C 35,4 km/h (5 Bft) 100,00 %
14.09.2017 20:19 10,4 C 16,7 C 83 % 1013,8 hPa 0,0 l/m 17,9 km/h (3 Bft) SW 224 0 min 0,000 mm 0,0 UV-I 0 W/m 7,6 C 4,5 C 27,4 km/h (4 Bft) 100,00 %
14.09.2017 20:20 10,4 C 16,7 C 83 % 1013,9 hPa 0,0 l/m 20,0 km/h (4 Bft) SW 220 0 min 0,000 mm 0,0 UV-I 0 W/m 7,6 C 3,8 C 33,8 km/h (5 Bft) 100,00 %
14.09.2017 20:21 10,4 C 16,7 C 83 % 1013,9 hPa 0,2 l/m 22,9 km/h (4 Bft) W-SW 242 0 min 0,000 mm 0,0 UV-I 0 W/m 7,6 C 2,9 C 29,0 km/h (5 Bft) 96,15 %
14.09.2017 20:22 10,4 C 16,7 C 83 % 1013,9 hPa 0,0 l/m 20,2 km/h (4 Bft) W-SW 246 0 min 0,000 mm 0,0 UV-I 0 W/m 7,6 C 3,7 C 32,2 km/h (5 Bft) 95,83 %
14.09.2017 20:23 10,4 C 16,7 C 83 % 1013,9 hPa 0,0 l/m 24,1 km/h (4 Bft) SW 232 0 min 0,000 mm 0,0 UV-I 0 W/m 7,6 C 2,6 C 35,4 km/h (5 Bft) 100,00 %
14.09.2017 20:24 10,4 C 16,7 C 83 % 1013,8 hPa 0,0 l/m 23,1 km/h (4 Bft) SW 219 0 min 0,000 mm 0,0 UV-I 0 W/m 7,6 C 2,9 C 32,2 km/h (5 Bft) 100,00 %
14.09.2017 20:25 10,4 C 16,7 C 82 % 1013,8 hPa 0,0 l/m 27,2 km/h (4 Bft) SW 214 0 min 0,000 mm 0,0 UV-I 0 W/m 7,5 C 1,8 C 41,8 km/h (6 Bft) 100,00 %
14.09.2017 20:26 10,4 C 16,7 C 82 % 1013,8 hPa 0,0 l/m 21,3 km/h (4 Bft) SW 225 0 min 0,000 mm 0,0 UV-I 0 W/m 7,5 C 3,4 C 33,8 km/h (5 Bft) 100,00 %
14.09.2017 20:27 10,4 C 16,7 C 82 % 1013,8 hPa 0,0 l/m 15,7 km/h (3 Bft) SW 236 0 min 0,000 mm 0,0 UV-I 0 W/m 7,5 C 5,3 C 22,5 km/h (4 Bft) 100,00 %
14.09.2017 20:28 10,4 C 16,7 C 82 % 1013,9 hPa 0,0 l/m 16,3 km/h (3 Bft) W-SW 243 0 min 0,000 mm 0,0 UV-I 0 W/m 7,5 C 5,1 C 22,5 km/h (4 Bft) 100,00 %
14.09.2017 20:29 10,4 C 16,7 C 82 % 1013,9 hPa 0,0 l/m 20,8 km/h (4 Bft) W-SW 241 0 min 0,000 mm 0,0 UV-I 0 W/m 7,5 C 3,6 C 29,0 km/h (5 Bft) 100,00 %
14.09.2017 20:30 10,4 C 16,7 C 82 % 1013,8 hPa 0,0 l/m 20,1 km/h (4 Bft) SW 229 0 min 0,000 mm 0,0 UV-I 0 W/m 7,5 C 3,8 C 27,4 km/h (4 Bft) 100,00 %
14.09.2017 20:31 10,4 C 16,7 C 82 % 1013,9 hPa 0,0 l/m 15,6 km/h (3 Bft) SW 233 0 min 0,000 mm 0,0 UV-I 0 W/m 7,5 C 5,4 C 22,5 km/h (4 Bft) 100,00 %
14.09.2017 20:32 10,4 C 16,7 C 82 % 1013,9 hPa 0,0 l/m 19,5 km/h (3 Bft) SW 234 0 min 0,000 mm 0,0 UV-I 0 W/m 7,5 C 4,0 C 30,6 km/h (5 Bft) 100,00 %
14.09.2017 20:33 10,4 C 16,7 C 82 % 1013,9 hPa 0,0 l/m 17,7 km/h (3 Bft) W-SW 250 0 min 0,000 mm 0,0 UV-I 0 W/m 7,5 C 4,6 C 25,7 km/h (4 Bft) 100,00 %
14.09.2017 20:34 10,4 C 16,7 C 82 % 1014,0 hPa 0,0 l/m 19,2 km/h (3 Bft) W-SW 248 0 min 0,000 mm 0,0 UV-I 0 W/m 7,5 C 4,1 C 25,7 km/h (4 Bft) 100,00 %
14.09.2017 20:35 10,4 C 16,7 C 82 % 1014,0 hPa 0,0 l/m 15,9 km/h (3 Bft) W-SW 253 0 min 0,000 mm 0,0 UV-I 0 W/m 7,5 C 5,3 C 24,1 km/h (4 Bft) 100,00 %
14.09.2017 20:36 10,4 C 16,7 C 82 % 1014,0 hPa 0,0 l/m 13,8 km/h (3 Bft) SW 235 0 min 0,000 mm 0,0 UV-I 0 W/m 7,5 C 6,1 C 20,9 km/h (4 Bft) 100,00 %
14.09.2017 20:37 10,4 C 16,7 C 83 % 1014,0 hPa 0,0 l/m 20,4 km/h (4 Bft) W-SW 240 0 min 0,000 mm 0,0 UV-I 0 W/m 7,6 C 3,7 C 27,4 km/h (4 Bft) 100,00 %
14.09.2017 20:38 10,4 C 16,7 C 83 % 1013,9 hPa 0,0 l/m 20,4 km/h (4 Bft) SW 232 0 min 0,000 mm 0,0 UV-I 0 W/m 7,6 C 3,7 C 30,6 km/h (5 Bft) 95,65 %
14.09.2017 20:39 10,4 C 16,7 C 82 % 1014,0 hPa 0,0 l/m 18,7 km/h (3 Bft) W-SW 239 0 min 0,000 mm 0,0 UV-I 0 W/m 7,5 C 4,2 C 27,4 km/h (4 Bft) 100,00 %
14.09.2017 20:40 10,4 C 16,7 C 83 % 1013,9 hPa 0,0 l/m 23,7 km/h (4 Bft) S-SW 211 0 min 0,000 mm 0,0 UV-I 0 W/m 7,6 C 2,7 C 30,6 km/h (5 Bft) 98,05 %
14.09.2017 20:41 10,4 C 16,7 C 83 % 1013,9 hPa 0,0 l/m 18,5 km/h (3 Bft) SW 221 0 min 0,000 mm 0,0 UV-I 0 W/m 7,6 C 4,3 C 29,0 km/h (5 Bft) 100,00 %
14.09.2017 20:42 10,4 C 16,7 C 83 % 1013,9 hPa 0,0 l/m 18,1 km/h (3 Bft) SW 218 0 min 0,000 mm 0,0 UV-I 0 W/m 7,6 C 4,4 C 27,4 km/h (4 Bft) 100,00 %
14.09.2017 20:43 10,4 C 16,7 C 83 % 1013,9 hPa 0,0 l/m 16,1 km/h (3 Bft) W 262 0 min 0,000 mm 0,0 UV-I 0 W/m 7,6 C 5,2 C 20,9 km/h (4 Bft) 100,00 %
14.09.2017 20:44 10,4 C 16,7 C 83 % 1013,9 hPa 0,0 l/m 19,9 km/h (4 Bft) W 261 0 min 0,000 mm 0,0 UV-I 0 W/m 7,6 C 3,8 C 27,4 km/h (4 Bft) 100,00 %
14.09.2017 20:45 10,4 C 16,7 C 82 % 1013,9 hPa 0,2 l/m 19,6 km/h (3 Bft) SW 218 0 min 0,000 mm 0,0 UV-I 0 W/m 7,5 C 3,9 C 24,1 km/h (4 Bft) 95,65 %
14.09.2017 20:47 10,4 C 16,7 C 83 % 1013,7 hPa 0,0 l/m 21,5 km/h (4 Bft) W-SW 244 0 min 0,000 mm 0,0 UV-I 0 W/m 7,6 C 3,3 C 32,2 km/h (5 Bft) 98,31 %
14.09.2017 20:48 10,4 C 16,7 C 82 % 1013,7 hPa 0,0 l/m 15,6 km/h (3 Bft) SW 234 0 min 0,000 mm 0,0 UV-I 0 W/m 7,5 C 5,4 C 20,9 km/h (4 Bft) 98,06 %
14.09.2017 20:49 10,4 C 16,7 C 82 % 1013,8 hPa 0,0 l/m 18,0 km/h (3 Bft) S-SW 213 0 min 0,000 mm 0,0 UV-I 0 W/m 7,5 C 4,5 C 24,1 km/h (4 Bft) 97,56 %
14.09.2017 20:50 10,4 C 16,7 C 82 % 1013,8 hPa 0,0 l/m 18,6 km/h (3 Bft) W-SW 244 0 min 0,000 mm 0,0 UV-I 0 W/m 7,5 C 4,3 C 24,1 km/h (4 Bft) 100,00 %
14.09.2017 20:51 10,4 C 16,7 C 82 % 1013,7 hPa 0,0 l/m 17,8 km/h (3 Bft) SW 227 0 min 0,000 mm 0,0 UV-I 0 W/m 7,5 C 4,5 C 27,4 km/h (4 Bft) 95,65 %
14.09.2017 20:52 10,4 C 16,7 C 82 % 1013,7 hPa 0,0 l/m 17,5 km/h (3 Bft) S-SW 208 0 min 0,000 mm 0,0 UV-I 0 W/m 7,5 C 4,7 C 24,1 km/h (4 Bft) 100,00 %
14.09.2017 20:53 10,4 C 16,7 C 82 % 1013,7 hPa 0,0 l/m 16,8 km/h (3 Bft) W-SW 246 0 min 0,000 mm 0,0 UV-I 0 W/m 7,5 C 4,9 C 25,7 km/h (4 Bft) 100,00 %
14.09.2017 20:54 10,4 C 16,7 C 82 % 1013,6 hPa 0,0 l/m 19,8 km/h (3 Bft) S-SW 205 0 min 0,000 mm 0,0 UV-I 0 W/m 7,5 C 3,9 C 29,0 km/h (5 Bft) 100,00 %
14.09.2017 20:55 10,4 C 16,7 C 82 % 1013,5 hPa 0,0 l/m 17,2 km/h (3 Bft) S-SW 209 0 min 0,000 mm 0,0 UV-I 0 W/m 7,5 C 4,8 C 27,4 km/h (4 Bft) 100,00 %
14.09.2017 20:56 10,4 C 16,7 C 82 % 1013,5 hPa 0,0 l/m 19,2 km/h (3 Bft) S-SW 205 0 min 0,000 mm 0,0 UV-I 0 W/m 7,5 C 4,1 C 27,4 km/h (4 Bft) 100,00 %
14.09.2017 20:57 10,4 C 16,7 C 82 % 1013,6 hPa 0,0 l/m 15,2 km/h (3 Bft) W-SW 246 0 min 0,000 mm 0,0 UV-I 0 W/m 7,5 C 5,5 C 25,7 km/h (4 Bft) 95,65 %
14.09.2017 20:58 10,4 C 16,7 C 82 % 1013,6 hPa 0,0 l/m 19,1 km/h (3 Bft) W-SW 239 0 min 0,000 mm 0,0 UV-I 0 W/m 7,5 C 4,1 C 25,7 km/h (4 Bft) 98,06 %
14.09.2017 20:59 10,4 C 16,7 C 82 % 1013,6 hPa 0,0 l/m 17,4 km/h (3 Bft) SW 215 0 min 0,000 mm 0,0 UV-I 0 W/m 7,5 C 4,7 C 22,5 km/h (4 Bft) 100,00 %
14.09.2017 21:00 10,4 C 16,7 C 82 % 1013,7 hPa 0,0 l/m 15,2 km/h (3 Bft) W-SW 254 0 min 0,000 mm 0,0 UV-I 0 W/m 7,5 C 5,5 C 22,5 km/h (4 Bft) 100,00 %
14.09.2017 21:01 10,4 C 16,7 C 82 % 1013,6 hPa 0,0 l/m 19,4 km/h (3 Bft) S-SW 205 0 min 0,026 mm 0,0 UV-I 0 W/m 7,5 C 4,0 C 24,1 km/h (4 Bft) 96,30 %
14.09.2017 21:02 10,4 C 16,7 C 82 % 1013,6 hPa 0,0 l/m 15,4 km/h (3 Bft) SW 229 0 min 0,000 mm 0,0 UV-I 0 W/m 7,5 C 5,5 C 20,9 km/h (4 Bft) 100,00 %
14.09.2017 21:03 10,4 C 16,7 C 82 % 1013,6 hPa 0,0 l/m 15,7 km/h (3 Bft) S-SW 208 0 min 0,000 mm 0,0 UV-I 0 W/m 7,5 C 5,3 C 22,5 km/h (4 Bft) 100,00 %
14.09.2017 21:04 10,4 C 16,7 C 82 % 1013,7 hPa 0,0 l/m 16,2 km/h (3 Bft) W-SW 250 0 min 0,000 mm 0,0 UV-I 0 W/m 7,5 C 5,1 C 22,5 km/h (4 Bft) 100,00 %
14.09.2017 21:05 10,4 C 16,7 C 82 % 1013,7 hPa 0,0 l/m 13,1 km/h (3 Bft) SW 218 0 min 0,000 mm 0,0 UV-I 0 W/m 7,5 C 6,4 C 25,7 km/h (4 Bft) 100,00 %
14.09.2017 21:06 10,4 C 16,7 C 82 % 1013,7 hPa 0,0 l/m 15,6 km/h (3 Bft) W 259 0 min 0,000 mm 0,0 UV-I 0 W/m 7,5 C 5,4 C 22,5 km/h (4 Bft) 96,15 %
14.09.2017 21:07 10,4 C 16,7 C 82 % 1013,7 hPa 0,0 l/m 21,1 km/h (4 Bft) SW 214 0 min 0,000 mm 0,0 UV-I 0 W/m 7,5 C 3,5 C 25,7 km/h (4 Bft) 95,83 %
14.09.2017 21:08 10,4 C 16,7 C 82 % 1013,8 hPa 0,0 l/m 12,9 km/h (3 Bft) S-SW 207 0 min 0,000 mm 0,0 UV-I 0 W/m 7,5 C 6,5 C 20,9 km/h (4 Bft) 100,00 %
14.09.2017 21:09 10,4 C 16,7 C 82 % 1013,9 hPa 0,0 l/m 9,7 km/h (2 Bft) SW 226 0 min 0,000 mm 0,0 UV-I 0 W/m 7,5 C 8,2 C 14,5 km/h (3 Bft) 100,00 %
14.09.2017 21:10 10,4 C 16,7 C 82 % 1013,9 hPa 0,0 l/m 17,5 km/h (3 Bft) S-SW 194 0 min 0,000 mm 0,0 UV-I 0 W/m 7,5 C 4,7 C 29,0 km/h (5 Bft) 100,00 %
14.09.2017 21:11 10,4 C 16,7 C 82 % 1013,9 hPa 0,0 l/m 20,5 km/h (4 Bft) S-SW 207 0 min 0,000 mm 0,0 UV-I 0 W/m 7,5 C 3,6 C 32,2 km/h (5 Bft) 100,00 %
14.09.2017 21:12 10,4 C 16,7 C 82 % 1014,0 hPa 0,0 l/m 18,0 km/h (3 Bft) SW 231 0 min 0,000 mm 0,0 UV-I 0 W/m 7,5 C 4,5 C 30,6 km/h (5 Bft) 100,00 %
14.09.2017 21:13 10,4 C 16,7 C 82 % 1014,0 hPa 0,0 l/m 17,3 km/h (3 Bft) W-SW 252 0 min 0,000 mm 0,0 UV-I 0 W/m 7,5 C 4,7 C 27,4 km/h (4 Bft) 100,00 %
14.09.2017 21:14 10,5 C 16,7 C 82 % 1014,0 hPa 0,0 l/m 12,8 km/h (3 Bft) S-SW 192 0 min 0,000 mm 0,0 UV-I 0 W/m 7,6 C 6,7 C 17,7 km/h (3 Bft) 100,00 %
14.09.2017 21:15 10,4 C 16,7 C 82 % 1014,0 hPa 0,0 l/m 17,2 km/h (3 Bft) S-SW 211 0 min 0,000 mm 0,0 UV-I 0 W/m 7,5 C 4,8 C 22,5 km/h (4 Bft) 100,00 %
14.09.2017 21:16 10,4 C 16,7 C 82 % 1013,9 hPa 0,0 l/m 18,1 km/h (3 Bft) SW 229 0 min 0,000 mm 0,0 UV-I 0 W/m 7,5 C 4,4 C 24,1 km/h (4 Bft) 100,00 %
14.09.2017 21:17 10,5 C 16,7 C 82 % 1014,0 hPa 0,0 l/m 18,6 km/h (3 Bft) SW 223 0 min 0,000 mm 0,0 UV-I 0 W/m 7,6 C 4,4 C 27,4 km/h (4 Bft) 100,00 %
14.09.2017 21:18 10,5 C 16,7 C 82 % 1014,0 hPa 0,0 l/m 14,9 km/h (3 Bft) W-SW 245 0 min 0,000 mm 0,0 UV-I 0 W/m 7,6 C 5,8 C 24,1 km/h (4 Bft) 100,00 %
14.09.2017 21:19 10,5 C 16,7 C 82 % 1013,9 hPa 0,0 l/m 13,3 km/h (3 Bft) SW 218 0 min 0,000 mm 0,0 UV-I 0 W/m 7,6 C 6,5 C 17,7 km/h (3 Bft) 100,00 %
14.09.2017 21:20 10,5 C 16,7 C 82 % 1013,9 hPa 0,0 l/m 16,6 km/h (3 Bft) W-SW 249 0 min 0,000 mm 0,0 UV-I 0 W/m 7,6 C 5,1 C 22,5 km/h (4 Bft) 100,00 %
14.09.2017 21:21 10,5 C 16,7 C 82 % 1013,9 hPa 0,0 l/m 15,5 km/h (3 Bft) SW 229 0 min 0,000 mm 0,0 UV-I 0 W/m 7,6 C 5,5 C 27,4 km/h (4 Bft) 100,00 %
14.09.2017 21:22 10,5 C 16,7 C 82 % 1013,9 hPa 0,0 l/m 18,8 km/h (3 Bft) W-SW 251 0 min 0,000 mm 0,0 UV-I 0 W/m 7,6 C 4,3 C 30,6 km/h (5 Bft) 95,65 %
14.09.2017 21:23 10,5 C 16,7 C 82 % 1013,8 hPa 0,0 l/m 14,9 km/h (3 Bft) SW 217 0 min 0,000 mm 0,0 UV-I 0 W/m 7,6 C 5,8 C 22,5 km/h (4 Bft) 100,00 %
14.09.2017 21:24 10,5 C 16,7 C 82 % 1013,8 hPa 0,0 l/m 14,7 km/h (3 Bft) S-SO 161 0 min 0,000 mm 0,0 UV-I 0 W/m 7,6 C 5,9 C 20,9 km/h (4 Bft) 100,00 %
14.09.2017 21:25 10,5 C 16,7 C 82 % 1013,8 hPa 0,0 l/m 13,4 km/h (3 Bft) S 190 0 min 0,000 mm 0,0 UV-I 0 W/m 7,6 C 6,4 C 20,9 km/h (4 Bft) 100,00 %
14.09.2017 21:26 10,5 C 16,7 C 82 % 1013,8 hPa 0,0 l/m 12,7 km/h (3 Bft) W-SW 250 0 min 0,000 mm 0,0 UV-I 0 W/m 7,6 C 6,8 C 19,3 km/h (3 Bft) 100,00 %
14.09.2017 21:27 10,5 C 16,7 C 82 % 1013,7 hPa 0,0 l/m 11,8 km/h (2 Bft) S-SW 211 0 min 0,000 mm 0,0 UV-I 0 W/m 7,6 C 7,2 C 14,5 km/h (3 Bft) 100,00 %
14.09.2017 21:28 10,5 C 16,7 C 82 % 1013,7 hPa 0,0 l/m 10,5 km/h (2 Bft) S-SW 211 0 min 0,000 mm 0,0 UV-I 0 W/m 7,6 C 7,9 C 12,9 km/h (3 Bft) 98,10 %
14.09.2017 21:29 10,5 C 16,7 C 82 % 1013,7 hPa 0,0 l/m 12,4 km/h (3 Bft) S 172 0 min 0,000 mm 0,0 UV-I 0 W/m 7,6 C 6,9 C 20,9 km/h (4 Bft) 100,00 %
14.09.2017 21:30 10,5 C 16,7 C 82 % 1013,7 hPa 0,0 l/m 14,2 km/h (3 Bft) S-SW 193 0 min 0,000 mm 0,0 UV-I 0 W/m 7,6 C 6,1 C 20,9 km/h (4 Bft) 100,00 %
14.09.2017 21:32 10,5 C 16,7 C 81 % 1013,8 hPa 0,0 l/m 13,0 km/h (3 Bft) W-SW 241 0 min 0,000 mm 0,0 UV-I 0 W/m 7,4 C 6,6 C 17,7 km/h (3 Bft) 100,00 %
14.09.2017 21:34 10,5 C 16,7 C 81 % 1013,9 hPa 0,0 l/m 10,4 km/h (2 Bft) SW 214 0 min 0,000 mm 0,0 UV-I 0 W/m 7,4 C 7,9 C 16,1 km/h (3 Bft) 100,00 %
14.09.2017 21:36 10,5 C 16,7 C 81 % 1013,7 hPa 0,0 l/m 11,7 km/h (2 Bft) S-SW 208 0 min 0,000 mm 0,0 UV-I 0 W/m 7,4 C 7,2 C 17,7 km/h (3 Bft) 100,00 %
14.09.2017 21:38 10,5 C 16,7 C 81 % 1013,6 hPa 0,0 l/m 9,7 km/h (2 Bft) W-SW 246 0 min 0,000 mm 0,0 UV-I 0 W/m 7,4 C 8,3 C 12,9 km/h (3 Bft) 94,74 %
14.09.2017 21:40 10,5 C 16,7 C 81 % 1013,6 hPa 0,0 l/m 11,6 km/h (2 Bft) W-SW 244 0 min 0,000 mm 0,0 UV-I 0 W/m 7,4 C 7,3 C 19,3 km/h (3 Bft) 100,00 %
14.09.2017 21:43 10,5 C 16,7 C 81 % 1013,7 hPa 0,0 l/m 10,0 km/h (2 Bft) SW 229 0 min 0,000 mm 0,0 UV-I 0 W/m 7,4 C 8,1 C 14,5 km/h (3 Bft) 100,00 %
14.09.2017 21:44 10,5 C 16,7 C 81 % 1013,7 hPa 0,0 l/m 7,1 km/h (2 Bft) W-SW 252 0 min 0,000 mm 0,0 UV-I 0 W/m 7,4 C 10,0 C 11,3 km/h (2 Bft) 100,00 %
14.09.2017 21:46 10,5 C 16,7 C 81 % 1013,7 hPa 0,0 l/m 9,1 km/h (2 Bft) W-SW 245 0 min 0,000 mm 0,0 UV-I 0 W/m 7,4 C 8,7 C 14,5 km/h (3 Bft) 98,11 %
14.09.2017 21:48 10,5 C 16,7 C 81 % 1013,7 hPa 0,0 l/m 10,0 km/h (2 Bft) S-SW 207 0 min 0,000 mm 0,0 UV-I 0 W/m 7,4 C 8,1 C 14,5 km/h (3 Bft) 98,11 %
14.09.2017 21:50 10,5 C 16,7 C 81 % 1013,8 hPa 0,0 l/m 11,3 km/h (2 Bft) SW 216 0 min 0,000 mm 0,0 UV-I 0 W/m 7,4 C 7,4 C 16,1 km/h (3 Bft) 97,30 %
14.09.2017 21:52 10,5 C 16,7 C 82 % 1013,9 hPa 0,0 l/m 9,1 km/h (2 Bft) S-SW 205 0 min 0,000 mm 0,0 UV-I 0 W/m 7,6 C 8,7 C 17,7 km/h (3 Bft) 97,87 %
14.09.2017 21:54 10,5 C 16,7 C 81 % 1014,0 hPa 0,0 l/m 10,1 km/h (2 Bft) S-SW 193 0 min 0,000 mm 0,0 UV-I 0 W/m 7,4 C 8,1 C 19,3 km/h (3 Bft) 96,43 %
14.09.2017 21:56 10,4 C 16,7 C 81 % 1014,0 hPa 0,0 l/m 12,0 km/h (2 Bft) SW 217 0 min 0,000 mm 0,0 UV-I 0 W/m 7,3 C 7,0 C 22,5 km/h (4 Bft) 100,00 %
14.09.2017 21:58 10,5 C 16,7 C 82 % 1014,2 hPa 0,0 l/m 12,2 km/h (2 Bft) S-SW 207 0 min 0,000 mm 0,0 UV-I 0 W/m 7,6 C 7,0 C 22,5 km/h (4 Bft) 94,34 %
14.09.2017 22:00 10,5 C 16,7 C 81 % 1014,2 hPa 0,0 l/m 12,7 km/h (3 Bft) SW 223 0 min 0,000 mm 0,0 UV-I 0 W/m 7,4 C 6,8 C 17,7 km/h (3 Bft) 97,56 %
14.09.2017 22:02 10,4 C 16,7 C 81 % 1014,2 hPa 0,0 l/m 13,1 km/h (3 Bft) SW 221 0 min 0,025 mm 0,0 UV-I 0 W/m 7,3 C 6,4 C 22,5 km/h (4 Bft) 97,92 %
14.09.2017 22:04 10,4 C 16,7 C 81 % 1014,3 hPa 0,0 l/m 10,9 km/h (2 Bft) S-SW 198 0 min 0,000 mm 0,0 UV-I 0 W/m 7,3 C 7,5 C 17,7 km/h (3 Bft) 97,87 %
14.09.2017 22:06 10,4 C 16,7 C 81 % 1014,3 hPa 0,0 l/m 12,8 km/h (3 Bft) SW 229 0 min 0,000 mm 0,0 UV-I 0 W/m 7,3 C 6,6 C 22,5 km/h (4 Bft) 98,11 %
14.09.2017 22:08 10,5 C 16,7 C 81 % 1014,3 hPa 0,0 l/m 11,0 km/h (2 Bft) S-SW 198 0 min 0,000 mm 0,0 UV-I 0 W/m 7,4 C 7,6 C 16,1 km/h (3 Bft) 97,56 %
14.09.2017 22:10 10,5 C 16,7 C 81 % 1014,2 hPa 0,0 l/m 9,2 km/h (2 Bft) S-SW 193 0 min 0,000 mm 0,0 UV-I 0 W/m 7,4 C 8,6 C 14,5 km/h (3 Bft) 98,00 %
14.09.2017 22:12 10,5 C 16,7 C 81 % 1014,2 hPa 0,0 l/m 11,4 km/h (2 Bft) S-SW 206 0 min 0,000 mm 0,0 UV-I 0 W/m 7,4 C 7,4 C 17,7 km/h (3 Bft) 94,00 %
14.09.2017 22:14 10,5 C 16,7 C 81 % 1014,1 hPa 0,0 l/m 10,6 km/h (2 Bft) W-SW 240 0 min 0,000 mm 0,0 UV-I 0 W/m 7,4 C 7,8 C 16,1 km/h (3 Bft) 100,00 %
14.09.2017 22:16 10,6 C 16,7 C 80 % 1014,1 hPa 0,0 l/m 12,2 km/h (2 Bft) W-SW 243 0 min 0,000 mm 0,0 UV-I 0 W/m 7,3 C 7,1 C 19,3 km/h (3 Bft) 96,61 %
14.09.2017 22:18 10,6 C 16,7 C 80 % 1014,2 hPa 0,0 l/m 11,3 km/h (2 Bft) SW 215 0 min 0,000 mm 0,0 UV-I 0 W/m 7,3 C 7,6 C 16,1 km/h (3 Bft) 97,37 %
14.09.2017 22:20 10,6 C 16,1 C 80 % 1014,3 hPa 0,0 l/m 10,6 km/h (2 Bft) S-SW 202 0 min 0,000 mm 0,0 UV-I 0 W/m 7,3 C 7,9 C 19,3 km/h (3 Bft) 97,73 %
14.09.2017 22:22 10,6 C 16,1 C 80 % 1014,2 hPa 0,0 l/m 11,4 km/h (2 Bft) SW 227 0 min 0,000 mm 0,0 UV-I 0 W/m 7,3 C 7,5 C 16,1 km/h (3 Bft) 98,00 %
14.09.2017 22:24 10,6 C 16,1 C 80 % 1014,3 hPa 0,0 l/m 10,9 km/h (2 Bft) SW 229 0 min 0,000 mm 0,0 UV-I 0 W/m 7,3 C 7,8 C 17,7 km/h (3 Bft) 97,56 %
14.09.2017 22:26 10,6 C 16,1 C 80 % 1014,3 hPa 0,0 l/m 10,3 km/h (2 Bft) SW 221 0 min 0,000 mm 0,0 UV-I 0 W/m 7,3 C 8,1 C 16,1 km/h (3 Bft) 100,00 %
14.09.2017 22:28 10,6 C 16,1 C 80 % 1014,3 hPa 0,0 l/m 11,6 km/h (2 Bft) S-SO 150 0 min 0,000 mm 0,0 UV-I 0 W/m 7,3 C 7,4 C 19,3 km/h (3 Bft) 100,00 %
14.09.2017 22:30 10,6 C 16,1 C 80 % 1014,3 hPa 0,0 l/m 11,9 km/h (2 Bft) SW 221 0 min 0,000 mm 0,0 UV-I 0 W/m 7,3 C 7,3 C 17,7 km/h (3 Bft) 96,23 %
14.09.2017 22:32 10,6 C 16,1 C 80 % 1014,3 hPa 0,0 l/m 7,3 km/h (2 Bft) SW 234 0 min 0,000 mm 0,0 UV-I 0 W/m 7,3 C 10,0 C 11,3 km/h (2 Bft) 100,00 %
14.09.2017 22:34 10,6 C 16,1 C 80 % 1014,3 hPa 0,0 l/m 9,7 km/h (2 Bft) W-SW 252 0 min 0,000 mm 0,0 UV-I 0 W/m 7,3 C 8,4 C 14,5 km/h (3 Bft) 96,23 %
14.09.2017 22:36 10,6 C 16,1 C 80 % 1014,2 hPa 0,0 l/m 11,9 km/h (2 Bft) S 189 0 min 0,000 mm 0,0 UV-I 0 W/m 7,3 C 7,3 C 19,3 km/h (3 Bft) 97,56 %
14.09.2017 22:38 10,6 C 16,1 C 80 % 1014,2 hPa 0,0 l/m 12,3 km/h (3 Bft) SW 229 0 min 0,000 mm 0,0 UV-I 0 W/m 7,3 C 7,1 C 16,1 km/h (3 Bft) 96,23 %
14.09.2017 22:40 10,6 C 16,1 C 80 % 1014,1 hPa 0,0 l/m 9,8 km/h (2 Bft) S-SW 192 0 min 0,000 mm 0,0 UV-I 0 W/m 7,3 C 8,4 C 14,5 km/h (3 Bft) 97,44 %
14.09.2017 22:42 10,6 C 16,1 C 80 % 1014,1 hPa 0,0 l/m 14,3 km/h (3 Bft) SW 227 0 min 0,000 mm 0,0 UV-I 0 W/m 7,3 C 6,2 C 20,9 km/h (4 Bft) 98,00 %
14.09.2017 22:44 10,6 C 16,1 C 80 % 1014,2 hPa 0,0 l/m 14,7 km/h (3 Bft) W-SW 243 0 min 0,000 mm 0,0 UV-I 0 W/m 7,3 C 6,0 C 20,9 km/h (4 Bft) 97,37 %
14.09.2017 22:46 10,6 C 16,1 C 80 % 1014,2 hPa 0,0 l/m 10,4 km/h (2 Bft) S-SW 210 0 min 0,000 mm 0,0 UV-I 0 W/m 7,3 C 8,0 C 19,3 km/h (3 Bft) 96,43 %
14.09.2017 22:48 10,6 C 16,1 C 80 % 1014,2 hPa 0,0 l/m 13,8 km/h (3 Bft) SW 223 0 min 0,000 mm 0,0 UV-I 0 W/m 7,3 C 6,4 C 22,5 km/h (4 Bft) 98,00 %
14.09.2017 22:50 10,6 C 16,1 C 80 % 1014,3 hPa 0,0 l/m 11,0 km/h (2 Bft) NW 313 0 min 0,000 mm 0,0 UV-I 0 W/m 7,3 C 7,7 C 17,7 km/h (3 Bft) 97,87 %
14.09.2017 22:52 10,6 C 16,1 C 80 % 1014,3 hPa 0,0 l/m 14,4 km/h (3 Bft) SW 215 0 min 0,000 mm 0,0 UV-I 0 W/m 7,3 C 6,1 C 24,1 km/h (4 Bft) 97,37 %
14.09.2017 22:54 10,7 C 16,1 C 79 % 1014,3 hPa 0,0 l/m 12,4 km/h (3 Bft) SW 230 0 min 0,000 mm 0,0 UV-I 0 W/m 7,2 C 7,1 C 25,7 km/h (4 Bft) 94,74 %
14.09.2017 22:56 10,7 C 16,1 C 79 % 1014,2 hPa 0,0 l/m 14,4 km/h (3 Bft) S-SW 212 0 min 0,000 mm 0,0 UV-I 0 W/m 7,2 C 6,2 C 24,1 km/h (4 Bft) 98,21 %
14.09.2017 22:58 10,7 C 16,1 C 79 % 1014,3 hPa 0,0 l/m 13,8 km/h (3 Bft) SW 214 0 min 0,000 mm 0,0 UV-I 0 W/m 7,2 C 6,5 C 22,5 km/h (4 Bft) 96,43 %
14.09.2017 23:00 10,7 C 16,1 C 79 % 1014,4 hPa 0,0 l/m 13,9 km/h (3 Bft) SW 223 0 min 0,000 mm 0,0 UV-I 0 W/m 7,2 C 6,4 C 25,7 km/h (4 Bft) 97,56 %
14.09.2017 23:02 10,7 C 16,1 C 79 % 1014,4 hPa 0,0 l/m 11,6 km/h (2 Bft) W-SW 249 0 min 0,025 mm 0,0 UV-I 0 W/m 7,2 C 7,5 C 17,7 km/h (3 Bft) 97,87 %
14.09.2017 23:04 10,8 C 16,1 C 79 % 1014,4 hPa 0,0 l/m 12,8 km/h (3 Bft) S-SW 207 0 min 0,000 mm 0,0 UV-I 0 W/m 7,3 C 7,1 C 19,3 km/h (3 Bft) 98,00 %
14.09.2017 23:06 10,8 C 16,1 C 78 % 1014,4 hPa 0,0 l/m 16,7 km/h (3 Bft) W 276 0 min 0,000 mm 0,0 UV-I 0 W/m 7,1 C 5,4 C 25,7 km/h (4 Bft) 98,00 %
14.09.2017 23:08 10,8 C 16,1 C 78 % 1014,4 hPa 0,0 l/m 17,6 km/h (3 Bft) S-SW 201 0 min 0,000 mm 0,0 UV-I 0 W/m 7,1 C 5,1 C 25,7 km/h (4 Bft) 95,12 %
14.09.2017 23:10 10,9 C 16,1 C 77 % 1014,4 hPa 0,0 l/m 14,8 km/h (3 Bft) S-SW 204 0 min 0,000 mm 0,0 UV-I 0 W/m 7,0 C 6,3 C 29,0 km/h (5 Bft) 98,00 %
14.09.2017 23:12 10,9 C 16,1 C 78 % 1014,4 hPa 0,0 l/m 16,4 km/h (3 Bft) W-SW 238 0 min 0,000 mm 0,0 UV-I 0 W/m 7,2 C 5,7 C 24,1 km/h (4 Bft) 97,73 %
14.09.2017 23:14 10,9 C 16,1 C 77 % 1014,5 hPa 0,0 l/m 17,5 km/h (3 Bft) SW 236 0 min 0,000 mm 0,0 UV-I 0 W/m 7,0 C 5,3 C 24,1 km/h (4 Bft) 97,56 %
14.09.2017 23:16 11,0 C 16,1 C 77 % 1014,5 hPa 0,0 l/m 14,3 km/h (3 Bft) W-SW 248 0 min 0,000 mm 0,0 UV-I 0 W/m 7,1 C 6,6 C 22,5 km/h (4 Bft) 98,00 %
14.09.2017 23:18 11,1 C 16,1 C 77 % 1014,5 hPa 0,0 l/m 14,4 km/h (3 Bft) SW 232 0 min 0,000 mm 0,0 UV-I 0 W/m 7,2 C 6,7 C 22,5 km/h (4 Bft) 98,00 %
14.09.2017 23:20 11,1 C 16,1 C 76 % 1014,5 hPa 0,0 l/m 16,2 km/h (3 Bft) W 259 0 min 0,000 mm 0,0 UV-I 0 W/m 7,0 C 6,0 C 29,0 km/h (5 Bft) 97,87 %
14.09.2017 23:22 11,1 C 16,1 C 76 % 1014,5 hPa 0,0 l/m 17,6 km/h (3 Bft) W 271 0 min 0,000 mm 0,0 UV-I 0 W/m 7,0 C 5,5 C 25,7 km/h (4 Bft) 95,56 %
14.09.2017 23:24 11,1 C 16,1 C 76 % 1014,5 hPa 0,0 l/m 18,4 km/h (3 Bft) W-SW 248 0 min 0,000 mm 0,0 UV-I 0 W/m 7,0 C 5,2 C 22,5 km/h (4 Bft) 100,00 %
14.09.2017 23:26 11,2 C 16,1 C 76 % 1014,6 hPa 0,0 l/m 14,7 km/h (3 Bft) W-SW 242 0 min 0,000 mm 0,0 UV-I 0 W/m 7,1 C 6,7 C 22,5 km/h (4 Bft) 96,61 %
14.09.2017 23:28 11,2 C 16,1 C 75 % 1014,6 hPa 0,0 l/m 14,6 km/h (3 Bft) W-SW 257 0 min 0,000 mm 0,0 UV-I 0 W/m 6,9 C 6,7 C 27,4 km/h (4 Bft) 96,15 %
14.09.2017 23:30 11,2 C 16,1 C 75 % 1014,6 hPa 0,0 l/m 17,1 km/h (3 Bft) SW 225 0 min 0,000 mm 0,0 UV-I 0 W/m 6,9 C 5,8 C 27,4 km/h (4 Bft) 97,06 %
14.09.2017 23:32 11,2 C 16,1 C 75 % 1014,6 hPa 0,0 l/m 18,2 km/h (3 Bft) SW 236 0 min 0,000 mm 0,0 UV-I 0 W/m 6,9 C 5,4 C 25,7 km/h (4 Bft) 97,37 %
14.09.2017 23:34 11,2 C 16,1 C 75 % 1014,7 hPa 0,0 l/m 15,9 km/h (3 Bft) W-SW 250 0 min 0,000 mm 0,0 UV-I 0 W/m 6,9 C 6,2 C 27,4 km/h (4 Bft) 98,00 %
14.09.2017 23:36 11,2 C 16,1 C 74 % 1014,6 hPa 0,0 l/m 13,4 km/h (3 Bft) W-SW 246 0 min 0,000 mm 0,0 UV-I 0 W/m 6,7 C 7,3 C 22,5 km/h (4 Bft) 100,00 %
14.09.2017 23:38 11,2 C 16,1 C 74 % 1014,6 hPa 0,0 l/m 14,7 km/h (3 Bft) W-SW 244 0 min 0,000 mm 0,0 UV-I 0 W/m 6,7 C 6,7 C 27,4 km/h (4 Bft) 98,11 %
14.09.2017 23:40 11,2 C 16,1 C 74 % 1014,6 hPa 0,0 l/m 19,1 km/h (3 Bft) W 277 0 min 0,000 mm 0,0 UV-I 0 W/m 6,7 C 5,1 C 32,2 km/h (5 Bft) 100,00 %
14.09.2017 23:42 11,2 C 16,1 C 73 % 1014,6 hPa 0,0 l/m 17,4 km/h (3 Bft) W 273 0 min 0,000 mm 0,0 UV-I 0 W/m 6,5 C 5,7 C 27,4 km/h (4 Bft) 98,11 %
14.09.2017 23:44 11,2 C 16,1 C 73 % 1014,6 hPa 0,0 l/m 14,5 km/h (3 Bft) W 273 0 min 0,000 mm 0,0 UV-I 0 W/m 6,5 C 6,8 C 22,5 km/h (4 Bft) 100,00 %
14.09.2017 23:46 11,2 C 16,1 C 73 % 1014,6 hPa 0,0 l/m 22,9 km/h (4 Bft) W-SW 244 0 min 0,000 mm 0,0 UV-I 0 W/m 6,5 C 4,0 C 35,4 km/h (5 Bft) 100,00 %
14.09.2017 23:48 11,2 C 16,1 C 72 % 1014,4 hPa 0,0 l/m 22,0 km/h (4 Bft) W-SW 240 0 min 0,000 mm 0,0 UV-I 0 W/m 6,3 C 4,2 C 32,2 km/h (5 Bft) 100,00 %
14.09.2017 23:50 11,2 C 16,1 C 72 % 1014,5 hPa 0,0 l/m 21,7 km/h (4 Bft) SW 218 0 min 0,000 mm 0,0 UV-I 0 W/m 6,3 C 4,3 C 35,4 km/h (5 Bft) 100,00 %
14.09.2017 23:52 11,3 C 16,1 C 72 % 1014,4 hPa 0,0 l/m 18,7 km/h (3 Bft) W 259 0 min 0,000 mm 0,0 UV-I 0 W/m 6,4 C 5,4 C 33,8 km/h (5 Bft) 100,00 %
14.09.2017 23:54 11,3 C 16,1 C 72 % 1014,5 hPa 0,0 l/m 19,3 km/h (3 Bft) SW 234 0 min 0,000 mm 0,0 UV-I 0 W/m 6,4 C 5,2 C 30,6 km/h (5 Bft) 100,00 %
14.09.2017 23:56 11,3 C 16,1 C 72 % 1014,6 hPa 0,0 l/m 16,1 km/h (3 Bft) W-SW 253 0 min 0,000 mm 0,0 UV-I 0 W/m 6,4 C 6,3 C 25,7 km/h (4 Bft) 96,00 %
14.09.2017 23:58 11,3 C 16,1 C 72 % 1014,5 hPa 0,0 l/m 14,8 km/h (3 Bft) W-SW 239 0 min 0,000 mm 0,0 UV-I 0 W/m 6,4 C 6,8 C 24,1 km/h (4 Bft) 100,00 %
_ Min-Zeit 06:46 22:20 12:22 12:34 - 00:56 - - - - - - 23:48 20:25 00:56 15:56
Minimum _ 9,8 C 16,1 C 56 % 1003,4 hPa - 0,0 km/h (0 Bft) - - - - - - 6,3 C 1,8 C 0,0 km/h (0 Bft) 85,71 %
_ Max-Zeit 13:04 00:00 07:40 23:34 17:16 15:54 - - 06:50 13:00 13:02 13:04 13:06 13:02 14:18 00:00
Maximum _ 23,3 C 16,7 C 97 % 1014,7 hPa 0,2 l/m 34,8 km/h
W-SW (5 Bft)
- - 2 min 0,458 mm 4,6 UV-I 854 W/m 15,4 C 23,1 C 48,3 km/h
W (6 Bft)
100,00 %
Durchschnitt _ 13,4 C 16,7 C 81 % 1008,6 hPa #0,8 l/m 9,0 km/h (2 Bft) SW - #6:37 h #2,438 mm 2,6 UV-I 265 W/m 10,1 C 11,1 C 14,2 km/h (3 Bft) 98,03 %